<?xml version='1.0' encoding='UTF-8'?>
<gpx version="1.1" creator="https://www.komoot.de" xmlns="http://www.topografix.com/GPX/1/1" xmlns:xsi="http://www.w3.org/2001/XMLSchema-instance" xsi:schemaLocation="http://www.topografix.com/GPX/1/1 http://www.topografix.com/GPX/1/1/gpx.xsd">
  <metadata>
    <name>Randonnée Medio 2026 (6/5/26)</name>
    <author>
      <link href="https://www.komoot.de">
        <text>komoot</text>
        <type>text/html</type>
      </link>
    </author>
  </metadata>
  <trk>
    <name>Randonnée Medio 2026 (6/5/26)</name>
    <trkseg>
      <trkpt lat="43.655823" lon="10.630496">
        <ele>14.859471</ele>
        <time>2026-05-06T19:23:57.628Z</time>
      </trkpt>
      <trkpt lat="43.655783" lon="10.630798">
        <ele>14.859471</ele>
        <time>2026-05-06T19:24:02.352Z</time>
      </trkpt>
      <trkpt lat="43.655747" lon="10.631021">
        <ele>14.859471</ele>
        <time>2026-05-06T19:24:05.805Z</time>
      </trkpt>
      <trkpt lat="43.655659" lon="10.631488">
        <ele>14.859471</ele>
        <time>2026-05-06T19:24:12.982Z</time>
      </trkpt>
      <trkpt lat="43.655590" lon="10.631469">
        <ele>14.859471</ele>
        <time>2026-05-06T19:24:14.422Z</time>
      </trkpt>
      <trkpt lat="43.655438" lon="10.631528">
        <ele>14.803625</ele>
        <time>2026-05-06T19:24:17.643Z</time>
      </trkpt>
      <trkpt lat="43.655125" lon="10.631413">
        <ele>14.527480</ele>
        <time>2026-05-06T19:24:24.201Z</time>
      </trkpt>
      <trkpt lat="43.654984" lon="10.631432">
        <ele>14.406687</ele>
        <time>2026-05-06T19:24:27.082Z</time>
      </trkpt>
      <trkpt lat="43.654679" lon="10.631313">
        <ele>14.136469</ele>
        <time>2026-05-06T19:24:33.506Z</time>
      </trkpt>
      <trkpt lat="43.654628" lon="10.631289">
        <ele>14.090533</ele>
        <time>2026-05-06T19:24:34.599Z</time>
      </trkpt>
      <trkpt lat="43.654604" lon="10.631337">
        <ele>14.054539</ele>
        <time>2026-05-06T19:24:35.456Z</time>
      </trkpt>
      <trkpt lat="43.654409" lon="10.631137">
        <ele>13.847496</ele>
        <time>2026-05-06T19:24:40.372Z</time>
      </trkpt>
      <trkpt lat="43.654390" lon="10.631087">
        <ele>13.812655</ele>
        <time>2026-05-06T19:24:41.205Z</time>
      </trkpt>
      <trkpt lat="43.654348" lon="10.630904">
        <ele>13.694219</ele>
        <time>2026-05-06T19:24:44.041Z</time>
      </trkpt>
      <trkpt lat="43.654250" lon="10.629909">
        <ele>13.255059</ele>
        <time>2026-05-06T19:24:59.434Z</time>
      </trkpt>
      <trkpt lat="43.654165" lon="10.629503">
        <ele>13.181537</ele>
        <time>2026-05-06T19:25:06.150Z</time>
      </trkpt>
      <trkpt lat="43.653977" lon="10.628956">
        <ele>13.076194</ele>
        <time>2026-05-06T19:25:15.965Z</time>
      </trkpt>
      <trkpt lat="43.653652" lon="10.628288">
        <ele>12.936164</ele>
        <time>2026-05-06T19:25:29.350Z</time>
      </trkpt>
      <trkpt lat="43.653551" lon="10.628080">
        <ele>12.893043</ele>
        <time>2026-05-06T19:25:33.547Z</time>
      </trkpt>
      <trkpt lat="43.653513" lon="10.627930">
        <ele>12.880301</ele>
        <time>2026-05-06T19:25:36.195Z</time>
      </trkpt>
      <trkpt lat="43.653511" lon="10.627778">
        <ele>12.868113</ele>
        <time>2026-05-06T19:25:38.758Z</time>
      </trkpt>
      <trkpt lat="43.653522" lon="10.627635">
        <ele>12.856584</ele>
        <time>2026-05-06T19:25:41.131Z</time>
      </trkpt>
      <trkpt lat="43.653462" lon="10.627401">
        <ele>12.836680</ele>
        <time>2026-05-06T19:25:45.204Z</time>
      </trkpt>
      <trkpt lat="43.653390" lon="10.627308">
        <ele>12.825760</ele>
        <time>2026-05-06T19:25:47.379Z</time>
      </trkpt>
      <trkpt lat="43.653309" lon="10.627252">
        <ele>12.815725</ele>
        <time>2026-05-06T19:25:49.385Z</time>
      </trkpt>
      <trkpt lat="43.653194" lon="10.627236">
        <ele>12.802918</ele>
        <time>2026-05-06T19:25:51.955Z</time>
      </trkpt>
      <trkpt lat="43.653039" lon="10.627318">
        <ele>12.784527</ele>
        <time>2026-05-06T19:25:55.609Z</time>
      </trkpt>
      <trkpt lat="43.652945" lon="10.627477">
        <ele>12.768066</ele>
        <time>2026-05-06T19:25:58.903Z</time>
      </trkpt>
      <trkpt lat="43.652919" lon="10.627674">
        <ele>12.752011</ele>
        <time>2026-05-06T19:26:02.104Z</time>
      </trkpt>
      <trkpt lat="43.652858" lon="10.627921">
        <ele>12.731086</ele>
        <time>2026-05-06T19:26:06.290Z</time>
      </trkpt>
      <trkpt lat="43.652692" lon="10.628222">
        <ele>12.700743</ele>
        <time>2026-05-06T19:26:12.460Z</time>
      </trkpt>
      <trkpt lat="43.652159" lon="10.628792">
        <ele>12.995128</ele>
        <time>2026-05-06T19:26:28.191Z</time>
      </trkpt>
      <trkpt lat="43.651701" lon="10.629282">
        <ele>13.278955</ele>
        <time>2026-05-06T19:26:43.613Z</time>
      </trkpt>
      <trkpt lat="43.651677" lon="10.629240">
        <ele>13.297931</ele>
        <time>2026-05-06T19:26:44.703Z</time>
      </trkpt>
      <trkpt lat="43.651668" lon="10.629224">
        <ele>13.305117</ele>
        <time>2026-05-06T19:26:45.133Z</time>
      </trkpt>
      <trkpt lat="43.651229" lon="10.629683">
        <ele>13.574871</ele>
        <time>2026-05-06T19:27:00.823Z</time>
      </trkpt>
      <trkpt lat="43.650969" lon="10.629738">
        <ele>13.755344</ele>
        <time>2026-05-06T19:27:08.305Z</time>
      </trkpt>
      <trkpt lat="43.650905" lon="10.629713">
        <ele>13.801045</ele>
        <time>2026-05-06T19:27:10.146Z</time>
      </trkpt>
      <trkpt lat="43.650745" lon="10.629541">
        <ele>13.940333</ele>
        <time>2026-05-06T19:27:15.830Z</time>
      </trkpt>
      <trkpt lat="43.650575" lon="10.629437">
        <ele>14.068083</ele>
        <time>2026-05-06T19:27:21.013Z</time>
      </trkpt>
      <trkpt lat="43.650549" lon="10.629375">
        <ele>14.103712</ele>
        <time>2026-05-06T19:27:22.456Z</time>
      </trkpt>
      <trkpt lat="43.650541" lon="10.629217">
        <ele>14.182462</ele>
        <time>2026-05-06T19:27:25.583Z</time>
      </trkpt>
      <trkpt lat="43.650424" lon="10.629794">
        <ele>14.480400</ele>
        <time>2026-05-06T19:27:37.148Z</time>
      </trkpt>
      <trkpt lat="43.650414" lon="10.629829">
        <ele>14.499110</ele>
        <time>2026-05-06T19:27:37.828Z</time>
      </trkpt>
      <trkpt lat="43.650311" lon="10.629978">
        <ele>14.601568</ele>
        <time>2026-05-06T19:27:41.706Z</time>
      </trkpt>
      <trkpt lat="43.650064" lon="10.630088">
        <ele>14.779890</ele>
        <time>2026-05-06T19:27:48.292Z</time>
      </trkpt>
      <trkpt lat="43.648514" lon="10.629638">
        <ele>15.645060</ele>
        <time>2026-05-06T19:28:29.655Z</time>
      </trkpt>
      <trkpt lat="43.648362" lon="10.629594">
        <ele>15.729237</ele>
        <time>2026-05-06T19:28:33.941Z</time>
      </trkpt>
      <trkpt lat="43.647164" lon="10.629249">
        <ele>16.381972</ele>
        <time>2026-05-06T19:29:06.745Z</time>
      </trkpt>
      <trkpt lat="43.646987" lon="10.629197">
        <ele>16.478345</ele>
        <time>2026-05-06T19:29:11.486Z</time>
      </trkpt>
      <trkpt lat="43.646035" lon="10.628916">
        <ele>16.920991</ele>
        <time>2026-05-06T19:29:36.118Z</time>
      </trkpt>
      <trkpt lat="43.645492" lon="10.628760">
        <ele>17.127672</ele>
        <time>2026-05-06T19:29:50.169Z</time>
      </trkpt>
      <trkpt lat="43.643094" lon="10.628072">
        <ele>18.056067</ele>
        <time>2026-05-06T19:30:52.024Z</time>
      </trkpt>
      <trkpt lat="43.642718" lon="10.628002">
        <ele>18.096415</ele>
        <time>2026-05-06T19:31:01.675Z</time>
      </trkpt>
      <trkpt lat="43.642326" lon="10.627982">
        <ele>18.088402</ele>
        <time>2026-05-06T19:31:11.249Z</time>
      </trkpt>
      <trkpt lat="43.641749" lon="10.628010">
        <ele>18.076607</ele>
        <time>2026-05-06T19:31:24.424Z</time>
      </trkpt>
      <trkpt lat="43.641685" lon="10.628016">
        <ele>18.075296</ele>
        <time>2026-05-06T19:31:25.858Z</time>
      </trkpt>
      <trkpt lat="43.640730" lon="10.628111">
        <ele>17.914133</ele>
        <time>2026-05-06T19:31:46.676Z</time>
      </trkpt>
      <trkpt lat="43.640232" lon="10.628496">
        <ele>17.723892</ele>
        <time>2026-05-06T19:31:59.620Z</time>
      </trkpt>
      <trkpt lat="43.640014" lon="10.628718">
        <ele>17.633611</ele>
        <time>2026-05-06T19:32:05.913Z</time>
      </trkpt>
      <trkpt lat="43.639782" lon="10.629060">
        <ele>17.520517</ele>
        <time>2026-05-06T19:32:13.976Z</time>
      </trkpt>
      <trkpt lat="43.639660" lon="10.629368">
        <ele>17.466666</ele>
        <time>2026-05-06T19:32:20.044Z</time>
      </trkpt>
      <trkpt lat="43.639640" lon="10.629420">
        <ele>17.467299</ele>
        <time>2026-05-06T19:32:21.076Z</time>
      </trkpt>
      <trkpt lat="43.639546" lon="10.629871">
        <ele>17.472350</ele>
        <time>2026-05-06T19:32:29.229Z</time>
      </trkpt>
      <trkpt lat="43.639463" lon="10.630073">
        <ele>17.474849</ele>
        <time>2026-05-06T19:32:33.285Z</time>
      </trkpt>
      <trkpt lat="43.639465" lon="10.630218">
        <ele>17.476410</ele>
        <time>2026-05-06T19:32:35.823Z</time>
      </trkpt>
      <trkpt lat="43.638996" lon="10.631122">
        <ele>17.488379</ele>
        <time>2026-05-06T19:32:55.664Z</time>
      </trkpt>
      <trkpt lat="43.638868" lon="10.631772">
        <ele>17.552581</ele>
        <time>2026-05-06T19:33:07.693Z</time>
      </trkpt>
      <trkpt lat="43.638836" lon="10.631878">
        <ele>17.573726</ele>
        <time>2026-05-06T19:33:09.729Z</time>
      </trkpt>
      <trkpt lat="43.638741" lon="10.632043">
        <ele>17.612543</ele>
        <time>2026-05-06T19:33:13.494Z</time>
      </trkpt>
      <trkpt lat="43.638587" lon="10.632190">
        <ele>17.660157</ele>
        <time>2026-05-06T19:33:18.095Z</time>
      </trkpt>
      <trkpt lat="43.637491" lon="10.632823">
        <ele>17.962363</ele>
        <time>2026-05-06T19:33:49.629Z</time>
      </trkpt>
      <trkpt lat="43.636833" lon="10.633185">
        <ele>18.142848</ele>
        <time>2026-05-06T19:34:07.882Z</time>
      </trkpt>
      <trkpt lat="43.636609" lon="10.633248">
        <ele>18.201102</ele>
        <time>2026-05-06T19:34:13.748Z</time>
      </trkpt>
      <trkpt lat="43.636094" lon="10.633303">
        <ele>18.332735</ele>
        <time>2026-05-06T19:34:27.220Z</time>
      </trkpt>
      <trkpt lat="43.635384" lon="10.633149">
        <ele>18.470907</ele>
        <time>2026-05-06T19:34:45.214Z</time>
      </trkpt>
      <trkpt lat="43.635121" lon="10.633194">
        <ele>18.510285</ele>
        <time>2026-05-06T19:34:51.764Z</time>
      </trkpt>
      <trkpt lat="43.634806" lon="10.633306">
        <ele>18.558616</ele>
        <time>2026-05-06T19:35:00.018Z</time>
      </trkpt>
      <trkpt lat="43.634594" lon="10.633447">
        <ele>18.593576</ele>
        <time>2026-05-06T19:35:06.021Z</time>
      </trkpt>
      <trkpt lat="43.634104" lon="10.633901">
        <ele>18.687148</ele>
        <time>2026-05-06T19:35:21.018Z</time>
      </trkpt>
      <trkpt lat="43.633857" lon="10.633902">
        <ele>18.760131</ele>
        <time>2026-05-06T19:35:27.113Z</time>
      </trkpt>
      <trkpt lat="43.633001" lon="10.633702">
        <ele>19.016650</ele>
        <time>2026-05-06T19:35:49.544Z</time>
      </trkpt>
      <trkpt lat="43.632865" lon="10.633739">
        <ele>19.057607</ele>
        <time>2026-05-06T19:35:53.265Z</time>
      </trkpt>
      <trkpt lat="43.632545" lon="10.634508">
        <ele>19.239958</ele>
        <time>2026-05-06T19:36:10.485Z</time>
      </trkpt>
      <trkpt lat="43.632377" lon="10.634772">
        <ele>19.301522</ele>
        <time>2026-05-06T19:36:17.307Z</time>
      </trkpt>
      <trkpt lat="43.632361" lon="10.634808">
        <ele>19.308920</ele>
        <time>2026-05-06T19:36:18.147Z</time>
      </trkpt>
      <trkpt lat="43.632315" lon="10.634911">
        <ele>19.330116</ele>
        <time>2026-05-06T19:36:20.499Z</time>
      </trkpt>
      <trkpt lat="43.632171" lon="10.635325">
        <ele>19.410558</ele>
        <time>2026-05-06T19:36:29.224Z</time>
      </trkpt>
      <trkpt lat="43.632063" lon="10.635430">
        <ele>19.442512</ele>
        <time>2026-05-06T19:36:32.576Z</time>
      </trkpt>
      <trkpt lat="43.631951" lon="10.635458">
        <ele>19.470052</ele>
        <time>2026-05-06T19:36:35.436Z</time>
      </trkpt>
      <trkpt lat="43.631766" lon="10.635443">
        <ele>19.514893</ele>
        <time>2026-05-06T19:36:40.027Z</time>
      </trkpt>
      <trkpt lat="43.631534" lon="10.635378">
        <ele>19.572172</ele>
        <time>2026-05-06T19:36:45.840Z</time>
      </trkpt>
      <trkpt lat="43.631334" lon="10.635272">
        <ele>19.624003</ele>
        <time>2026-05-06T19:36:51.098Z</time>
      </trkpt>
      <trkpt lat="43.631000" lon="10.634979">
        <ele>19.564279</ele>
        <time>2026-05-06T19:37:01.019Z</time>
      </trkpt>
      <trkpt lat="43.630814" lon="10.634862">
        <ele>19.514922</ele>
        <time>2026-05-06T19:37:06.215Z</time>
      </trkpt>
      <trkpt lat="43.630604" lon="10.634793">
        <ele>19.462791</ele>
        <time>2026-05-06T19:37:11.555Z</time>
      </trkpt>
      <trkpt lat="43.630297" lon="10.634692">
        <ele>19.386576</ele>
        <time>2026-05-06T19:37:18.965Z</time>
      </trkpt>
      <trkpt lat="43.629951" lon="10.634688">
        <ele>19.303012</ele>
        <time>2026-05-06T19:37:26.861Z</time>
      </trkpt>
      <trkpt lat="43.629733" lon="10.634720">
        <ele>19.250067</ele>
        <time>2026-05-06T19:37:31.815Z</time>
      </trkpt>
      <trkpt lat="43.629383" lon="10.634877">
        <ele>19.169317</ele>
        <time>2026-05-06T19:37:39.889Z</time>
      </trkpt>
      <trkpt lat="43.629213" lon="10.634858">
        <ele>19.135344</ele>
        <time>2026-05-06T19:37:43.575Z</time>
      </trkpt>
      <trkpt lat="43.628915" lon="10.634690">
        <ele>19.071232</ele>
        <time>2026-05-06T19:37:50.744Z</time>
      </trkpt>
      <trkpt lat="43.628254" lon="10.634421">
        <ele>18.933972</ele>
        <time>2026-05-06T19:38:06.820Z</time>
      </trkpt>
      <trkpt lat="43.627935" lon="10.634319">
        <ele>18.868750</ele>
        <time>2026-05-06T19:38:15.802Z</time>
      </trkpt>
      <trkpt lat="43.627755" lon="10.634303">
        <ele>18.906469</ele>
        <time>2026-05-06T19:38:20.959Z</time>
      </trkpt>
      <trkpt lat="43.626780" lon="10.634414">
        <ele>19.584003</ele>
        <time>2026-05-06T19:38:49.565Z</time>
      </trkpt>
      <trkpt lat="43.626572" lon="10.634422">
        <ele>19.728111</ele>
        <time>2026-05-06T19:38:55.353Z</time>
      </trkpt>
      <trkpt lat="43.626374" lon="10.634429">
        <ele>19.865282</ele>
        <time>2026-05-06T19:39:00.848Z</time>
      </trkpt>
      <trkpt lat="43.625936" lon="10.634394">
        <ele>20.136202</ele>
        <time>2026-05-06T19:39:13.204Z</time>
      </trkpt>
      <trkpt lat="43.625365" lon="10.634362">
        <ele>20.356323</ele>
        <time>2026-05-06T19:39:29.054Z</time>
      </trkpt>
      <trkpt lat="43.624538" lon="10.634297">
        <ele>20.675386</ele>
        <time>2026-05-06T19:39:50.641Z</time>
      </trkpt>
      <trkpt lat="43.624368" lon="10.634271">
        <ele>20.741267</ele>
        <time>2026-05-06T19:39:55.092Z</time>
      </trkpt>
      <trkpt lat="43.624178" lon="10.634241">
        <ele>20.837804</ele>
        <time>2026-05-06T19:39:59.999Z</time>
      </trkpt>
      <trkpt lat="43.623431" lon="10.634209">
        <ele>21.367946</ele>
        <time>2026-05-06T19:40:18.784Z</time>
      </trkpt>
      <trkpt lat="43.623032" lon="10.634191">
        <ele>21.651129</ele>
        <time>2026-05-06T19:40:29.640Z</time>
      </trkpt>
      <trkpt lat="43.622102" lon="10.634111">
        <ele>22.444382</ele>
        <time>2026-05-06T19:41:00.875Z</time>
      </trkpt>
      <trkpt lat="43.621790" lon="10.634040">
        <ele>22.788085</ele>
        <time>2026-05-06T19:41:11.436Z</time>
      </trkpt>
      <trkpt lat="43.621893" lon="10.633813">
        <ele>22.998890</ele>
        <time>2026-05-06T19:41:17.487Z</time>
      </trkpt>
      <trkpt lat="43.622179" lon="10.633183">
        <ele>23.584024</ele>
        <time>2026-05-06T19:41:33.302Z</time>
      </trkpt>
      <trkpt lat="43.622445" lon="10.632599">
        <ele>24.031935</ele>
        <time>2026-05-06T19:41:46.946Z</time>
      </trkpt>
      <trkpt lat="43.622471" lon="10.632540">
        <ele>24.038588</ele>
        <time>2026-05-06T19:41:48.145Z</time>
      </trkpt>
      <trkpt lat="43.622915" lon="10.631563">
        <ele>24.149707</ele>
        <time>2026-05-06T19:42:06.796Z</time>
      </trkpt>
      <trkpt lat="43.622935" lon="10.631517">
        <ele>24.154875</ele>
        <time>2026-05-06T19:42:07.683Z</time>
      </trkpt>
      <trkpt lat="43.622870" lon="10.631450">
        <ele>24.165667</ele>
        <time>2026-05-06T19:42:09.663Z</time>
      </trkpt>
      <trkpt lat="43.622708" lon="10.631312">
        <ele>24.190993</ele>
        <time>2026-05-06T19:42:14.318Z</time>
      </trkpt>
      <trkpt lat="43.622611" lon="10.631229">
        <ele>24.206176</ele>
        <time>2026-05-06T19:42:17.211Z</time>
      </trkpt>
      <trkpt lat="43.622416" lon="10.631149">
        <ele>24.233243</ele>
        <time>2026-05-06T19:42:22.585Z</time>
      </trkpt>
      <trkpt lat="43.621904" lon="10.631308">
        <ele>24.292907</ele>
        <time>2026-05-06T19:42:36.538Z</time>
      </trkpt>
      <trkpt lat="43.621581" lon="10.631408">
        <ele>24.327015</ele>
        <time>2026-05-06T19:42:44.778Z</time>
      </trkpt>
      <trkpt lat="43.621350" lon="10.631334">
        <ele>24.351449</ele>
        <time>2026-05-06T19:42:50.556Z</time>
      </trkpt>
      <trkpt lat="43.621344" lon="10.631301">
        <ele>24.353987</ele>
        <time>2026-05-06T19:42:51.107Z</time>
      </trkpt>
      <trkpt lat="43.621267" lon="10.631149">
        <ele>24.367826</ele>
        <time>2026-05-06T19:42:54.125Z</time>
      </trkpt>
      <trkpt lat="43.620877" lon="10.630836">
        <ele>24.414302</ele>
        <time>2026-05-06T19:43:04.278Z</time>
      </trkpt>
      <trkpt lat="43.620610" lon="10.630661">
        <ele>24.444187</ele>
        <time>2026-05-06T19:43:11.388Z</time>
      </trkpt>
      <trkpt lat="43.620595" lon="10.630652">
        <ele>24.445192</ele>
        <time>2026-05-06T19:43:11.813Z</time>
      </trkpt>
      <trkpt lat="43.620476" lon="10.630575">
        <ele>24.453262</ele>
        <time>2026-05-06T19:43:15.038Z</time>
      </trkpt>
      <trkpt lat="43.620309" lon="10.630466">
        <ele>24.464606</ele>
        <time>2026-05-06T19:43:19.436Z</time>
      </trkpt>
      <trkpt lat="43.620108" lon="10.630331">
        <ele>24.478332</ele>
        <time>2026-05-06T19:43:24.701Z</time>
      </trkpt>
      <trkpt lat="43.620015" lon="10.630342">
        <ele>24.484065</ele>
        <time>2026-05-06T19:43:26.979Z</time>
      </trkpt>
      <trkpt lat="43.619953" lon="10.630390">
        <ele>24.488430</ele>
        <time>2026-05-06T19:43:28.723Z</time>
      </trkpt>
      <trkpt lat="43.619928" lon="10.630469">
        <ele>24.492263</ele>
        <time>2026-05-06T19:43:30.259Z</time>
      </trkpt>
      <trkpt lat="43.619878" lon="10.630624">
        <ele>24.499808</ele>
        <time>2026-05-06T19:43:33.192Z</time>
      </trkpt>
      <trkpt lat="43.619827" lon="10.630796">
        <ele>24.508072</ele>
        <time>2026-05-06T19:43:36.379Z</time>
      </trkpt>
      <trkpt lat="43.619776" lon="10.630962">
        <ele>24.516089</ele>
        <time>2026-05-06T19:43:39.400Z</time>
      </trkpt>
      <trkpt lat="43.619738" lon="10.631101">
        <ele>24.522695</ele>
        <time>2026-05-06T19:43:41.934Z</time>
      </trkpt>
      <trkpt lat="43.619643" lon="10.631432">
        <ele>24.538526</ele>
        <time>2026-05-06T19:43:48.066Z</time>
      </trkpt>
      <trkpt lat="43.619583" lon="10.631640">
        <ele>24.548481</ele>
        <time>2026-05-06T19:43:51.935Z</time>
      </trkpt>
      <trkpt lat="43.619511" lon="10.631902">
        <ele>24.488050</ele>
        <time>2026-05-06T19:43:56.536Z</time>
      </trkpt>
      <trkpt lat="43.619456" lon="10.632100">
        <ele>24.401004</ele>
        <time>2026-05-06T19:43:59.969Z</time>
      </trkpt>
      <trkpt lat="43.619373" lon="10.632440">
        <ele>24.253733</ele>
        <time>2026-05-06T19:44:05.601Z</time>
      </trkpt>
      <trkpt lat="43.619284" lon="10.632793">
        <ele>24.100310</ele>
        <time>2026-05-06T19:44:11.325Z</time>
      </trkpt>
      <trkpt lat="43.619277" lon="10.632819">
        <ele>24.088925</ele>
        <time>2026-05-06T19:44:11.741Z</time>
      </trkpt>
      <trkpt lat="43.619214" lon="10.633104">
        <ele>23.966616</ele>
        <time>2026-05-06T19:44:15.949Z</time>
      </trkpt>
      <trkpt lat="43.619216" lon="10.633183">
        <ele>23.934171</ele>
        <time>2026-05-06T19:44:17.078Z</time>
      </trkpt>
      <trkpt lat="43.619253" lon="10.633270">
        <ele>23.892756</ele>
        <time>2026-05-06T19:44:18.493Z</time>
      </trkpt>
      <trkpt lat="43.619372" lon="10.633276">
        <ele>23.825243</ele>
        <time>2026-05-06T19:44:20.893Z</time>
      </trkpt>
      <trkpt lat="43.619900" lon="10.633425">
        <ele>23.541105</ele>
        <time>2026-05-06T19:44:32.241Z</time>
      </trkpt>
      <trkpt lat="43.619799" lon="10.633786">
        <ele>23.619120</ele>
        <time>2026-05-06T19:44:38.360Z</time>
      </trkpt>
      <trkpt lat="43.619692" lon="10.634171">
        <ele>23.702250</ele>
        <time>2026-05-06T19:44:45.758Z</time>
      </trkpt>
      <trkpt lat="43.619507" lon="10.634429">
        <ele>23.775451</ele>
        <time>2026-05-06T19:44:52.588Z</time>
      </trkpt>
      <trkpt lat="43.619193" lon="10.634815">
        <ele>23.892494</ele>
        <time>2026-05-06T19:45:03.004Z</time>
      </trkpt>
      <trkpt lat="43.618910" lon="10.635292">
        <ele>24.016813</ele>
        <time>2026-05-06T19:45:15.581Z</time>
      </trkpt>
      <trkpt lat="43.618878" lon="10.635346">
        <ele>24.030880</ele>
        <time>2026-05-06T19:45:16.993Z</time>
      </trkpt>
      <trkpt lat="43.618390" lon="10.636155">
        <ele>24.456287</ele>
        <time>2026-05-06T19:45:38.143Z</time>
      </trkpt>
      <trkpt lat="43.618017" lon="10.636829">
        <ele>24.802322</ele>
        <time>2026-05-06T19:45:53.902Z</time>
      </trkpt>
      <trkpt lat="43.617922" lon="10.637063">
        <ele>24.911750</ele>
        <time>2026-05-06T19:45:58.762Z</time>
      </trkpt>
      <trkpt lat="43.617803" lon="10.637389">
        <ele>25.052571</ele>
        <time>2026-05-06T19:46:05.404Z</time>
      </trkpt>
      <trkpt lat="43.617669" lon="10.637674">
        <ele>25.100743</ele>
        <time>2026-05-06T19:46:11.644Z</time>
      </trkpt>
      <trkpt lat="43.617524" lon="10.637920">
        <ele>25.145710</ele>
        <time>2026-05-06T19:46:17.411Z</time>
      </trkpt>
      <trkpt lat="43.616900" lon="10.638740">
        <ele>25.314351</ele>
        <time>2026-05-06T19:46:38.204Z</time>
      </trkpt>
      <trkpt lat="43.616666" lon="10.639057">
        <ele>25.378527</ele>
        <time>2026-05-06T19:46:45.689Z</time>
      </trkpt>
      <trkpt lat="43.616334" lon="10.639544">
        <ele>25.435316</ele>
        <time>2026-05-06T19:46:56.793Z</time>
      </trkpt>
      <trkpt lat="43.616009" lon="10.640154">
        <ele>25.486674</ele>
        <time>2026-05-06T19:47:09.874Z</time>
      </trkpt>
      <trkpt lat="43.615851" lon="10.640389">
        <ele>25.508420</ele>
        <time>2026-05-06T19:47:15.384Z</time>
      </trkpt>
      <trkpt lat="43.615655" lon="10.640578">
        <ele>25.530809</ele>
        <time>2026-05-06T19:47:21.082Z</time>
      </trkpt>
      <trkpt lat="43.615229" lon="10.640890">
        <ele>25.587521</ele>
        <time>2026-05-06T19:47:32.664Z</time>
      </trkpt>
      <trkpt lat="43.614859" lon="10.641148">
        <ele>25.689772</ele>
        <time>2026-05-06T19:47:42.477Z</time>
      </trkpt>
      <trkpt lat="43.614428" lon="10.641438">
        <ele>25.808044</ele>
        <time>2026-05-06T19:47:54.019Z</time>
      </trkpt>
      <trkpt lat="43.614038" lon="10.641644">
        <ele>25.911052</ele>
        <time>2026-05-06T19:48:04.125Z</time>
      </trkpt>
      <trkpt lat="43.613532" lon="10.641831">
        <ele>26.100270</ele>
        <time>2026-05-06T19:48:17.387Z</time>
      </trkpt>
      <trkpt lat="43.613306" lon="10.641951">
        <ele>26.289628</ele>
        <time>2026-05-06T19:48:23.796Z</time>
      </trkpt>
      <trkpt lat="43.612841" lon="10.642364">
        <ele>26.721990</ele>
        <time>2026-05-06T19:48:39.434Z</time>
      </trkpt>
      <trkpt lat="43.612629" lon="10.642502">
        <ele>26.905279</ele>
        <time>2026-05-06T19:48:46.185Z</time>
      </trkpt>
      <trkpt lat="43.612159" lon="10.642654">
        <ele>27.282794</ele>
        <time>2026-05-06T19:49:00.278Z</time>
      </trkpt>
      <trkpt lat="43.612025" lon="10.642697">
        <ele>27.390382</ele>
        <time>2026-05-06T19:49:04.203Z</time>
      </trkpt>
      <trkpt lat="43.611916" lon="10.642735">
        <ele>27.467880</ele>
        <time>2026-05-06T19:49:07.382Z</time>
      </trkpt>
      <trkpt lat="43.611547" lon="10.642925">
        <ele>27.721478</ele>
        <time>2026-05-06T19:49:17.765Z</time>
      </trkpt>
      <trkpt lat="43.611200" lon="10.643013">
        <ele>27.948668</ele>
        <time>2026-05-06T19:49:26.047Z</time>
      </trkpt>
      <trkpt lat="43.611148" lon="10.643021">
        <ele>27.982361</ele>
        <time>2026-05-06T19:49:27.258Z</time>
      </trkpt>
      <trkpt lat="43.610943" lon="10.643018">
        <ele>28.114380</ele>
        <time>2026-05-06T19:49:32.069Z</time>
      </trkpt>
      <trkpt lat="43.610695" lon="10.642936">
        <ele>28.278595</ele>
        <time>2026-05-06T19:49:38.831Z</time>
      </trkpt>
      <trkpt lat="43.610590" lon="10.642803">
        <ele>28.370342</ele>
        <time>2026-05-06T19:49:42.852Z</time>
      </trkpt>
      <trkpt lat="43.610426" lon="10.642722">
        <ele>28.482501</ele>
        <time>2026-05-06T19:49:48.021Z</time>
      </trkpt>
      <trkpt lat="43.610253" lon="10.642744">
        <ele>28.570639</ele>
        <time>2026-05-06T19:49:53.549Z</time>
      </trkpt>
      <trkpt lat="43.610103" lon="10.642864">
        <ele>28.524838</ele>
        <time>2026-05-06T19:49:59.288Z</time>
      </trkpt>
      <trkpt lat="43.610001" lon="10.643068">
        <ele>28.477410</ele>
        <time>2026-05-06T19:50:04.934Z</time>
      </trkpt>
      <trkpt lat="43.609974" lon="10.643313">
        <ele>28.430001</ele>
        <time>2026-05-06T19:50:10.030Z</time>
      </trkpt>
      <trkpt lat="43.610008" lon="10.643502">
        <ele>28.392745</ele>
        <time>2026-05-06T19:50:13.655Z</time>
      </trkpt>
      <trkpt lat="43.610087" lon="10.643663">
        <ele>28.355538</ele>
        <time>2026-05-06T19:50:17.074Z</time>
      </trkpt>
      <trkpt lat="43.609933" lon="10.643890">
        <ele>28.296028</ele>
        <time>2026-05-06T19:50:22.156Z</time>
      </trkpt>
      <trkpt lat="43.609898" lon="10.643952">
        <ele>28.280988</ele>
        <time>2026-05-06T19:50:24.255Z</time>
      </trkpt>
      <trkpt lat="43.609732" lon="10.644032">
        <ele>28.234535</ele>
        <time>2026-05-06T19:50:30.647Z</time>
      </trkpt>
      <trkpt lat="43.609603" lon="10.643922">
        <ele>28.194478</ele>
        <time>2026-05-06T19:50:35.992Z</time>
      </trkpt>
      <trkpt lat="43.609362" lon="10.643212">
        <ele>27.843767</ele>
        <time>2026-05-06T19:50:54.496Z</time>
      </trkpt>
      <trkpt lat="43.609219" lon="10.643010">
        <ele>27.602225</ele>
        <time>2026-05-06T19:51:00.937Z</time>
      </trkpt>
      <trkpt lat="43.609107" lon="10.642966">
        <ele>27.464724</ele>
        <time>2026-05-06T19:51:04.523Z</time>
      </trkpt>
      <trkpt lat="43.608539" lon="10.642882">
        <ele>26.790171</ele>
        <time>2026-05-06T19:51:22.652Z</time>
      </trkpt>
      <trkpt lat="43.606243" lon="10.642544">
        <ele>27.192779</ele>
        <time>2026-05-06T19:53:01.537Z</time>
      </trkpt>
      <trkpt lat="43.605530" lon="10.642439">
        <ele>27.358823</ele>
        <time>2026-05-06T19:53:32.783Z</time>
      </trkpt>
      <trkpt lat="43.598622" lon="10.642299">
        <ele>28.249297</ele>
        <time>2026-05-06T19:57:55.362Z</time>
      </trkpt>
      <trkpt lat="43.598235" lon="10.643181">
        <ele>29.488480</ele>
        <time>2026-05-06T19:58:21.699Z</time>
      </trkpt>
      <trkpt lat="43.597994" lon="10.643871">
        <ele>30.408996</ele>
        <time>2026-05-06T19:58:43.440Z</time>
      </trkpt>
      <trkpt lat="43.597771" lon="10.644423">
        <ele>31.361140</ele>
        <time>2026-05-06T19:59:00.727Z</time>
      </trkpt>
      <trkpt lat="43.597759" lon="10.644486">
        <ele>31.481714</ele>
        <time>2026-05-06T19:59:03.091Z</time>
      </trkpt>
      <trkpt lat="43.597784" lon="10.644580">
        <ele>31.667063</ele>
        <time>2026-05-06T19:59:06.775Z</time>
      </trkpt>
      <trkpt lat="43.598242" lon="10.645327">
        <ele>33.478673</ele>
        <time>2026-05-06T19:59:41.769Z</time>
      </trkpt>
      <trkpt lat="43.598702" lon="10.645994">
        <ele>35.183478</ele>
        <time>2026-05-06T20:00:17.565Z</time>
      </trkpt>
      <trkpt lat="43.598814" lon="10.646219">
        <ele>36.129394</ele>
        <time>2026-05-06T20:00:29.217Z</time>
      </trkpt>
      <trkpt lat="43.598830" lon="10.646308">
        <ele>36.566435</ele>
        <time>2026-05-06T20:00:33.284Z</time>
      </trkpt>
      <trkpt lat="43.598821" lon="10.646418">
        <ele>37.094021</ele>
        <time>2026-05-06T20:00:38.312Z</time>
      </trkpt>
      <trkpt lat="43.598546" lon="10.647313">
        <ele>41.727584</ele>
        <time>2026-05-06T20:01:28.981Z</time>
      </trkpt>
      <trkpt lat="43.598482" lon="10.647674">
        <ele>43.498894</ele>
        <time>2026-05-06T20:01:51.502Z</time>
      </trkpt>
      <trkpt lat="43.598478" lon="10.647864">
        <ele>44.404807</ele>
        <time>2026-05-06T20:02:03.637Z</time>
      </trkpt>
      <trkpt lat="43.598652" lon="10.648356">
        <ele>47.014318</ele>
        <time>2026-05-06T20:02:40.542Z</time>
      </trkpt>
      <trkpt lat="43.598892" lon="10.648886">
        <ele>50.405266</ele>
        <time>2026-05-06T20:03:24.884Z</time>
      </trkpt>
      <trkpt lat="43.598940" lon="10.649064">
        <ele>51.446205</ele>
        <time>2026-05-06T20:03:38.151Z</time>
      </trkpt>
      <trkpt lat="43.598958" lon="10.649336">
        <ele>52.943071</ele>
        <time>2026-05-06T20:03:56.714Z</time>
      </trkpt>
      <trkpt lat="43.598918" lon="10.649584">
        <ele>54.335499</ele>
        <time>2026-05-06T20:04:13.346Z</time>
      </trkpt>
      <trkpt lat="43.598843" lon="10.649792">
        <ele>55.608896</ele>
        <time>2026-05-06T20:04:27.730Z</time>
      </trkpt>
      <trkpt lat="43.598785" lon="10.649895">
        <ele>56.323940</ele>
        <time>2026-05-06T20:04:35.451Z</time>
      </trkpt>
      <trkpt lat="43.598622" lon="10.650076">
        <ele>57.906828</ele>
        <time>2026-05-06T20:04:51.792Z</time>
      </trkpt>
      <trkpt lat="43.598033" lon="10.650300">
        <ele>61.438024</ele>
        <time>2026-05-06T20:05:33.591Z</time>
      </trkpt>
      <trkpt lat="43.597833" lon="10.650443">
        <ele>62.029565</ele>
        <time>2026-05-06T20:05:46.763Z</time>
      </trkpt>
      <trkpt lat="43.597754" lon="10.650585">
        <ele>62.370161</ele>
        <time>2026-05-06T20:05:53.754Z</time>
      </trkpt>
      <trkpt lat="43.596956" lon="10.652611">
        <ele>65.845526</ele>
        <time>2026-05-06T20:07:14.770Z</time>
      </trkpt>
      <trkpt lat="43.596695" lon="10.652710">
        <ele>66.005151</ele>
        <time>2026-05-06T20:07:26.800Z</time>
      </trkpt>
      <trkpt lat="43.596508" lon="10.652842">
        <ele>66.129009</ele>
        <time>2026-05-06T20:07:35.782Z</time>
      </trkpt>
      <trkpt lat="43.596397" lon="10.652986">
        <ele>66.218830</ele>
        <time>2026-05-06T20:07:42.108Z</time>
      </trkpt>
      <trkpt lat="43.596189" lon="10.653534">
        <ele>66.483080</ele>
        <time>2026-05-06T20:07:59.735Z</time>
      </trkpt>
      <trkpt lat="43.595150" lon="10.654231">
        <ele>65.349680</ele>
        <time>2026-05-06T20:08:40.712Z</time>
      </trkpt>
      <trkpt lat="43.594396" lon="10.654475">
        <ele>64.218541</ele>
        <time>2026-05-06T20:09:06.430Z</time>
      </trkpt>
      <trkpt lat="43.593652" lon="10.654650">
        <ele>62.767969</ele>
        <time>2026-05-06T20:09:30.103Z</time>
      </trkpt>
      <trkpt lat="43.593646" lon="10.654654">
        <ele>62.754468</ele>
        <time>2026-05-06T20:09:30.302Z</time>
      </trkpt>
      <trkpt lat="43.593573" lon="10.654704">
        <ele>62.589346</ele>
        <time>2026-05-06T20:09:32.856Z</time>
      </trkpt>
      <trkpt lat="43.593432" lon="10.654801">
        <ele>62.270134</ele>
        <time>2026-05-06T20:09:37.809Z</time>
      </trkpt>
      <trkpt lat="43.593063" lon="10.655197">
        <ele>61.323126</ele>
        <time>2026-05-06T20:09:52.785Z</time>
      </trkpt>
      <trkpt lat="43.592664" lon="10.656137">
        <ele>61.011912</ele>
        <time>2026-05-06T20:10:20.372Z</time>
      </trkpt>
      <trkpt lat="43.592465" lon="10.656699">
        <ele>61.922626</ele>
        <time>2026-05-06T20:10:42.480Z</time>
      </trkpt>
      <trkpt lat="43.592238" lon="10.657070">
        <ele>62.629671</ele>
        <time>2026-05-06T20:11:03.118Z</time>
      </trkpt>
      <trkpt lat="43.592121" lon="10.657334">
        <ele>63.080253</ele>
        <time>2026-05-06T20:11:17.199Z</time>
      </trkpt>
      <trkpt lat="43.592037" lon="10.657643">
        <ele>63.560746</ele>
        <time>2026-05-06T20:11:32.272Z</time>
      </trkpt>
      <trkpt lat="43.591911" lon="10.658347">
        <ele>63.821348</ele>
        <time>2026-05-06T20:12:02.300Z</time>
      </trkpt>
      <trkpt lat="43.591867" lon="10.658524">
        <ele>63.750196</ele>
        <time>2026-05-06T20:12:09.019Z</time>
      </trkpt>
      <trkpt lat="43.591777" lon="10.658738">
        <ele>63.656106</ele>
        <time>2026-05-06T20:12:17.176Z</time>
      </trkpt>
      <trkpt lat="43.591628" lon="10.658916">
        <ele>63.552670</ele>
        <time>2026-05-06T20:12:25.026Z</time>
      </trkpt>
      <trkpt lat="43.591424" lon="10.659082">
        <ele>63.428361</ele>
        <time>2026-05-06T20:12:33.389Z</time>
      </trkpt>
      <trkpt lat="43.590727" lon="10.659545">
        <ele>62.930505</ele>
        <time>2026-05-06T20:12:57.343Z</time>
      </trkpt>
      <trkpt lat="43.589769" lon="10.660353">
        <ele>59.561587</ele>
        <time>2026-05-06T20:13:30.923Z</time>
      </trkpt>
      <trkpt lat="43.589035" lon="10.661217">
        <ele>56.732737</ele>
        <time>2026-05-06T20:14:03.636Z</time>
      </trkpt>
      <trkpt lat="43.588443" lon="10.662262">
        <ele>54.043129</ele>
        <time>2026-05-06T20:14:34.901Z</time>
      </trkpt>
      <trkpt lat="43.588295" lon="10.662518">
        <ele>53.379076</ele>
        <time>2026-05-06T20:14:39.124Z</time>
      </trkpt>
      <trkpt lat="43.587954" lon="10.662150">
        <ele>52.025451</ele>
        <time>2026-05-06T20:14:51.837Z</time>
      </trkpt>
      <trkpt lat="43.587883" lon="10.662105">
        <ele>51.736454</ele>
        <time>2026-05-06T20:14:54.089Z</time>
      </trkpt>
      <trkpt lat="43.587810" lon="10.662107">
        <ele>51.466360</ele>
        <time>2026-05-06T20:14:56.185Z</time>
      </trkpt>
      <trkpt lat="43.587465" lon="10.662384">
        <ele>49.990016</ele>
        <time>2026-05-06T20:15:07.560Z</time>
      </trkpt>
      <trkpt lat="43.587224" lon="10.662454">
        <ele>49.078995</ele>
        <time>2026-05-06T20:15:14.631Z</time>
      </trkpt>
      <trkpt lat="43.587160" lon="10.662422">
        <ele>48.827199</ele>
        <time>2026-05-06T20:15:16.613Z</time>
      </trkpt>
      <trkpt lat="43.587041" lon="10.662294">
        <ele>48.269162</ele>
        <time>2026-05-06T20:15:21.108Z</time>
      </trkpt>
      <trkpt lat="43.586824" lon="10.661995">
        <ele>47.135051</ele>
        <time>2026-05-06T20:15:30.858Z</time>
      </trkpt>
      <trkpt lat="43.586702" lon="10.661881">
        <ele>46.590096</ele>
        <time>2026-05-06T20:15:35.801Z</time>
      </trkpt>
      <trkpt lat="43.586625" lon="10.661760">
        <ele>46.158533</ele>
        <time>2026-05-06T20:15:39.811Z</time>
      </trkpt>
      <trkpt lat="43.586540" lon="10.661551">
        <ele>45.832813</ele>
        <time>2026-05-06T20:15:45.833Z</time>
      </trkpt>
      <trkpt lat="43.586389" lon="10.661447">
        <ele>45.657747</ele>
        <time>2026-05-06T20:15:51.758Z</time>
      </trkpt>
      <trkpt lat="43.586239" lon="10.661415">
        <ele>45.500283</ele>
        <time>2026-05-06T20:15:57.064Z</time>
      </trkpt>
      <trkpt lat="43.585776" lon="10.661452">
        <ele>45.019141</ele>
        <time>2026-05-06T20:16:13.169Z</time>
      </trkpt>
      <trkpt lat="43.585426" lon="10.660097">
        <ele>44.177574</ele>
        <time>2026-05-06T20:16:50.230Z</time>
      </trkpt>
      <trkpt lat="43.585285" lon="10.659288">
        <ele>44.536856</ele>
        <time>2026-05-06T20:17:12.485Z</time>
      </trkpt>
      <trkpt lat="43.584310" lon="10.659576">
        <ele>45.131208</ele>
        <time>2026-05-06T20:17:57.001Z</time>
      </trkpt>
      <trkpt lat="43.584050" lon="10.659839">
        <ele>46.222649</ele>
        <time>2026-05-06T20:18:13.035Z</time>
      </trkpt>
      <trkpt lat="43.583823" lon="10.660015">
        <ele>47.244778</ele>
        <time>2026-05-06T20:18:26.875Z</time>
      </trkpt>
      <trkpt lat="43.583134" lon="10.659882">
        <ele>49.976089</ele>
        <time>2026-05-06T20:19:10.295Z</time>
      </trkpt>
      <trkpt lat="43.582859" lon="10.659862">
        <ele>51.057229</ele>
        <time>2026-05-06T20:19:29.626Z</time>
      </trkpt>
      <trkpt lat="43.582675" lon="10.659962">
        <ele>51.833572</ele>
        <time>2026-05-06T20:19:44.041Z</time>
      </trkpt>
      <trkpt lat="43.582188" lon="10.660002">
        <ele>54.607272</ele>
        <time>2026-05-06T20:20:21.278Z</time>
      </trkpt>
      <trkpt lat="43.580937" lon="10.660741">
        <ele>62.956135</ele>
        <time>2026-05-06T20:22:04.516Z</time>
      </trkpt>
      <trkpt lat="43.580759" lon="10.660871">
        <ele>64.323163</ele>
        <time>2026-05-06T20:22:18.927Z</time>
      </trkpt>
      <trkpt lat="43.580219" lon="10.661001">
        <ele>68.160705</ele>
        <time>2026-05-06T20:22:59.287Z</time>
      </trkpt>
      <trkpt lat="43.579911" lon="10.661147">
        <ele>70.440570</ele>
        <time>2026-05-06T20:23:23.794Z</time>
      </trkpt>
      <trkpt lat="43.579604" lon="10.661247">
        <ele>72.648870</ele>
        <time>2026-05-06T20:23:49.355Z</time>
      </trkpt>
      <trkpt lat="43.579380" lon="10.661137">
        <ele>74.313345</ele>
        <time>2026-05-06T20:24:10.391Z</time>
      </trkpt>
      <trkpt lat="43.579173" lon="10.661104">
        <ele>75.772163</ele>
        <time>2026-05-06T20:24:29.530Z</time>
      </trkpt>
      <trkpt lat="43.579006" lon="10.661180">
        <ele>77.012966</ele>
        <time>2026-05-06T20:24:46.183Z</time>
      </trkpt>
      <trkpt lat="43.578896" lon="10.661267">
        <ele>77.908031</ele>
        <time>2026-05-06T20:24:58.187Z</time>
      </trkpt>
      <trkpt lat="43.578478" lon="10.661400">
        <ele>80.936582</ele>
        <time>2026-05-06T20:25:38.397Z</time>
      </trkpt>
      <trkpt lat="43.578039" lon="10.661607">
        <ele>84.211852</ele>
        <time>2026-05-06T20:26:18.270Z</time>
      </trkpt>
      <trkpt lat="43.577771" lon="10.661790">
        <ele>86.322835</ele>
        <time>2026-05-06T20:26:41.800Z</time>
      </trkpt>
      <trkpt lat="43.577398" lon="10.661986">
        <ele>88.571777</ele>
        <time>2026-05-06T20:27:07.704Z</time>
      </trkpt>
      <trkpt lat="43.576967" lon="10.662100">
        <ele>88.683806</ele>
        <time>2026-05-06T20:27:28.148Z</time>
      </trkpt>
      <trkpt lat="43.576691" lon="10.662003">
        <ele>88.756512</ele>
        <time>2026-05-06T20:27:38.926Z</time>
      </trkpt>
      <trkpt lat="43.576422" lon="10.662004">
        <ele>88.825184</ele>
        <time>2026-05-06T20:27:48.575Z</time>
      </trkpt>
      <trkpt lat="43.576584" lon="10.661773">
        <ele>88.884644</ele>
        <time>2026-05-06T20:27:53.538Z</time>
      </trkpt>
      <trkpt lat="43.576666" lon="10.661608">
        <ele>88.921649</ele>
        <time>2026-05-06T20:27:56.629Z</time>
      </trkpt>
      <trkpt lat="43.577051" lon="10.660659">
        <ele>87.765706</ele>
        <time>2026-05-06T20:28:12.220Z</time>
      </trkpt>
      <trkpt lat="43.577154" lon="10.660406">
        <ele>87.175947</ele>
        <time>2026-05-06T20:28:16.340Z</time>
      </trkpt>
      <trkpt lat="43.577215" lon="10.660249">
        <ele>86.813909</ele>
        <time>2026-05-06T20:28:18.900Z</time>
      </trkpt>
      <trkpt lat="43.577355" lon="10.660006">
        <ele>86.182974</ele>
        <time>2026-05-06T20:28:23.273Z</time>
      </trkpt>
      <trkpt lat="43.577563" lon="10.659762">
        <ele>85.417276</ele>
        <time>2026-05-06T20:28:28.512Z</time>
      </trkpt>
      <trkpt lat="43.577786" lon="10.659692">
        <ele>84.775764</ele>
        <time>2026-05-06T20:28:32.789Z</time>
      </trkpt>
      <trkpt lat="43.578499" lon="10.659748">
        <ele>81.027064</ele>
        <time>2026-05-06T20:28:44.996Z</time>
      </trkpt>
      <trkpt lat="43.578784" lon="10.659557">
        <ele>78.836757</ele>
        <time>2026-05-06T20:28:53.790Z</time>
      </trkpt>
      <trkpt lat="43.578932" lon="10.659399">
        <ele>77.543254</ele>
        <time>2026-05-06T20:28:58.880Z</time>
      </trkpt>
      <trkpt lat="43.579162" lon="10.657688">
        <ele>69.488706</ele>
        <time>2026-05-06T20:29:32.169Z</time>
      </trkpt>
      <trkpt lat="43.579403" lon="10.656890">
        <ele>66.218201</ele>
        <time>2026-05-06T20:29:49.474Z</time>
      </trkpt>
      <trkpt lat="43.579440" lon="10.656567">
        <ele>64.981173</ele>
        <time>2026-05-06T20:29:56.509Z</time>
      </trkpt>
      <trkpt lat="43.579268" lon="10.656094">
        <ele>62.979131</ele>
        <time>2026-05-06T20:30:08.701Z</time>
      </trkpt>
      <trkpt lat="43.579210" lon="10.655779">
        <ele>62.052491</ele>
        <time>2026-05-06T20:30:16.752Z</time>
      </trkpt>
      <trkpt lat="43.579195" lon="10.655143">
        <ele>61.527819</ele>
        <time>2026-05-06T20:30:33.723Z</time>
      </trkpt>
      <trkpt lat="43.579384" lon="10.654540">
        <ele>60.986094</ele>
        <time>2026-05-06T20:30:52.106Z</time>
      </trkpt>
      <trkpt lat="43.579549" lon="10.654171">
        <ele>60.628555</ele>
        <time>2026-05-06T20:31:03.643Z</time>
      </trkpt>
      <trkpt lat="43.579749" lon="10.654030">
        <ele>60.372951</ele>
        <time>2026-05-06T20:31:11.427Z</time>
      </trkpt>
      <trkpt lat="43.580121" lon="10.653702">
        <ele>59.274805</ele>
        <time>2026-05-06T20:31:25.906Z</time>
      </trkpt>
      <trkpt lat="43.581038" lon="10.652841">
        <ele>54.581586</ele>
        <time>2026-05-06T20:31:59.144Z</time>
      </trkpt>
      <trkpt lat="43.581326" lon="10.652516">
        <ele>53.007396</ele>
        <time>2026-05-06T20:32:09.607Z</time>
      </trkpt>
      <trkpt lat="43.581531" lon="10.652191">
        <ele>51.575519</ele>
        <time>2026-05-06T20:32:18.240Z</time>
      </trkpt>
      <trkpt lat="43.581623" lon="10.651777">
        <ele>50.062231</ele>
        <time>2026-05-06T20:32:26.838Z</time>
      </trkpt>
      <trkpt lat="43.581462" lon="10.651454">
        <ele>48.692089</ele>
        <time>2026-05-06T20:32:31.440Z</time>
      </trkpt>
      <trkpt lat="43.581144" lon="10.650697">
        <ele>45.634078</ele>
        <time>2026-05-06T20:32:41.977Z</time>
      </trkpt>
      <trkpt lat="43.580894" lon="10.649850">
        <ele>44.595819</ele>
        <time>2026-05-06T20:32:54.679Z</time>
      </trkpt>
      <trkpt lat="43.579913" lon="10.646257">
        <ele>54.903929</ele>
        <time>2026-05-06T20:35:16.533Z</time>
      </trkpt>
      <trkpt lat="43.579595" lon="10.645808">
        <ele>57.076986</ele>
        <time>2026-05-06T20:35:45.302Z</time>
      </trkpt>
      <trkpt lat="43.579590" lon="10.645801">
        <ele>57.111006</ele>
        <time>2026-05-06T20:35:45.772Z</time>
      </trkpt>
      <trkpt lat="43.579453" lon="10.645491">
        <ele>57.293071</ele>
        <time>2026-05-06T20:36:00.983Z</time>
      </trkpt>
      <trkpt lat="43.579314" lon="10.645071">
        <ele>57.018024</ele>
        <time>2026-05-06T20:36:16.251Z</time>
      </trkpt>
      <trkpt lat="43.579111" lon="10.644742">
        <ele>56.760601</ele>
        <time>2026-05-06T20:36:26.187Z</time>
      </trkpt>
      <trkpt lat="43.578955" lon="10.644569">
        <ele>56.596063</ele>
        <time>2026-05-06T20:36:30.675Z</time>
      </trkpt>
      <trkpt lat="43.578950" lon="10.644322">
        <ele>56.448877</ele>
        <time>2026-05-06T20:36:33.865Z</time>
      </trkpt>
      <trkpt lat="43.578878" lon="10.643788">
        <ele>56.125332</ele>
        <time>2026-05-06T20:36:40.142Z</time>
      </trkpt>
      <trkpt lat="43.578831" lon="10.643561">
        <ele>55.984702</ele>
        <time>2026-05-06T20:36:42.742Z</time>
      </trkpt>
      <trkpt lat="43.578717" lon="10.643200">
        <ele>53.980870</ele>
        <time>2026-05-06T20:36:46.978Z</time>
      </trkpt>
      <trkpt lat="43.578518" lon="10.642844">
        <ele>51.576535</ele>
        <time>2026-05-06T20:36:51.708Z</time>
      </trkpt>
      <trkpt lat="43.578310" lon="10.642599">
        <ele>49.558340</ele>
        <time>2026-05-06T20:36:55.690Z</time>
      </trkpt>
      <trkpt lat="43.578086" lon="10.642454">
        <ele>47.732240</ele>
        <time>2026-05-06T20:36:59.326Z</time>
      </trkpt>
      <trkpt lat="43.577014" lon="10.641947">
        <ele>41.107858</ele>
        <time>2026-05-06T20:37:16.670Z</time>
      </trkpt>
      <trkpt lat="43.576958" lon="10.641904">
        <ele>40.882112</ele>
        <time>2026-05-06T20:37:17.711Z</time>
      </trkpt>
      <trkpt lat="43.576774" lon="10.641761">
        <ele>40.138239</ele>
        <time>2026-05-06T20:37:21.203Z</time>
      </trkpt>
      <trkpt lat="43.576582" lon="10.641538">
        <ele>39.254279</ele>
        <time>2026-05-06T20:37:25.469Z</time>
      </trkpt>
      <trkpt lat="43.576388" lon="10.641193">
        <ele>38.139689</ele>
        <time>2026-05-06T20:37:31.037Z</time>
      </trkpt>
      <trkpt lat="43.576266" lon="10.640823">
        <ele>37.102199</ele>
        <time>2026-05-06T20:37:36.569Z</time>
      </trkpt>
      <trkpt lat="43.576227" lon="10.640587">
        <ele>36.484427</ele>
        <time>2026-05-06T20:37:40.152Z</time>
      </trkpt>
      <trkpt lat="43.576181" lon="10.639788">
        <ele>36.424633</ele>
        <time>2026-05-06T20:37:54.523Z</time>
      </trkpt>
      <trkpt lat="43.576176" lon="10.639677">
        <ele>36.434192</ele>
        <time>2026-05-06T20:37:56.710Z</time>
      </trkpt>
      <trkpt lat="43.576127" lon="10.638816">
        <ele>36.508423</ele>
        <time>2026-05-06T20:38:13.056Z</time>
      </trkpt>
      <trkpt lat="43.576026" lon="10.638353">
        <ele>36.549982</ele>
        <time>2026-05-06T20:38:21.894Z</time>
      </trkpt>
      <trkpt lat="43.575930" lon="10.638154">
        <ele>36.570532</ele>
        <time>2026-05-06T20:38:26.180Z</time>
      </trkpt>
      <trkpt lat="43.575789" lon="10.637968">
        <ele>36.545297</ele>
        <time>2026-05-06T20:38:30.839Z</time>
      </trkpt>
      <trkpt lat="43.575636" lon="10.637813">
        <ele>36.514274</ele>
        <time>2026-05-06T20:38:35.186Z</time>
      </trkpt>
      <trkpt lat="43.575430" lon="10.637683">
        <ele>36.477250</ele>
        <time>2026-05-06T20:38:40.245Z</time>
      </trkpt>
      <trkpt lat="43.575216" lon="10.637611">
        <ele>36.441245</ele>
        <time>2026-05-06T20:38:44.915Z</time>
      </trkpt>
      <trkpt lat="43.574891" lon="10.637553">
        <ele>36.387679</ele>
        <time>2026-05-06T20:38:51.611Z</time>
      </trkpt>
      <trkpt lat="43.573529" lon="10.637346">
        <ele>36.435200</ele>
        <time>2026-05-06T20:39:23.944Z</time>
      </trkpt>
      <trkpt lat="43.573504" lon="10.637335">
        <ele>36.440983</ele>
        <time>2026-05-06T20:39:24.655Z</time>
      </trkpt>
      <trkpt lat="43.573278" lon="10.637227">
        <ele>36.493689</ele>
        <time>2026-05-06T20:39:31.408Z</time>
      </trkpt>
      <trkpt lat="43.573146" lon="10.637119">
        <ele>36.527505</ele>
        <time>2026-05-06T20:39:35.728Z</time>
      </trkpt>
      <trkpt lat="43.572972" lon="10.636913">
        <ele>36.578024</ele>
        <time>2026-05-06T20:39:41.710Z</time>
      </trkpt>
      <trkpt lat="43.572850" lon="10.636681">
        <ele>36.623794</ele>
        <time>2026-05-06T20:39:46.824Z</time>
      </trkpt>
      <trkpt lat="43.572827" lon="10.636639">
        <ele>36.632200</ele>
        <time>2026-05-06T20:39:47.691Z</time>
      </trkpt>
      <trkpt lat="43.572701" lon="10.636189">
        <ele>36.602101</ele>
        <time>2026-05-06T20:39:55.480Z</time>
      </trkpt>
      <trkpt lat="43.572675" lon="10.635913">
        <ele>36.504550</ele>
        <time>2026-05-06T20:39:59.763Z</time>
      </trkpt>
      <trkpt lat="43.572685" lon="10.635766">
        <ele>36.452801</ele>
        <time>2026-05-06T20:40:01.942Z</time>
      </trkpt>
      <trkpt lat="43.572910" lon="10.634324">
        <ele>35.935803</ele>
        <time>2026-05-06T20:40:23.825Z</time>
      </trkpt>
      <trkpt lat="43.570726" lon="10.633726">
        <ele>36.277045</ele>
        <time>2026-05-06T20:41:18.847Z</time>
      </trkpt>
      <trkpt lat="43.570324" lon="10.633684">
        <ele>36.486239</ele>
        <time>2026-05-06T20:41:29.249Z</time>
      </trkpt>
      <trkpt lat="43.568283" lon="10.633634">
        <ele>37.822298</ele>
        <time>2026-05-06T20:42:22.937Z</time>
      </trkpt>
      <trkpt lat="43.567573" lon="10.633813">
        <ele>38.445148</ele>
        <time>2026-05-06T20:42:44.256Z</time>
      </trkpt>
      <trkpt lat="43.566647" lon="10.634042">
        <ele>39.185779</ele>
        <time>2026-05-06T20:43:12.893Z</time>
      </trkpt>
      <trkpt lat="43.566608" lon="10.633974">
        <ele>39.233312</ele>
        <time>2026-05-06T20:43:14.772Z</time>
      </trkpt>
      <trkpt lat="43.566514" lon="10.633918">
        <ele>39.310758</ele>
        <time>2026-05-06T20:43:17.858Z</time>
      </trkpt>
      <trkpt lat="43.565988" lon="10.633972">
        <ele>39.709742</ele>
        <time>2026-05-06T20:43:32.827Z</time>
      </trkpt>
      <trkpt lat="43.565792" lon="10.633942">
        <ele>39.858912</ele>
        <time>2026-05-06T20:43:38.105Z</time>
      </trkpt>
      <trkpt lat="43.565425" lon="10.633740">
        <ele>40.047667</ele>
        <time>2026-05-06T20:43:48.068Z</time>
      </trkpt>
      <trkpt lat="43.565191" lon="10.633475">
        <ele>40.061216</ele>
        <time>2026-05-06T20:43:55.275Z</time>
      </trkpt>
      <trkpt lat="43.564833" lon="10.633270">
        <ele>40.078566</ele>
        <time>2026-05-06T20:44:04.351Z</time>
      </trkpt>
      <trkpt lat="43.564405" lon="10.633225">
        <ele>40.097779</ele>
        <time>2026-05-06T20:44:14.535Z</time>
      </trkpt>
      <trkpt lat="43.564392" lon="10.633252">
        <ele>40.098830</ele>
        <time>2026-05-06T20:44:15.106Z</time>
      </trkpt>
      <trkpt lat="43.564068" lon="10.633213">
        <ele>40.113388</ele>
        <time>2026-05-06T20:44:27.540Z</time>
      </trkpt>
      <trkpt lat="43.563659" lon="10.633054">
        <ele>40.237888</ele>
        <time>2026-05-06T20:44:44.448Z</time>
      </trkpt>
      <trkpt lat="43.562567" lon="10.632699">
        <ele>40.762859</ele>
        <time>2026-05-06T20:45:31.389Z</time>
      </trkpt>
      <trkpt lat="43.562051" lon="10.632422">
        <ele>40.976736</ele>
        <time>2026-05-06T20:45:54.146Z</time>
      </trkpt>
      <trkpt lat="43.561469" lon="10.632237">
        <ele>41.042233</ele>
        <time>2026-05-06T20:46:17.849Z</time>
      </trkpt>
      <trkpt lat="43.560880" lon="10.631992">
        <ele>41.109697</ele>
        <time>2026-05-06T20:46:41.476Z</time>
      </trkpt>
      <trkpt lat="43.560685" lon="10.631960">
        <ele>41.131233</ele>
        <time>2026-05-06T20:46:48.907Z</time>
      </trkpt>
      <trkpt lat="43.560207" lon="10.632081">
        <ele>41.089844</ele>
        <time>2026-05-06T20:47:07.297Z</time>
      </trkpt>
      <trkpt lat="43.560159" lon="10.632086">
        <ele>41.074619</ele>
        <time>2026-05-06T20:47:09.111Z</time>
      </trkpt>
      <trkpt lat="43.559835" lon="10.632122">
        <ele>40.971813</ele>
        <time>2026-05-06T20:47:21.159Z</time>
      </trkpt>
      <trkpt lat="43.559562" lon="10.632464">
        <ele>40.855196</ele>
        <time>2026-05-06T20:47:34.526Z</time>
      </trkpt>
      <trkpt lat="43.559322" lon="10.632626">
        <ele>40.770694</ele>
        <time>2026-05-06T20:47:44.160Z</time>
      </trkpt>
      <trkpt lat="43.559135" lon="10.632664">
        <ele>40.710912</ele>
        <time>2026-05-06T20:47:51.029Z</time>
      </trkpt>
      <trkpt lat="43.558957" lon="10.632696">
        <ele>40.654138</ele>
        <time>2026-05-06T20:47:57.632Z</time>
      </trkpt>
      <trkpt lat="43.558460" lon="10.632626">
        <ele>40.814594</ele>
        <time>2026-05-06T20:48:16.473Z</time>
      </trkpt>
      <trkpt lat="43.558303" lon="10.632521">
        <ele>40.944113</ele>
        <time>2026-05-06T20:48:23.261Z</time>
      </trkpt>
      <trkpt lat="43.558127" lon="10.632527">
        <ele>41.074809</ele>
        <time>2026-05-06T20:48:30.222Z</time>
      </trkpt>
      <trkpt lat="43.557667" lon="10.632664">
        <ele>41.424159</ele>
        <time>2026-05-06T20:48:49.992Z</time>
      </trkpt>
      <trkpt lat="43.556785" lon="10.633216">
        <ele>42.667049</ele>
        <time>2026-05-06T20:49:35.692Z</time>
      </trkpt>
      <trkpt lat="43.556465" lon="10.633585">
        <ele>43.725481</ele>
        <time>2026-05-06T20:49:56.800Z</time>
      </trkpt>
      <trkpt lat="43.556331" lon="10.633707">
        <ele>44.132940</ele>
        <time>2026-05-06T20:50:05.249Z</time>
      </trkpt>
      <trkpt lat="43.555718" lon="10.634066">
        <ele>45.823098</ele>
        <time>2026-05-06T20:50:40.731Z</time>
      </trkpt>
      <trkpt lat="43.555378" lon="10.634314">
        <ele>47.258652</ele>
        <time>2026-05-06T20:51:03.851Z</time>
      </trkpt>
      <trkpt lat="43.555485" lon="10.634571">
        <ele>48.618155</ele>
        <time>2026-05-06T20:51:14.475Z</time>
      </trkpt>
      <trkpt lat="43.555213" lon="10.634644">
        <ele>50.371966</ele>
        <time>2026-05-06T20:51:33.198Z</time>
      </trkpt>
      <trkpt lat="43.554726" lon="10.634609">
        <ele>53.458477</ele>
        <time>2026-05-06T20:52:09.682Z</time>
      </trkpt>
      <trkpt lat="43.554450" lon="10.634608">
        <ele>55.205350</ele>
        <time>2026-05-06T20:52:32.147Z</time>
      </trkpt>
      <trkpt lat="43.554220" lon="10.634655">
        <ele>56.676950</ele>
        <time>2026-05-06T20:52:52.534Z</time>
      </trkpt>
      <trkpt lat="43.554173" lon="10.634702">
        <ele>57.044329</ele>
        <time>2026-05-06T20:52:57.846Z</time>
      </trkpt>
      <trkpt lat="43.553622" lon="10.634638">
        <ele>62.192959</ele>
        <time>2026-05-06T20:53:50.500Z</time>
      </trkpt>
      <trkpt lat="43.553035" lon="10.634954">
        <ele>68.645223</ele>
        <time>2026-05-06T20:54:54.678Z</time>
      </trkpt>
      <trkpt lat="43.552584" lon="10.635133">
        <ele>73.450807</ele>
        <time>2026-05-06T20:55:44.723Z</time>
      </trkpt>
      <trkpt lat="43.552143" lon="10.635370">
        <ele>77.740375</ele>
        <time>2026-05-06T20:56:34.840Z</time>
      </trkpt>
      <trkpt lat="43.551601" lon="10.635965">
        <ele>82.861450</ele>
        <time>2026-05-06T20:57:38.990Z</time>
      </trkpt>
      <trkpt lat="43.551570" lon="10.636099">
        <ele>83.615207</ele>
        <time>2026-05-06T20:57:47.326Z</time>
      </trkpt>
      <trkpt lat="43.551382" lon="10.636537">
        <ele>86.343045</ele>
        <time>2026-05-06T20:58:15.485Z</time>
      </trkpt>
      <trkpt lat="43.551014" lon="10.637144">
        <ele>89.943611</ele>
        <time>2026-05-06T20:58:51.660Z</time>
      </trkpt>
      <trkpt lat="43.550128" lon="10.637190">
        <ele>92.264235</ele>
        <time>2026-05-06T20:59:40.658Z</time>
      </trkpt>
      <trkpt lat="43.549520" lon="10.637384">
        <ele>93.897592</ele>
        <time>2026-05-06T21:00:11.917Z</time>
      </trkpt>
      <trkpt lat="43.549210" lon="10.637445">
        <ele>94.902271</ele>
        <time>2026-05-06T21:00:24.957Z</time>
      </trkpt>
      <trkpt lat="43.549011" lon="10.637448">
        <ele>95.654543</ele>
        <time>2026-05-06T21:00:33.666Z</time>
      </trkpt>
      <trkpt lat="43.548466" lon="10.637794">
        <ele>97.922294</ele>
        <time>2026-05-06T21:01:04.638Z</time>
      </trkpt>
      <trkpt lat="43.548317" lon="10.638004">
        <ele>98.727431</ele>
        <time>2026-05-06T21:01:17.284Z</time>
      </trkpt>
      <trkpt lat="43.548282" lon="10.638249">
        <ele>99.411583</ele>
        <time>2026-05-06T21:01:28.906Z</time>
      </trkpt>
      <trkpt lat="43.548255" lon="10.638556">
        <ele>100.258855</ele>
        <time>2026-05-06T21:01:44.655Z</time>
      </trkpt>
      <trkpt lat="43.548257" lon="10.638912">
        <ele>101.392667</ele>
        <time>2026-05-06T21:02:05.378Z</time>
      </trkpt>
      <trkpt lat="43.548383" lon="10.639285">
        <ele>103.845513</ele>
        <time>2026-05-06T21:02:32.597Z</time>
      </trkpt>
      <trkpt lat="43.548392" lon="10.639572">
        <ele>105.557755</ele>
        <time>2026-05-06T21:02:53.736Z</time>
      </trkpt>
      <trkpt lat="43.548357" lon="10.639781">
        <ele>106.836302</ele>
        <time>2026-05-06T21:03:10.064Z</time>
      </trkpt>
      <trkpt lat="43.548201" lon="10.639950">
        <ele>108.467398</ele>
        <time>2026-05-06T21:03:30.737Z</time>
      </trkpt>
      <trkpt lat="43.547938" lon="10.639876">
        <ele>110.674728</ele>
        <time>2026-05-06T21:03:57.758Z</time>
      </trkpt>
      <trkpt lat="43.547797" lon="10.639905">
        <ele>111.847072</ele>
        <time>2026-05-06T21:04:11.339Z</time>
      </trkpt>
      <trkpt lat="43.547554" lon="10.640095">
        <ele>114.144005</ele>
        <time>2026-05-06T21:04:35.703Z</time>
      </trkpt>
      <trkpt lat="43.546817" lon="10.640487">
        <ele>115.799162</ele>
        <time>2026-05-06T21:05:27.315Z</time>
      </trkpt>
      <trkpt lat="43.546787" lon="10.640511">
        <ele>115.793657</ele>
        <time>2026-05-06T21:05:28.861Z</time>
      </trkpt>
      <trkpt lat="43.546347" lon="10.640864">
        <ele>115.712865</ele>
        <time>2026-05-06T21:05:47.326Z</time>
      </trkpt>
      <trkpt lat="43.545947" lon="10.641217">
        <ele>115.637494</ele>
        <time>2026-05-06T21:06:01.744Z</time>
      </trkpt>
      <trkpt lat="43.545738" lon="10.641402">
        <ele>115.301063</ele>
        <time>2026-05-06T21:06:08.785Z</time>
      </trkpt>
      <trkpt lat="43.545483" lon="10.641464">
        <ele>113.574325</ele>
        <time>2026-05-06T21:06:16.004Z</time>
      </trkpt>
      <trkpt lat="43.545179" lon="10.641481">
        <ele>111.545358</ele>
        <time>2026-05-06T21:06:24.345Z</time>
      </trkpt>
      <trkpt lat="43.544461" lon="10.641692">
        <ele>106.649768</ele>
        <time>2026-05-06T21:06:44.960Z</time>
      </trkpt>
      <trkpt lat="43.544171" lon="10.641667">
        <ele>104.712057</ele>
        <time>2026-05-06T21:06:52.714Z</time>
      </trkpt>
      <trkpt lat="43.544003" lon="10.641901">
        <ele>102.735094</ele>
        <time>2026-05-06T21:06:59.141Z</time>
      </trkpt>
      <trkpt lat="43.543768" lon="10.642376">
        <ele>97.774051</ele>
        <time>2026-05-06T21:07:09.865Z</time>
      </trkpt>
      <trkpt lat="43.543642" lon="10.642685">
        <ele>94.715626</ele>
        <time>2026-05-06T21:07:16.536Z</time>
      </trkpt>
      <trkpt lat="43.543642" lon="10.642685">
        <ele>94.715626</ele>
        <time>2026-05-06T21:07:16.698Z</time>
      </trkpt>
      <trkpt lat="43.543642" lon="10.642685">
        <ele>94.715626</ele>
        <time>2026-05-06T21:07:16.698Z</time>
      </trkpt>
      <trkpt lat="43.542969" lon="10.641889">
        <ele>84.165598</ele>
        <time>2026-05-06T21:07:54.878Z</time>
      </trkpt>
      <trkpt lat="43.542632" lon="10.641491">
        <ele>79.073753</ele>
        <time>2026-05-06T21:08:14.031Z</time>
      </trkpt>
      <trkpt lat="43.542296" lon="10.641093">
        <ele>74.101321</ele>
        <time>2026-05-06T21:08:33.116Z</time>
      </trkpt>
      <trkpt lat="43.542422" lon="10.640831">
        <ele>71.542338</ele>
        <time>2026-05-06T21:08:37.500Z</time>
      </trkpt>
      <trkpt lat="43.542428" lon="10.640819">
        <ele>71.423692</ele>
        <time>2026-05-06T21:08:37.750Z</time>
      </trkpt>
      <trkpt lat="43.542435" lon="10.640570">
        <ele>69.395617</ele>
        <time>2026-05-06T21:08:41.251Z</time>
      </trkpt>
      <trkpt lat="43.542436" lon="10.640551">
        <ele>69.240574</ele>
        <time>2026-05-06T21:08:41.516Z</time>
      </trkpt>
      <trkpt lat="43.542369" lon="10.640369">
        <ele>67.579239</ele>
        <time>2026-05-06T21:08:44.403Z</time>
      </trkpt>
      <trkpt lat="43.542143" lon="10.639902">
        <ele>63.009208</ele>
        <time>2026-05-06T21:08:52.474Z</time>
      </trkpt>
      <trkpt lat="43.542047" lon="10.639718">
        <ele>61.737947</ele>
        <time>2026-05-06T21:08:55.876Z</time>
      </trkpt>
      <trkpt lat="43.542047" lon="10.639718">
        <ele>61.737947</ele>
        <time>2026-05-06T21:08:55.917Z</time>
      </trkpt>
      <trkpt lat="43.542047" lon="10.639718">
        <ele>61.737947</ele>
        <time>2026-05-06T21:08:55.917Z</time>
      </trkpt>
      <trkpt lat="43.541394" lon="10.639261">
        <ele>59.096050</ele>
        <time>2026-05-06T21:09:27.278Z</time>
      </trkpt>
      <trkpt lat="43.541394" lon="10.639261">
        <ele>59.096050</ele>
        <time>2026-05-06T21:09:27.297Z</time>
      </trkpt>
      <trkpt lat="43.540907" lon="10.640157">
        <ele>56.167048</ele>
        <time>2026-05-06T21:10:02.022Z</time>
      </trkpt>
      <trkpt lat="43.540419" lon="10.641053">
        <ele>56.820881</ele>
        <time>2026-05-06T21:10:36.767Z</time>
      </trkpt>
      <trkpt lat="43.539932" lon="10.641949">
        <ele>58.488940</ele>
        <time>2026-05-06T21:11:11.494Z</time>
      </trkpt>
      <trkpt lat="43.539445" lon="10.642845">
        <ele>60.213264</ele>
        <time>2026-05-06T21:11:46.244Z</time>
      </trkpt>
      <trkpt lat="43.538958" lon="10.643741">
        <ele>61.981046</ele>
        <time>2026-05-06T21:12:20.972Z</time>
      </trkpt>
      <trkpt lat="43.538470" lon="10.644637">
        <ele>62.993772</ele>
        <time>2026-05-06T21:12:55.717Z</time>
      </trkpt>
      <trkpt lat="43.537983" lon="10.645533">
        <ele>62.596630</ele>
        <time>2026-05-06T21:13:30.440Z</time>
      </trkpt>
      <trkpt lat="43.537496" lon="10.646429">
        <ele>62.208005</ele>
        <time>2026-05-06T21:14:05.160Z</time>
      </trkpt>
      <trkpt lat="43.536749" lon="10.646502">
        <ele>61.900388</ele>
        <time>2026-05-06T21:14:37.187Z</time>
      </trkpt>
      <trkpt lat="43.536002" lon="10.646575">
        <ele>61.592771</ele>
        <time>2026-05-06T21:15:09.215Z</time>
      </trkpt>
      <trkpt lat="43.535256" lon="10.646648">
        <ele>60.893397</ele>
        <time>2026-05-06T21:15:41.202Z</time>
      </trkpt>
      <trkpt lat="43.534509" lon="10.646721">
        <ele>60.057196</ele>
        <time>2026-05-06T21:16:13.231Z</time>
      </trkpt>
      <trkpt lat="43.534288" lon="10.646804">
        <ele>59.801441</ele>
        <time>2026-05-06T21:16:18.222Z</time>
      </trkpt>
      <trkpt lat="43.533598" lon="10.647009">
        <ele>59.649777</ele>
        <time>2026-05-06T21:16:34.912Z</time>
      </trkpt>
      <trkpt lat="43.533169" lon="10.647102">
        <ele>59.792046</ele>
        <time>2026-05-06T21:16:45.817Z</time>
      </trkpt>
      <trkpt lat="43.532468" lon="10.647160">
        <ele>60.022111</ele>
        <time>2026-05-06T21:17:05.335Z</time>
      </trkpt>
      <trkpt lat="43.532233" lon="10.647212">
        <ele>60.120913</ele>
        <time>2026-05-06T21:17:12.419Z</time>
      </trkpt>
      <trkpt lat="43.531874" lon="10.647372">
        <ele>60.718253</ele>
        <time>2026-05-06T21:17:23.956Z</time>
      </trkpt>
      <trkpt lat="43.531637" lon="10.647580">
        <ele>61.163014</ele>
        <time>2026-05-06T21:17:32.924Z</time>
      </trkpt>
      <trkpt lat="43.531340" lon="10.648098">
        <ele>61.921091</ele>
        <time>2026-05-06T21:17:49.162Z</time>
      </trkpt>
      <trkpt lat="43.531146" lon="10.648326">
        <ele>62.324630</ele>
        <time>2026-05-06T21:17:58.430Z</time>
      </trkpt>
      <trkpt lat="43.530597" lon="10.648805">
        <ele>63.225703</ele>
        <time>2026-05-06T21:18:23.302Z</time>
      </trkpt>
      <trkpt lat="43.530352" lon="10.648911">
        <ele>63.506080</ele>
        <time>2026-05-06T21:18:33.044Z</time>
      </trkpt>
      <trkpt lat="43.530261" lon="10.648915">
        <ele>63.605497</ele>
        <time>2026-05-06T21:18:36.318Z</time>
      </trkpt>
      <trkpt lat="43.530146" lon="10.648889">
        <ele>63.732746</ele>
        <time>2026-05-06T21:18:40.388Z</time>
      </trkpt>
      <trkpt lat="43.529711" lon="10.648638">
        <ele>64.247628</ele>
        <time>2026-05-06T21:18:55.328Z</time>
      </trkpt>
      <trkpt lat="43.529489" lon="10.648452">
        <ele>64.531257</ele>
        <time>2026-05-06T21:19:02.515Z</time>
      </trkpt>
      <trkpt lat="43.528771" lon="10.647717">
        <ele>64.286254</ele>
        <time>2026-05-06T21:19:22.541Z</time>
      </trkpt>
      <trkpt lat="43.528275" lon="10.647409">
        <ele>63.673492</ele>
        <time>2026-05-06T21:19:33.756Z</time>
      </trkpt>
      <trkpt lat="43.528050" lon="10.647353">
        <ele>63.415935</ele>
        <time>2026-05-06T21:19:38.446Z</time>
      </trkpt>
      <trkpt lat="43.527613" lon="10.647329">
        <ele>62.923264</ele>
        <time>2026-05-06T21:19:47.358Z</time>
      </trkpt>
      <trkpt lat="43.527304" lon="10.647362">
        <ele>63.000822</ele>
        <time>2026-05-06T21:19:53.686Z</time>
      </trkpt>
      <trkpt lat="43.526915" lon="10.647463">
        <ele>63.176407</ele>
        <time>2026-05-06T21:20:02.031Z</time>
      </trkpt>
      <trkpt lat="43.526658" lon="10.647570">
        <ele>63.295489</ele>
        <time>2026-05-06T21:20:08.302Z</time>
      </trkpt>
      <trkpt lat="43.526458" lon="10.647720">
        <ele>63.396475</ele>
        <time>2026-05-06T21:20:14.800Z</time>
      </trkpt>
      <trkpt lat="43.525977" lon="10.648180">
        <ele>63.656114</ele>
        <time>2026-05-06T21:20:36.946Z</time>
      </trkpt>
      <trkpt lat="43.526128" lon="10.649105">
        <ele>65.139420</ele>
        <time>2026-05-06T21:21:16.010Z</time>
      </trkpt>
      <trkpt lat="43.526103" lon="10.649213">
        <ele>65.327738</ele>
        <time>2026-05-06T21:21:20.414Z</time>
      </trkpt>
      <trkpt lat="43.526060" lon="10.649266">
        <ele>65.459855</ele>
        <time>2026-05-06T21:21:23.577Z</time>
      </trkpt>
      <trkpt lat="43.525952" lon="10.649257">
        <ele>65.707729</ele>
        <time>2026-05-06T21:21:29.291Z</time>
      </trkpt>
      <trkpt lat="43.525609" lon="10.648952">
        <ele>66.642691</ele>
        <time>2026-05-06T21:21:50.525Z</time>
      </trkpt>
      <trkpt lat="43.525198" lon="10.648485">
        <ele>67.899948</ele>
        <time>2026-05-06T21:22:15.470Z</time>
      </trkpt>
      <trkpt lat="43.525092" lon="10.648476">
        <ele>68.285121</ele>
        <time>2026-05-06T21:22:20.178Z</time>
      </trkpt>
      <trkpt lat="43.525011" lon="10.648513">
        <ele>68.594588</ele>
        <time>2026-05-06T21:22:23.970Z</time>
      </trkpt>
      <trkpt lat="43.524925" lon="10.648639">
        <ele>69.049645</ele>
        <time>2026-05-06T21:22:29.709Z</time>
      </trkpt>
      <trkpt lat="43.524913" lon="10.648810">
        <ele>69.501430</ele>
        <time>2026-05-06T21:22:35.678Z</time>
      </trkpt>
      <trkpt lat="43.524942" lon="10.648946">
        <ele>69.874218</ele>
        <time>2026-05-06T21:22:40.816Z</time>
      </trkpt>
      <trkpt lat="43.525300" lon="10.649897">
        <ele>72.692052</ele>
        <time>2026-05-06T21:23:28.110Z</time>
      </trkpt>
      <trkpt lat="43.525372" lon="10.650060">
        <ele>73.193973</ele>
        <time>2026-05-06T21:23:38.158Z</time>
      </trkpt>
      <trkpt lat="43.525460" lon="10.650176">
        <ele>73.635468</ele>
        <time>2026-05-06T21:23:47.194Z</time>
      </trkpt>
      <trkpt lat="43.525837" lon="10.650332">
        <ele>75.377193</ele>
        <time>2026-05-06T21:24:16.751Z</time>
      </trkpt>
      <trkpt lat="43.525968" lon="10.650455">
        <ele>76.195706</ele>
        <time>2026-05-06T21:24:28.475Z</time>
      </trkpt>
      <trkpt lat="43.526067" lon="10.650598">
        <ele>76.936134</ele>
        <time>2026-05-06T21:24:38.937Z</time>
      </trkpt>
      <trkpt lat="43.526177" lon="10.650940">
        <ele>78.337239</ele>
        <time>2026-05-06T21:24:58.220Z</time>
      </trkpt>
      <trkpt lat="43.526466" lon="10.651330">
        <ele>80.425558</ele>
        <time>2026-05-06T21:25:25.285Z</time>
      </trkpt>
      <trkpt lat="43.526552" lon="10.651497">
        <ele>81.192637</ele>
        <time>2026-05-06T21:25:34.837Z</time>
      </trkpt>
      <trkpt lat="43.526644" lon="10.651804">
        <ele>82.436632</ele>
        <time>2026-05-06T21:25:50.415Z</time>
      </trkpt>
      <trkpt lat="43.526706" lon="10.652293">
        <ele>84.470408</ele>
        <time>2026-05-06T21:26:14.079Z</time>
      </trkpt>
      <trkpt lat="43.526849" lon="10.652694">
        <ele>86.571659</ele>
        <time>2026-05-06T21:26:36.732Z</time>
      </trkpt>
      <trkpt lat="43.526969" lon="10.652865">
        <ele>87.690642</ele>
        <time>2026-05-06T21:26:49.486Z</time>
      </trkpt>
      <trkpt lat="43.527286" lon="10.653129">
        <ele>90.092142</ele>
        <time>2026-05-06T21:27:18.175Z</time>
      </trkpt>
      <trkpt lat="43.527484" lon="10.653180">
        <ele>91.398401</ele>
        <time>2026-05-06T21:27:34.472Z</time>
      </trkpt>
      <trkpt lat="43.528038" lon="10.653130">
        <ele>94.998856</ele>
        <time>2026-05-06T21:28:21.189Z</time>
      </trkpt>
      <trkpt lat="43.528263" lon="10.653197">
        <ele>96.699860</ele>
        <time>2026-05-06T21:28:41.002Z</time>
      </trkpt>
      <trkpt lat="43.528694" lon="10.653595">
        <ele>100.639947</ele>
        <time>2026-05-06T21:29:25.288Z</time>
      </trkpt>
      <trkpt lat="43.529058" lon="10.654003">
        <ele>104.202961</ele>
        <time>2026-05-06T21:30:03.978Z</time>
      </trkpt>
      <trkpt lat="43.529514" lon="10.654833">
        <ele>109.545263</ele>
        <time>2026-05-06T21:31:07.148Z</time>
      </trkpt>
      <trkpt lat="43.529579" lon="10.655011">
        <ele>110.210887</ele>
        <time>2026-05-06T21:31:19.507Z</time>
      </trkpt>
      <trkpt lat="43.529595" lon="10.655408">
        <ele>111.538820</ele>
        <time>2026-05-06T21:31:43.785Z</time>
      </trkpt>
      <trkpt lat="43.529641" lon="10.655785">
        <ele>112.815616</ele>
        <time>2026-05-06T21:32:05.890Z</time>
      </trkpt>
      <trkpt lat="43.529682" lon="10.655889">
        <ele>113.210978</ele>
        <time>2026-05-06T21:32:12.127Z</time>
      </trkpt>
      <trkpt lat="43.529874" lon="10.656389">
        <ele>115.100612</ele>
        <time>2026-05-06T21:32:38.672Z</time>
      </trkpt>
      <trkpt lat="43.529916" lon="10.656937">
        <ele>116.940991</ele>
        <time>2026-05-06T21:32:58.863Z</time>
      </trkpt>
      <trkpt lat="43.529958" lon="10.657184">
        <ele>116.425052</ele>
        <time>2026-05-06T21:33:05.870Z</time>
      </trkpt>
      <trkpt lat="43.529602" lon="10.657035">
        <ele>113.991839</ele>
        <time>2026-05-06T21:33:17.827Z</time>
      </trkpt>
      <trkpt lat="43.529228" lon="10.656680">
        <ele>111.022465</ele>
        <time>2026-05-06T21:33:30.647Z</time>
      </trkpt>
      <trkpt lat="43.529028" lon="10.656619">
        <ele>109.682789</ele>
        <time>2026-05-06T21:33:36.105Z</time>
      </trkpt>
      <trkpt lat="43.528173" lon="10.657409">
        <ele>100.489531</ele>
        <time>2026-05-06T21:34:02.076Z</time>
      </trkpt>
      <trkpt lat="43.527990" lon="10.657611">
        <ele>97.452117</ele>
        <time>2026-05-06T21:34:07.783Z</time>
      </trkpt>
      <trkpt lat="43.527868" lon="10.657947">
        <ele>93.921438</ele>
        <time>2026-05-06T21:34:14.388Z</time>
      </trkpt>
      <trkpt lat="43.527679" lon="10.658253">
        <ele>90.144579</ele>
        <time>2026-05-06T21:34:21.478Z</time>
      </trkpt>
      <trkpt lat="43.527471" lon="10.658485">
        <ele>86.678045</ele>
        <time>2026-05-06T21:34:27.997Z</time>
      </trkpt>
      <trkpt lat="43.527178" lon="10.658653">
        <ele>82.566080</ele>
        <time>2026-05-06T21:34:35.850Z</time>
      </trkpt>
      <trkpt lat="43.527092" lon="10.658796">
        <ele>81.880611</ele>
        <time>2026-05-06T21:34:39.231Z</time>
      </trkpt>
      <trkpt lat="43.527110" lon="10.658984">
        <ele>81.516537</ele>
        <time>2026-05-06T21:34:42.722Z</time>
      </trkpt>
      <trkpt lat="43.527288" lon="10.659369">
        <ele>80.639888</ele>
        <time>2026-05-06T21:34:51.458Z</time>
      </trkpt>
      <trkpt lat="43.527263" lon="10.659467">
        <ele>80.440433</ele>
        <time>2026-05-06T21:34:53.549Z</time>
      </trkpt>
      <trkpt lat="43.526805" lon="10.659813">
        <ele>79.057657</ele>
        <time>2026-05-06T21:35:09.676Z</time>
      </trkpt>
      <trkpt lat="43.526691" lon="10.659838">
        <ele>78.751999</ele>
        <time>2026-05-06T21:35:14.764Z</time>
      </trkpt>
      <trkpt lat="43.526490" lon="10.659704">
        <ele>78.160843</ele>
        <time>2026-05-06T21:35:27.330Z</time>
      </trkpt>
      <trkpt lat="43.526258" lon="10.659645">
        <ele>77.536161</ele>
        <time>2026-05-06T21:35:44.252Z</time>
      </trkpt>
      <trkpt lat="43.525939" lon="10.659739">
        <ele>80.214270</ele>
        <time>2026-05-06T21:36:12.886Z</time>
      </trkpt>
      <trkpt lat="43.524805" lon="10.660163">
        <ele>92.455725</ele>
        <time>2026-05-06T21:38:26.312Z</time>
      </trkpt>
      <trkpt lat="43.523355" lon="10.660795">
        <ele>104.735517</ele>
        <time>2026-05-06T21:40:54.389Z</time>
      </trkpt>
      <trkpt lat="43.523287" lon="10.660909">
        <ele>105.524113</ele>
        <time>2026-05-06T21:41:01.141Z</time>
      </trkpt>
      <trkpt lat="43.523343" lon="10.661901">
        <ele>109.657604</ele>
        <time>2026-05-06T21:41:41.724Z</time>
      </trkpt>
      <trkpt lat="43.523425" lon="10.662294">
        <ele>110.071264</ele>
        <time>2026-05-06T21:41:55.299Z</time>
      </trkpt>
      <trkpt lat="43.523655" lon="10.663145">
        <ele>110.989923</ele>
        <time>2026-05-06T21:42:22.835Z</time>
      </trkpt>
      <trkpt lat="43.523695" lon="10.663403">
        <ele>111.256794</ele>
        <time>2026-05-06T21:42:31.028Z</time>
      </trkpt>
      <trkpt lat="43.523627" lon="10.663624">
        <ele>111.499634</ele>
        <time>2026-05-06T21:42:38.968Z</time>
      </trkpt>
      <trkpt lat="43.523555" lon="10.663754">
        <ele>111.665104</ele>
        <time>2026-05-06T21:42:44.360Z</time>
      </trkpt>
      <trkpt lat="43.523495" lon="10.663994">
        <ele>111.949848</ele>
        <time>2026-05-06T21:42:52.758Z</time>
      </trkpt>
      <trkpt lat="43.523373" lon="10.664316">
        <ele>112.646471</ele>
        <time>2026-05-06T21:43:04.212Z</time>
      </trkpt>
      <trkpt lat="43.523360" lon="10.664492">
        <ele>112.985687</ele>
        <time>2026-05-06T21:43:09.779Z</time>
      </trkpt>
      <trkpt lat="43.523397" lon="10.664667">
        <ele>113.335212</ele>
        <time>2026-05-06T21:43:15.684Z</time>
      </trkpt>
      <trkpt lat="43.523525" lon="10.664996">
        <ele>114.051122</ele>
        <time>2026-05-06T21:43:28.558Z</time>
      </trkpt>
      <trkpt lat="43.523499" lon="10.665050">
        <ele>114.175412</ele>
        <time>2026-05-06T21:43:30.669Z</time>
      </trkpt>
      <trkpt lat="43.523430" lon="10.665670">
        <ele>115.378143</ele>
        <time>2026-05-06T21:43:55.970Z</time>
      </trkpt>
      <trkpt lat="43.523461" lon="10.666094">
        <ele>116.195259</ele>
        <time>2026-05-06T21:44:16.440Z</time>
      </trkpt>
      <trkpt lat="43.523612" lon="10.666657">
        <ele>118.238814</ele>
        <time>2026-05-06T21:44:45.768Z</time>
      </trkpt>
      <trkpt lat="43.523636" lon="10.666840">
        <ele>119.050564</ele>
        <time>2026-05-06T21:44:54.801Z</time>
      </trkpt>
      <trkpt lat="43.523610" lon="10.666947">
        <ele>119.543143</ele>
        <time>2026-05-06T21:45:00.420Z</time>
      </trkpt>
      <trkpt lat="43.523539" lon="10.667086">
        <ele>120.285305</ele>
        <time>2026-05-06T21:45:08.981Z</time>
      </trkpt>
      <trkpt lat="43.523422" lon="10.667210">
        <ele>121.173582</ele>
        <time>2026-05-06T21:45:19.380Z</time>
      </trkpt>
      <trkpt lat="43.522866" lon="10.667596">
        <ele>124.920803</ele>
        <time>2026-05-06T21:46:05.427Z</time>
      </trkpt>
      <trkpt lat="43.522591" lon="10.667993">
        <ele>127.317380</ele>
        <time>2026-05-06T21:46:37.486Z</time>
      </trkpt>
      <trkpt lat="43.522566" lon="10.668148">
        <ele>128.324763</ele>
        <time>2026-05-06T21:46:47.080Z</time>
      </trkpt>
      <trkpt lat="43.522601" lon="10.668444">
        <ele>130.401664</ele>
        <time>2026-05-06T21:47:06.141Z</time>
      </trkpt>
      <trkpt lat="43.522593" lon="10.668631">
        <ele>131.698907</ele>
        <time>2026-05-06T21:47:18.978Z</time>
      </trkpt>
      <trkpt lat="43.522531" lon="10.668798">
        <ele>132.998171</ele>
        <time>2026-05-06T21:47:32.222Z</time>
      </trkpt>
      <trkpt lat="43.521945" lon="10.669694">
        <ele>141.354168</ele>
        <time>2026-05-06T21:49:02.902Z</time>
      </trkpt>
      <trkpt lat="43.521104" lon="10.669897">
        <ele>147.577750</ele>
        <time>2026-05-06T21:50:25.287Z</time>
      </trkpt>
      <trkpt lat="43.520961" lon="10.669959">
        <ele>148.440199</ele>
        <time>2026-05-06T21:50:37.713Z</time>
      </trkpt>
      <trkpt lat="43.520959" lon="10.670171">
        <ele>149.324732</ele>
        <time>2026-05-06T21:50:47.254Z</time>
      </trkpt>
      <trkpt lat="43.520863" lon="10.670667">
        <ele>151.466478</ele>
        <time>2026-05-06T21:51:07.315Z</time>
      </trkpt>
      <trkpt lat="43.520734" lon="10.671039">
        <ele>153.186796</ele>
        <time>2026-05-06T21:51:21.721Z</time>
      </trkpt>
      <trkpt lat="43.520544" lon="10.671333">
        <ele>154.829800</ele>
        <time>2026-05-06T21:51:32.082Z</time>
      </trkpt>
      <trkpt lat="43.520243" lon="10.671658">
        <ele>154.773866</ele>
        <time>2026-05-06T21:51:41.420Z</time>
      </trkpt>
      <trkpt lat="43.519960" lon="10.671989">
        <ele>154.534763</ele>
        <time>2026-05-06T21:51:49.161Z</time>
      </trkpt>
      <trkpt lat="43.519857" lon="10.672247">
        <ele>154.397153</ele>
        <time>2026-05-06T21:51:53.490Z</time>
      </trkpt>
      <trkpt lat="43.519807" lon="10.672553">
        <ele>154.250593</ele>
        <time>2026-05-06T21:51:58.548Z</time>
      </trkpt>
      <trkpt lat="43.519757" lon="10.673506">
        <ele>153.554733</ele>
        <time>2026-05-06T21:52:11.599Z</time>
      </trkpt>
      <trkpt lat="43.519817" lon="10.673789">
        <ele>152.510666</ele>
        <time>2026-05-06T21:52:15.210Z</time>
      </trkpt>
      <trkpt lat="43.519905" lon="10.673962">
        <ele>151.762372</ele>
        <time>2026-05-06T21:52:17.924Z</time>
      </trkpt>
      <trkpt lat="43.519996" lon="10.674076">
        <ele>151.162017</ele>
        <time>2026-05-06T21:52:20.271Z</time>
      </trkpt>
      <trkpt lat="43.519798" lon="10.674039">
        <ele>150.186294</ele>
        <time>2026-05-06T21:52:26.595Z</time>
      </trkpt>
      <trkpt lat="43.519587" lon="10.673931">
        <ele>149.087241</ele>
        <time>2026-05-06T21:52:33.452Z</time>
      </trkpt>
      <trkpt lat="43.519489" lon="10.673942">
        <ele>148.607099</ele>
        <time>2026-05-06T21:52:36.326Z</time>
      </trkpt>
      <trkpt lat="43.519444" lon="10.674050">
        <ele>148.166027</ele>
        <time>2026-05-06T21:52:38.981Z</time>
      </trkpt>
      <trkpt lat="43.519503" lon="10.674323">
        <ele>147.157298</ele>
        <time>2026-05-06T21:52:44.732Z</time>
      </trkpt>
      <trkpt lat="43.519631" lon="10.674619">
        <ele>145.936922</ele>
        <time>2026-05-06T21:52:51.416Z</time>
      </trkpt>
      <trkpt lat="43.519695" lon="10.674768">
        <ele>145.323691</ele>
        <time>2026-05-06T21:52:54.646Z</time>
      </trkpt>
      <trkpt lat="43.519697" lon="10.674892">
        <ele>144.741651</ele>
        <time>2026-05-06T21:52:56.967Z</time>
      </trkpt>
      <trkpt lat="43.519649" lon="10.675009">
        <ele>143.875564</ele>
        <time>2026-05-06T21:52:59.517Z</time>
      </trkpt>
      <trkpt lat="43.519330" lon="10.675079">
        <ele>141.005616</ele>
        <time>2026-05-06T21:53:07.972Z</time>
      </trkpt>
      <trkpt lat="43.519086" lon="10.675418">
        <ele>137.928234</ele>
        <time>2026-05-06T21:53:17.075Z</time>
      </trkpt>
      <trkpt lat="43.518908" lon="10.675537">
        <ele>136.170671</ele>
        <time>2026-05-06T21:53:22.202Z</time>
      </trkpt>
      <trkpt lat="43.518645" lon="10.675712">
        <ele>133.576139</ele>
        <time>2026-05-06T21:53:29.744Z</time>
      </trkpt>
      <trkpt lat="43.518470" lon="10.675739">
        <ele>132.011576</ele>
        <time>2026-05-06T21:53:34.344Z</time>
      </trkpt>
      <trkpt lat="43.517740" lon="10.675536">
        <ele>125.697468</ele>
        <time>2026-05-06T21:53:54.221Z</time>
      </trkpt>
      <trkpt lat="43.517670" lon="10.675471">
        <ele>125.009238</ele>
        <time>2026-05-06T21:53:56.463Z</time>
      </trkpt>
      <trkpt lat="43.517610" lon="10.675267">
        <ele>123.707345</ele>
        <time>2026-05-06T21:54:00.712Z</time>
      </trkpt>
      <trkpt lat="43.517560" lon="10.674806">
        <ele>120.950703</ele>
        <time>2026-05-06T21:54:09.665Z</time>
      </trkpt>
      <trkpt lat="43.517511" lon="10.674756">
        <ele>120.453588</ele>
        <time>2026-05-06T21:54:11.277Z</time>
      </trkpt>
      <trkpt lat="43.517447" lon="10.674752">
        <ele>119.931113</ele>
        <time>2026-05-06T21:54:12.964Z</time>
      </trkpt>
      <trkpt lat="43.517198" lon="10.675047">
        <ele>117.253933</ele>
        <time>2026-05-06T21:54:21.634Z</time>
      </trkpt>
      <trkpt lat="43.516774" lon="10.675412">
        <ele>114.070808</ele>
        <time>2026-05-06T21:54:34.955Z</time>
      </trkpt>
      <trkpt lat="43.516622" lon="10.675460">
        <ele>113.721145</ele>
        <time>2026-05-06T21:54:39.176Z</time>
      </trkpt>
      <trkpt lat="43.516110" lon="10.675418">
        <ele>112.571020</ele>
        <time>2026-05-06T21:54:53.760Z</time>
      </trkpt>
      <trkpt lat="43.515938" lon="10.675535">
        <ele>112.140959</ele>
        <time>2026-05-06T21:54:59.906Z</time>
      </trkpt>
      <trkpt lat="43.515825" lon="10.675648">
        <ele>111.827956</ele>
        <time>2026-05-06T21:55:04.649Z</time>
      </trkpt>
      <trkpt lat="43.514869" lon="10.676609">
        <ele>113.291434</ele>
        <time>2026-05-06T21:56:11.560Z</time>
      </trkpt>
      <trkpt lat="43.514736" lon="10.676699">
        <ele>114.097664</ele>
        <time>2026-05-06T21:56:22.940Z</time>
      </trkpt>
      <trkpt lat="43.513743" lon="10.676994">
        <ele>119.625487</ele>
        <time>2026-05-06T21:57:43.892Z</time>
      </trkpt>
      <trkpt lat="43.513589" lon="10.676855">
        <ele>120.593835</ele>
        <time>2026-05-06T21:57:57.992Z</time>
      </trkpt>
      <trkpt lat="43.513508" lon="10.676823">
        <ele>121.019383</ele>
        <time>2026-05-06T21:58:04.280Z</time>
      </trkpt>
      <trkpt lat="43.513417" lon="10.676882">
        <ele>121.527246</ele>
        <time>2026-05-06T21:58:11.718Z</time>
      </trkpt>
      <trkpt lat="43.513372" lon="10.677145">
        <ele>122.516979</ele>
        <time>2026-05-06T21:58:25.832Z</time>
      </trkpt>
      <trkpt lat="43.513331" lon="10.677247">
        <ele>122.944121</ele>
        <time>2026-05-06T21:58:31.821Z</time>
      </trkpt>
      <trkpt lat="43.512837" lon="10.677890">
        <ele>126.375053</ele>
        <time>2026-05-06T21:59:19.388Z</time>
      </trkpt>
      <trkpt lat="43.512666" lon="10.677998">
        <ele>127.324969</ele>
        <time>2026-05-06T21:59:31.538Z</time>
      </trkpt>
      <trkpt lat="43.512409" lon="10.677896">
        <ele>128.675641</ele>
        <time>2026-05-06T21:59:47.542Z</time>
      </trkpt>
      <trkpt lat="43.512273" lon="10.677708">
        <ele>129.424381</ele>
        <time>2026-05-06T21:59:58.729Z</time>
      </trkpt>
      <trkpt lat="43.512222" lon="10.677703">
        <ele>129.538029</ele>
        <time>2026-05-06T22:00:01.818Z</time>
      </trkpt>
      <trkpt lat="43.511933" lon="10.677815">
        <ele>130.205300</ele>
        <time>2026-05-06T22:00:19.395Z</time>
      </trkpt>
      <trkpt lat="43.511845" lon="10.677906">
        <ele>130.449800</ele>
        <time>2026-05-06T22:00:25.692Z</time>
      </trkpt>
      <trkpt lat="43.511619" lon="10.678346">
        <ele>131.318966</ele>
        <time>2026-05-06T22:00:48.088Z</time>
      </trkpt>
      <trkpt lat="43.511382" lon="10.678502">
        <ele>131.902710</ele>
        <time>2026-05-06T22:01:01.941Z</time>
      </trkpt>
      <trkpt lat="43.510783" lon="10.678807">
        <ele>133.256494</ele>
        <time>2026-05-06T22:01:28.274Z</time>
      </trkpt>
      <trkpt lat="43.510689" lon="10.678936">
        <ele>133.295866</ele>
        <time>2026-05-06T22:01:33.290Z</time>
      </trkpt>
      <trkpt lat="43.510592" lon="10.679178">
        <ele>133.355399</ele>
        <time>2026-05-06T22:01:40.820Z</time>
      </trkpt>
      <trkpt lat="43.510391" lon="10.679543">
        <ele>133.454074</ele>
        <time>2026-05-06T22:01:53.425Z</time>
      </trkpt>
      <trkpt lat="43.509732" lon="10.680095">
        <ele>133.682987</ele>
        <time>2026-05-06T22:02:24.772Z</time>
      </trkpt>
      <trkpt lat="43.509585" lon="10.680395">
        <ele>133.760941</ele>
        <time>2026-05-06T22:02:35.332Z</time>
      </trkpt>
      <trkpt lat="43.509297" lon="10.680674">
        <ele>134.084153</ele>
        <time>2026-05-06T22:02:49.061Z</time>
      </trkpt>
      <trkpt lat="43.509053" lon="10.680804">
        <ele>134.361470</ele>
        <time>2026-05-06T22:02:59.481Z</time>
      </trkpt>
      <trkpt lat="43.508923" lon="10.680765">
        <ele>134.502514</ele>
        <time>2026-05-06T22:03:05.053Z</time>
      </trkpt>
      <trkpt lat="43.508659" lon="10.680497">
        <ele>134.850069</ele>
        <time>2026-05-06T22:03:19.564Z</time>
      </trkpt>
      <trkpt lat="43.508550" lon="10.680422">
        <ele>134.979216</ele>
        <time>2026-05-06T22:03:25.003Z</time>
      </trkpt>
      <trkpt lat="43.508402" lon="10.680465">
        <ele>135.139563</ele>
        <time>2026-05-06T22:03:31.927Z</time>
      </trkpt>
      <trkpt lat="43.508232" lon="10.680739">
        <ele>135.416812</ele>
        <time>2026-05-06T22:03:43.870Z</time>
      </trkpt>
      <trkpt lat="43.507936" lon="10.681501">
        <ele>137.104847</ele>
        <time>2026-05-06T22:04:14.945Z</time>
      </trkpt>
      <trkpt lat="43.507769" lon="10.681582">
        <ele>137.779688</ele>
        <time>2026-05-06T22:04:25.088Z</time>
      </trkpt>
      <trkpt lat="43.507021" lon="10.681597">
        <ele>140.631347</ele>
        <time>2026-05-06T22:05:12.670Z</time>
      </trkpt>
      <trkpt lat="43.506192" lon="10.681431">
        <ele>143.949964</ele>
        <time>2026-05-06T22:06:10.714Z</time>
      </trkpt>
      <trkpt lat="43.505536" lon="10.681099">
        <ele>146.874394</ele>
        <time>2026-05-06T22:06:58.278Z</time>
      </trkpt>
      <trkpt lat="43.505291" lon="10.680723">
        <ele>148.408611</ele>
        <time>2026-05-06T22:07:21.598Z</time>
      </trkpt>
      <trkpt lat="43.505106" lon="10.679945">
        <ele>150.096590</ele>
        <time>2026-05-06T22:07:54.641Z</time>
      </trkpt>
      <trkpt lat="43.504978" lon="10.679580">
        <ele>150.135184</ele>
        <time>2026-05-06T22:08:08.232Z</time>
      </trkpt>
      <trkpt lat="43.504803" lon="10.679478">
        <ele>150.160120</ele>
        <time>2026-05-06T22:08:16.267Z</time>
      </trkpt>
      <trkpt lat="43.504009" lon="10.679215">
        <ele>150.267293</ele>
        <time>2026-05-06T22:08:45.996Z</time>
      </trkpt>
      <trkpt lat="43.503429" lon="10.679129">
        <ele>150.013149</ele>
        <time>2026-05-06T22:09:05.154Z</time>
      </trkpt>
      <trkpt lat="43.502924" lon="10.679376">
        <ele>149.455125</ele>
        <time>2026-05-06T22:09:22.525Z</time>
      </trkpt>
      <trkpt lat="43.502371" lon="10.680009">
        <ele>148.706604</ele>
        <time>2026-05-06T22:09:47.294Z</time>
      </trkpt>
      <trkpt lat="43.501527" lon="10.681071">
        <ele>150.059695</ele>
        <time>2026-05-06T22:10:40.067Z</time>
      </trkpt>
      <trkpt lat="43.501250" lon="10.681254">
        <ele>150.626810</ele>
        <time>2026-05-06T22:10:57.412Z</time>
      </trkpt>
      <trkpt lat="43.500943" lon="10.681329">
        <ele>151.202456</ele>
        <time>2026-05-06T22:11:14.584Z</time>
      </trkpt>
      <trkpt lat="43.500328" lon="10.681404">
        <ele>152.150438</ele>
        <time>2026-05-06T22:11:46.744Z</time>
      </trkpt>
      <trkpt lat="43.500259" lon="10.681440">
        <ele>152.242175</ele>
        <time>2026-05-06T22:11:50.490Z</time>
      </trkpt>
      <trkpt lat="43.499585" lon="10.681790">
        <ele>153.137744</ele>
        <time>2026-05-06T22:12:24.394Z</time>
      </trkpt>
      <trkpt lat="43.498635" lon="10.682134">
        <ele>153.698737</ele>
        <time>2026-05-06T22:13:04.259Z</time>
      </trkpt>
      <trkpt lat="43.498495" lon="10.682321">
        <ele>153.506173</ele>
        <time>2026-05-06T22:13:11.512Z</time>
      </trkpt>
      <trkpt lat="43.498406" lon="10.682552">
        <ele>153.318747</ele>
        <time>2026-05-06T22:13:18.381Z</time>
      </trkpt>
      <trkpt lat="43.498200" lon="10.683678">
        <ele>152.486629</ele>
        <time>2026-05-06T22:13:47.298Z</time>
      </trkpt>
      <trkpt lat="43.498211" lon="10.683963">
        <ele>152.282119</ele>
        <time>2026-05-06T22:13:54.022Z</time>
      </trkpt>
      <trkpt lat="43.498301" lon="10.684365">
        <ele>151.666918</ele>
        <time>2026-05-06T22:14:03.858Z</time>
      </trkpt>
      <trkpt lat="43.498441" lon="10.684810">
        <ele>150.852719</ele>
        <time>2026-05-06T22:14:15.133Z</time>
      </trkpt>
      <trkpt lat="43.498431" lon="10.685138">
        <ele>150.301657</ele>
        <time>2026-05-06T22:14:22.721Z</time>
      </trkpt>
      <trkpt lat="43.498367" lon="10.685524">
        <ele>149.637012</ele>
        <time>2026-05-06T22:14:31.854Z</time>
      </trkpt>
      <trkpt lat="43.498083" lon="10.686162">
        <ele>148.380505</ele>
        <time>2026-05-06T22:14:49.336Z</time>
      </trkpt>
      <trkpt lat="43.497820" lon="10.686662">
        <ele>147.805154</ele>
        <time>2026-05-06T22:15:04.058Z</time>
      </trkpt>
      <trkpt lat="43.497709" lon="10.686951">
        <ele>147.613725</ele>
        <time>2026-05-06T22:15:11.976Z</time>
      </trkpt>
      <trkpt lat="43.496881" lon="10.693098">
        <ele>144.400406</ele>
        <time>2026-05-06T22:17:56.503Z</time>
      </trkpt>
      <trkpt lat="43.496764" lon="10.693849">
        <ele>143.898682</ele>
        <time>2026-05-06T22:18:17.275Z</time>
      </trkpt>
      <trkpt lat="43.496709" lon="10.694064">
        <ele>143.663410</ele>
        <time>2026-05-06T22:18:23.362Z</time>
      </trkpt>
      <trkpt lat="43.496632" lon="10.694203">
        <ele>143.482919</ele>
        <time>2026-05-06T22:18:28.070Z</time>
      </trkpt>
      <trkpt lat="43.496598" lon="10.694263">
        <ele>143.404346</ele>
        <time>2026-05-06T22:18:30.035Z</time>
      </trkpt>
      <trkpt lat="43.496355" lon="10.694429">
        <ele>143.018527</ele>
        <time>2026-05-06T22:18:39.984Z</time>
      </trkpt>
      <trkpt lat="43.495438" lon="10.694735">
        <ele>141.671866</ele>
        <time>2026-05-06T22:19:10.475Z</time>
      </trkpt>
      <trkpt lat="43.495048" lon="10.695099">
        <ele>140.399118</ele>
        <time>2026-05-06T22:19:25.564Z</time>
      </trkpt>
      <trkpt lat="43.493293" lon="10.696864">
        <ele>133.979461</ele>
        <time>2026-05-06T22:20:34.045Z</time>
      </trkpt>
      <trkpt lat="43.492849" lon="10.697352">
        <ele>132.077345</ele>
        <time>2026-05-06T22:20:51.715Z</time>
      </trkpt>
      <trkpt lat="43.492722" lon="10.697669">
        <ele>131.197376</ele>
        <time>2026-05-06T22:20:59.627Z</time>
      </trkpt>
      <trkpt lat="43.492510" lon="10.698491">
        <ele>128.131828</ele>
        <time>2026-05-06T22:21:17.894Z</time>
      </trkpt>
      <trkpt lat="43.492409" lon="10.699203">
        <ele>125.398851</ele>
        <time>2026-05-06T22:21:32.770Z</time>
      </trkpt>
      <trkpt lat="43.492237" lon="10.699564">
        <ele>123.771856</ele>
        <time>2026-05-06T22:21:41.671Z</time>
      </trkpt>
      <trkpt lat="43.492142" lon="10.699847">
        <ele>122.597159</ele>
        <time>2026-05-06T22:21:48.129Z</time>
      </trkpt>
      <trkpt lat="43.492150" lon="10.700325">
        <ele>120.772122</ele>
        <time>2026-05-06T22:21:58.057Z</time>
      </trkpt>
      <trkpt lat="43.492117" lon="10.701075">
        <ele>117.839243</ele>
        <time>2026-05-06T22:22:13.832Z</time>
      </trkpt>
      <trkpt lat="43.492032" lon="10.701611">
        <ele>115.697653</ele>
        <time>2026-05-06T22:22:25.464Z</time>
      </trkpt>
      <trkpt lat="43.491624" lon="10.702745">
        <ele>110.610737</ele>
        <time>2026-05-06T22:22:51.315Z</time>
      </trkpt>
      <trkpt lat="43.491537" lon="10.702985">
        <ele>109.413803</ele>
        <time>2026-05-06T22:22:56.699Z</time>
      </trkpt>
      <trkpt lat="43.491331" lon="10.703655">
        <ele>106.167370</ele>
        <time>2026-05-06T22:23:11.358Z</time>
      </trkpt>
      <trkpt lat="43.490683" lon="10.706059">
        <ele>94.788690</ele>
        <time>2026-05-06T22:24:03.390Z</time>
      </trkpt>
      <trkpt lat="43.490533" lon="10.706536">
        <ele>92.493586</ele>
        <time>2026-05-06T22:24:13.888Z</time>
      </trkpt>
      <trkpt lat="43.490288" lon="10.706895">
        <ele>90.317710</ele>
        <time>2026-05-06T22:24:23.882Z</time>
      </trkpt>
      <trkpt lat="43.489899" lon="10.707684">
        <ele>86.919241</ele>
        <time>2026-05-06T22:24:43.361Z</time>
      </trkpt>
      <trkpt lat="43.489705" lon="10.708156">
        <ele>85.055282</ele>
        <time>2026-05-06T22:24:54.641Z</time>
      </trkpt>
      <trkpt lat="43.489682" lon="10.708484">
        <ele>83.923029</ele>
        <time>2026-05-06T22:25:01.711Z</time>
      </trkpt>
      <trkpt lat="43.489733" lon="10.708747">
        <ele>82.987644</ele>
        <time>2026-05-06T22:25:07.632Z</time>
      </trkpt>
      <trkpt lat="43.490135" lon="10.709162">
        <ele>80.984378</ele>
        <time>2026-05-06T22:25:23.063Z</time>
      </trkpt>
      <trkpt lat="43.490147" lon="10.709295">
        <ele>80.791611</ele>
        <time>2026-05-06T22:25:26.131Z</time>
      </trkpt>
      <trkpt lat="43.490616" lon="10.709649">
        <ele>79.731535</ele>
        <time>2026-05-06T22:25:35.796Z</time>
      </trkpt>
      <trkpt lat="43.491104" lon="10.710108">
        <ele>78.560291</ele>
        <time>2026-05-06T22:25:47.114Z</time>
      </trkpt>
      <trkpt lat="43.491205" lon="10.710233">
        <ele>78.291190</ele>
        <time>2026-05-06T22:25:49.788Z</time>
      </trkpt>
      <trkpt lat="43.491465" lon="10.710667">
        <ele>77.594703</ele>
        <time>2026-05-06T22:25:57.946Z</time>
      </trkpt>
      <trkpt lat="43.492257" lon="10.712272">
        <ele>76.326189</ele>
        <time>2026-05-06T22:26:27.208Z</time>
      </trkpt>
      <trkpt lat="43.492357" lon="10.712436">
        <ele>76.186186</ele>
        <time>2026-05-06T22:26:30.425Z</time>
      </trkpt>
      <trkpt lat="43.492382" lon="10.712478">
        <ele>76.150683</ele>
        <time>2026-05-06T22:26:31.246Z</time>
      </trkpt>
      <trkpt lat="43.492546" lon="10.712683">
        <ele>75.939723</ele>
        <time>2026-05-06T22:26:35.771Z</time>
      </trkpt>
      <trkpt lat="43.493654" lon="10.713792">
        <ele>74.585081</ele>
        <time>2026-05-06T22:27:03.098Z</time>
      </trkpt>
      <trkpt lat="43.493841" lon="10.713938">
        <ele>74.372467</ele>
        <time>2026-05-06T22:27:07.486Z</time>
      </trkpt>
      <trkpt lat="43.494057" lon="10.714047">
        <ele>74.221372</ele>
        <time>2026-05-06T22:27:12.316Z</time>
      </trkpt>
      <trkpt lat="43.495109" lon="10.714407">
        <ele>73.717275</ele>
        <time>2026-05-06T22:27:36.059Z</time>
      </trkpt>
      <trkpt lat="43.495658" lon="10.714631">
        <ele>73.449758</ele>
        <time>2026-05-06T22:27:48.782Z</time>
      </trkpt>
      <trkpt lat="43.497532" lon="10.716214">
        <ele>71.469753</ele>
        <time>2026-05-06T22:28:33.934Z</time>
      </trkpt>
      <trkpt lat="43.497750" lon="10.716448">
        <ele>71.100943</ele>
        <time>2026-05-06T22:28:39.318Z</time>
      </trkpt>
      <trkpt lat="43.498427" lon="10.717327">
        <ele>69.859528</ele>
        <time>2026-05-06T22:28:57.245Z</time>
      </trkpt>
      <trkpt lat="43.498574" lon="10.717599">
        <ele>69.546246</ele>
        <time>2026-05-06T22:29:01.977Z</time>
      </trkpt>
      <trkpt lat="43.498749" lon="10.718139">
        <ele>69.088467</ele>
        <time>2026-05-06T22:29:10.292Z</time>
      </trkpt>
      <trkpt lat="43.498793" lon="10.718419">
        <ele>68.866719</ele>
        <time>2026-05-06T22:29:14.361Z</time>
      </trkpt>
      <trkpt lat="43.498934" lon="10.720415">
        <ele>67.797141</ele>
        <time>2026-05-06T22:29:44.269Z</time>
      </trkpt>
      <trkpt lat="43.498973" lon="10.720650">
        <ele>67.852030</ele>
        <time>2026-05-06T22:29:48.236Z</time>
      </trkpt>
      <trkpt lat="43.498862" lon="10.720698">
        <ele>67.888545</ele>
        <time>2026-05-06T22:29:51.749Z</time>
      </trkpt>
      <trkpt lat="43.498829" lon="10.720740">
        <ele>67.902642</ele>
        <time>2026-05-06T22:29:53.115Z</time>
      </trkpt>
      <trkpt lat="43.498805" lon="10.720924">
        <ele>67.945209</ele>
        <time>2026-05-06T22:29:57.244Z</time>
      </trkpt>
      <trkpt lat="43.498816" lon="10.721380">
        <ele>68.049092</ele>
        <time>2026-05-06T22:30:07.485Z</time>
      </trkpt>
      <trkpt lat="43.498841" lon="10.721566">
        <ele>68.092163</ele>
        <time>2026-05-06T22:30:12.899Z</time>
      </trkpt>
      <trkpt lat="43.498918" lon="10.721787">
        <ele>68.147986</ele>
        <time>2026-05-06T22:30:19.968Z</time>
      </trkpt>
      <trkpt lat="43.498982" lon="10.721835">
        <ele>68.170855</ele>
        <time>2026-05-06T22:30:22.862Z</time>
      </trkpt>
      <trkpt lat="43.498680" lon="10.723358">
        <ele>71.420862</ele>
        <time>2026-05-06T22:31:05.232Z</time>
      </trkpt>
      <trkpt lat="43.498621" lon="10.723645">
        <ele>72.194106</ele>
        <time>2026-05-06T22:31:15.471Z</time>
      </trkpt>
      <trkpt lat="43.498499" lon="10.724306">
        <ele>73.962110</ele>
        <time>2026-05-06T22:31:41.167Z</time>
      </trkpt>
      <trkpt lat="43.498060" lon="10.724166">
        <ele>76.158630</ele>
        <time>2026-05-06T22:32:07.754Z</time>
      </trkpt>
      <trkpt lat="43.497768" lon="10.724196">
        <ele>77.892062</ele>
        <time>2026-05-06T22:32:30.041Z</time>
      </trkpt>
      <trkpt lat="43.497577" lon="10.724115">
        <ele>79.075075</ele>
        <time>2026-05-06T22:32:44.718Z</time>
      </trkpt>
      <trkpt lat="43.497180" lon="10.723799">
        <ele>81.788955</ele>
        <time>2026-05-06T22:33:17.438Z</time>
      </trkpt>
      <trkpt lat="43.496604" lon="10.723649">
        <ele>85.259181</ele>
        <time>2026-05-06T22:34:00.774Z</time>
      </trkpt>
      <trkpt lat="43.495206" lon="10.723199">
        <ele>95.429302</ele>
        <time>2026-05-06T22:35:56.660Z</time>
      </trkpt>
      <trkpt lat="43.494993" lon="10.723032">
        <ele>97.167535</ele>
        <time>2026-05-06T22:36:17.516Z</time>
      </trkpt>
      <trkpt lat="43.494417" lon="10.722790">
        <ele>101.011105</ele>
        <time>2026-05-06T22:37:08.776Z</time>
      </trkpt>
      <trkpt lat="43.494184" lon="10.722763">
        <ele>102.458058</ele>
        <time>2026-05-06T22:37:28.398Z</time>
      </trkpt>
      <trkpt lat="43.493861" lon="10.722801">
        <ele>104.464137</ele>
        <time>2026-05-06T22:37:54.347Z</time>
      </trkpt>
      <trkpt lat="43.493515" lon="10.722923">
        <ele>106.674219</ele>
        <time>2026-05-06T22:38:20.799Z</time>
      </trkpt>
      <trkpt lat="43.493192" lon="10.723037">
        <ele>108.737510</ele>
        <time>2026-05-06T22:38:43.056Z</time>
      </trkpt>
      <trkpt lat="43.493005" lon="10.723053">
        <ele>109.388800</ele>
        <time>2026-05-06T22:38:54.284Z</time>
      </trkpt>
      <trkpt lat="43.492448" lon="10.722898">
        <ele>110.278543</ele>
        <time>2026-05-06T22:39:23.426Z</time>
      </trkpt>
      <trkpt lat="43.492328" lon="10.722549">
        <ele>110.717257</ele>
        <time>2026-05-06T22:39:35.759Z</time>
      </trkpt>
      <trkpt lat="43.492156" lon="10.722425">
        <ele>111.021184</ele>
        <time>2026-05-06T22:39:43.713Z</time>
      </trkpt>
      <trkpt lat="43.491988" lon="10.722188">
        <ele>111.397582</ele>
        <time>2026-05-06T22:39:53.385Z</time>
      </trkpt>
      <trkpt lat="43.491900" lon="10.721669">
        <ele>112.003023</ele>
        <time>2026-05-06T22:40:08.744Z</time>
      </trkpt>
      <trkpt lat="43.491787" lon="10.721495">
        <ele>112.323970</ele>
        <time>2026-05-06T22:40:15.427Z</time>
      </trkpt>
      <trkpt lat="43.491491" lon="10.721299">
        <ele>112.959786</ele>
        <time>2026-05-06T22:40:28.834Z</time>
      </trkpt>
      <trkpt lat="43.491249" lon="10.720853">
        <ele>113.742111</ele>
        <time>2026-05-06T22:40:46.244Z</time>
      </trkpt>
      <trkpt lat="43.491121" lon="10.720618">
        <ele>114.154892</ele>
        <time>2026-05-06T22:40:56.487Z</time>
      </trkpt>
      <trkpt lat="43.490946" lon="10.720446">
        <ele>114.571044</ele>
        <time>2026-05-06T22:41:07.604Z</time>
      </trkpt>
      <trkpt lat="43.490355" lon="10.720242">
        <ele>116.039086</ele>
        <time>2026-05-06T22:41:44.245Z</time>
      </trkpt>
      <trkpt lat="43.489911" lon="10.719711">
        <ele>118.573181</ele>
        <time>2026-05-06T22:42:26.168Z</time>
      </trkpt>
      <trkpt lat="43.489607" lon="10.719539">
        <ele>119.989818</ele>
        <time>2026-05-06T22:42:49.795Z</time>
      </trkpt>
      <trkpt lat="43.489183" lon="10.719550">
        <ele>121.817979</ele>
        <time>2026-05-06T22:43:19.043Z</time>
      </trkpt>
      <trkpt lat="43.488949" lon="10.719679">
        <ele>122.904430</ele>
        <time>2026-05-06T22:43:34.836Z</time>
      </trkpt>
      <trkpt lat="43.487903" lon="10.719802">
        <ele>123.933760</ele>
        <time>2026-05-06T22:44:20.262Z</time>
      </trkpt>
      <trkpt lat="43.487291" lon="10.719684">
        <ele>124.359155</ele>
        <time>2026-05-06T22:44:42.826Z</time>
      </trkpt>
      <trkpt lat="43.487000" lon="10.719529">
        <ele>124.444134</ele>
        <time>2026-05-06T22:44:54.577Z</time>
      </trkpt>
      <trkpt lat="43.486681" lon="10.719344">
        <ele>124.216627</ele>
        <time>2026-05-06T22:45:07.702Z</time>
      </trkpt>
      <trkpt lat="43.486440" lon="10.718936">
        <ele>123.965698</ele>
        <time>2026-05-06T22:45:22.455Z</time>
      </trkpt>
      <trkpt lat="43.485829" lon="10.718383">
        <ele>123.485188</ele>
        <time>2026-05-06T22:45:49.088Z</time>
      </trkpt>
      <trkpt lat="43.485783" lon="10.718355">
        <ele>123.452132</ele>
        <time>2026-05-06T22:45:50.747Z</time>
      </trkpt>
      <trkpt lat="43.484477" lon="10.717528">
        <ele>121.743739</ele>
        <time>2026-05-06T22:46:37.216Z</time>
      </trkpt>
      <trkpt lat="43.484007" lon="10.717093">
        <ele>121.044025</ele>
        <time>2026-05-06T22:46:59.072Z</time>
      </trkpt>
      <trkpt lat="43.483711" lon="10.716905">
        <ele>121.190382</ele>
        <time>2026-05-06T22:47:13.737Z</time>
      </trkpt>
      <trkpt lat="43.483590" lon="10.716777">
        <ele>121.258878</ele>
        <time>2026-05-06T22:47:20.730Z</time>
      </trkpt>
      <trkpt lat="43.483318" lon="10.716393">
        <ele>121.433732</ele>
        <time>2026-05-06T22:47:38.266Z</time>
      </trkpt>
      <trkpt lat="43.483201" lon="10.716171">
        <ele>121.523133</ele>
        <time>2026-05-06T22:47:46.652Z</time>
      </trkpt>
      <trkpt lat="43.482968" lon="10.716050">
        <ele>121.634946</ele>
        <time>2026-05-06T22:47:56.683Z</time>
      </trkpt>
      <trkpt lat="43.482629" lon="10.715980">
        <ele>121.788876</ele>
        <time>2026-05-06T22:48:09.653Z</time>
      </trkpt>
      <trkpt lat="43.482069" lon="10.716039">
        <ele>121.985024</ele>
        <time>2026-05-06T22:48:30.712Z</time>
      </trkpt>
      <trkpt lat="43.481811" lon="10.716026">
        <ele>122.067554</ele>
        <time>2026-05-06T22:48:40.804Z</time>
      </trkpt>
      <trkpt lat="43.481395" lon="10.715618">
        <ele>122.230773</ele>
        <time>2026-05-06T22:49:02.117Z</time>
      </trkpt>
      <trkpt lat="43.481278" lon="10.715393">
        <ele>122.294980</ele>
        <time>2026-05-06T22:49:10.750Z</time>
      </trkpt>
      <trkpt lat="43.481107" lon="10.715296">
        <ele>122.354093</ele>
        <time>2026-05-06T22:49:18.790Z</time>
      </trkpt>
      <trkpt lat="43.480745" lon="10.715194">
        <ele>122.394238</ele>
        <time>2026-05-06T22:49:34.431Z</time>
      </trkpt>
      <trkpt lat="43.479947" lon="10.715548">
        <ele>122.250207</ele>
        <time>2026-05-06T22:50:04.989Z</time>
      </trkpt>
      <trkpt lat="43.479367" lon="10.715634">
        <ele>122.149983</ele>
        <time>2026-05-06T22:50:25.610Z</time>
      </trkpt>
      <trkpt lat="43.478935" lon="10.715500">
        <ele>122.599966</ele>
        <time>2026-05-06T22:50:42.875Z</time>
      </trkpt>
      <trkpt lat="43.478783" lon="10.715350">
        <ele>123.005968</ele>
        <time>2026-05-06T22:50:50.978Z</time>
      </trkpt>
      <trkpt lat="43.478596" lon="10.715039">
        <ele>123.642450</ele>
        <time>2026-05-06T22:51:04.863Z</time>
      </trkpt>
      <trkpt lat="43.478398" lon="10.715103">
        <ele>124.084114</ele>
        <time>2026-05-06T22:51:15.576Z</time>
      </trkpt>
      <trkpt lat="43.478071" lon="10.715264">
        <ele>124.838219</ele>
        <time>2026-05-06T22:51:35.032Z</time>
      </trkpt>
      <trkpt lat="43.477767" lon="10.715462">
        <ele>125.568434</ele>
        <time>2026-05-06T22:51:54.793Z</time>
      </trkpt>
      <trkpt lat="43.477066" lon="10.715559">
        <ele>127.620201</ele>
        <time>2026-05-06T22:52:37.956Z</time>
      </trkpt>
      <trkpt lat="43.476210" lon="10.715741">
        <ele>130.409977</ele>
        <time>2026-05-06T22:53:30.441Z</time>
      </trkpt>
      <trkpt lat="43.475840" lon="10.715881">
        <ele>131.645846</ele>
        <time>2026-05-06T22:53:50.672Z</time>
      </trkpt>
      <trkpt lat="43.475279" lon="10.716230">
        <ele>132.835000</ele>
        <time>2026-05-06T22:54:19.063Z</time>
      </trkpt>
      <trkpt lat="43.474668" lon="10.716734">
        <ele>134.126812</ele>
        <time>2026-05-06T22:54:51.626Z</time>
      </trkpt>
      <trkpt lat="43.474509" lon="10.716814">
        <ele>134.433877</ele>
        <time>2026-05-06T22:54:59.959Z</time>
      </trkpt>
      <trkpt lat="43.473975" lon="10.716686">
        <ele>135.654410</ele>
        <time>2026-05-06T22:55:27.951Z</time>
      </trkpt>
      <trkpt lat="43.473921" lon="10.716707">
        <ele>135.826751</ele>
        <time>2026-05-06T22:55:31.065Z</time>
      </trkpt>
      <trkpt lat="43.473695" lon="10.717023">
        <ele>136.815679</ele>
        <time>2026-05-06T22:55:49.670Z</time>
      </trkpt>
      <trkpt lat="43.473135" lon="10.717705">
        <ele>139.111216</ele>
        <time>2026-05-06T22:56:34.022Z</time>
      </trkpt>
      <trkpt lat="43.472963" lon="10.717812">
        <ele>139.690860</ele>
        <time>2026-05-06T22:56:44.742Z</time>
      </trkpt>
      <trkpt lat="43.471068" lon="10.720398">
        <ele>149.614955</ele>
        <time>2026-05-06T22:59:15.876Z</time>
      </trkpt>
      <trkpt lat="43.470309" lon="10.721531">
        <ele>156.029784</ele>
        <time>2026-05-06T23:00:45.662Z</time>
      </trkpt>
      <trkpt lat="43.470173" lon="10.721852">
        <ele>157.549950</ele>
        <time>2026-05-06T23:01:08.622Z</time>
      </trkpt>
      <trkpt lat="43.470379" lon="10.722460">
        <ele>160.263035</ele>
        <time>2026-05-06T23:01:47.820Z</time>
      </trkpt>
      <trkpt lat="43.470415" lon="10.722661">
        <ele>161.100135</ele>
        <time>2026-05-06T23:01:59.329Z</time>
      </trkpt>
      <trkpt lat="43.469778" lon="10.724206">
        <ele>166.835470</ele>
        <time>2026-05-06T23:03:25.049Z</time>
      </trkpt>
      <trkpt lat="43.469746" lon="10.724081">
        <ele>166.891992</ele>
        <time>2026-05-06T23:03:28.608Z</time>
      </trkpt>
      <trkpt lat="43.469720" lon="10.723799">
        <ele>167.013211</ele>
        <time>2026-05-06T23:03:35.561Z</time>
      </trkpt>
      <trkpt lat="43.469687" lon="10.722748">
        <ele>167.461804</ele>
        <time>2026-05-06T23:03:52.526Z</time>
      </trkpt>
      <trkpt lat="43.469653" lon="10.722604">
        <ele>167.526378</ele>
        <time>2026-05-06T23:03:54.601Z</time>
      </trkpt>
      <trkpt lat="43.469593" lon="10.722469">
        <ele>167.593883</ele>
        <time>2026-05-06T23:03:56.724Z</time>
      </trkpt>
      <trkpt lat="43.469505" lon="10.722359">
        <ele>167.663696</ele>
        <time>2026-05-06T23:03:58.890Z</time>
      </trkpt>
      <trkpt lat="43.469284" lon="10.722215">
        <ele>167.647281</ele>
        <time>2026-05-06T23:04:03.286Z</time>
      </trkpt>
      <trkpt lat="43.468902" lon="10.722207">
        <ele>167.453531</ele>
        <time>2026-05-06T23:04:10.283Z</time>
      </trkpt>
      <trkpt lat="43.468709" lon="10.722144">
        <ele>167.352944</ele>
        <time>2026-05-06T23:04:14.001Z</time>
      </trkpt>
      <trkpt lat="43.467549" lon="10.721386">
        <ele>166.911700</ele>
        <time>2026-05-06T23:04:47.150Z</time>
      </trkpt>
      <trkpt lat="43.467431" lon="10.721380">
        <ele>166.968812</ele>
        <time>2026-05-06T23:04:50.916Z</time>
      </trkpt>
      <trkpt lat="43.467320" lon="10.721440">
        <ele>167.026483</ele>
        <time>2026-05-06T23:04:54.571Z</time>
      </trkpt>
      <trkpt lat="43.467222" lon="10.721563">
        <ele>167.090600</ele>
        <time>2026-05-06T23:04:58.488Z</time>
      </trkpt>
      <trkpt lat="43.466901" lon="10.722534">
        <ele>167.465147</ele>
        <time>2026-05-06T23:05:19.643Z</time>
      </trkpt>
      <trkpt lat="43.466772" lon="10.723046">
        <ele>167.655398</ele>
        <time>2026-05-06T23:05:28.441Z</time>
      </trkpt>
      <trkpt lat="43.466735" lon="10.723430">
        <ele>167.513182</ele>
        <time>2026-05-06T23:05:34.548Z</time>
      </trkpt>
      <trkpt lat="43.466686" lon="10.723666">
        <ele>167.385633</ele>
        <time>2026-05-06T23:05:38.442Z</time>
      </trkpt>
      <trkpt lat="43.466592" lon="10.723939">
        <ele>167.228622</ele>
        <time>2026-05-06T23:05:43.170Z</time>
      </trkpt>
      <trkpt lat="43.466026" lon="10.724846">
        <ele>166.607065</ele>
        <time>2026-05-06T23:06:01.268Z</time>
      </trkpt>
      <trkpt lat="43.465825" lon="10.725312">
        <ele>166.243529</ele>
        <time>2026-05-06T23:06:09.085Z</time>
      </trkpt>
      <trkpt lat="43.464041" lon="10.730992">
        <ele>159.758758</ele>
        <time>2026-05-06T23:07:34.783Z</time>
      </trkpt>
      <trkpt lat="43.464084" lon="10.731117">
        <ele>159.670544</ele>
        <time>2026-05-06T23:07:38.747Z</time>
      </trkpt>
      <trkpt lat="43.464051" lon="10.731322">
        <ele>159.536636</ele>
        <time>2026-05-06T23:07:44.750Z</time>
      </trkpt>
      <trkpt lat="43.463961" lon="10.731884">
        <ele>159.169622</ele>
        <time>2026-05-06T23:08:01.867Z</time>
      </trkpt>
      <trkpt lat="43.463913" lon="10.732274">
        <ele>158.858124</ele>
        <time>2026-05-06T23:08:14.129Z</time>
      </trkpt>
      <trkpt lat="43.463578" lon="10.735000">
        <ele>153.396637</ele>
        <time>2026-05-06T23:09:23.213Z</time>
      </trkpt>
      <trkpt lat="43.464014" lon="10.735509">
        <ele>148.007581</ele>
        <time>2026-05-06T23:09:38.310Z</time>
      </trkpt>
      <trkpt lat="43.464091" lon="10.735563">
        <ele>147.192807</ele>
        <time>2026-05-06T23:09:40.513Z</time>
      </trkpt>
      <trkpt lat="43.464901" lon="10.735703">
        <ele>139.446826</ele>
        <time>2026-05-06T23:10:00.492Z</time>
      </trkpt>
      <trkpt lat="43.465158" lon="10.735853">
        <ele>136.365415</ele>
        <time>2026-05-06T23:10:07.232Z</time>
      </trkpt>
      <trkpt lat="43.465423" lon="10.735917">
        <ele>133.395158</ele>
        <time>2026-05-06T23:10:13.758Z</time>
      </trkpt>
      <trkpt lat="43.465875" lon="10.736132">
        <ele>128.115984</ele>
        <time>2026-05-06T23:10:25.603Z</time>
      </trkpt>
      <trkpt lat="43.466365" lon="10.736303">
        <ele>122.535463</ele>
        <time>2026-05-06T23:10:38.846Z</time>
      </trkpt>
      <trkpt lat="43.466435" lon="10.736422">
        <ele>121.308095</ele>
        <time>2026-05-06T23:10:41.845Z</time>
      </trkpt>
      <trkpt lat="43.466435" lon="10.736582">
        <ele>120.026059</ele>
        <time>2026-05-06T23:10:45.100Z</time>
      </trkpt>
      <trkpt lat="43.466334" lon="10.737054">
        <ele>119.970397</ele>
        <time>2026-05-06T23:10:55.514Z</time>
      </trkpt>
      <trkpt lat="43.466194" lon="10.737344">
        <ele>120.009615</ele>
        <time>2026-05-06T23:11:03.640Z</time>
      </trkpt>
      <trkpt lat="43.466209" lon="10.737484">
        <ele>120.025550</ele>
        <time>2026-05-06T23:11:07.191Z</time>
      </trkpt>
      <trkpt lat="43.466389" lon="10.737687">
        <ele>120.061638</ele>
        <time>2026-05-06T23:11:16.030Z</time>
      </trkpt>
      <trkpt lat="43.466934" lon="10.738020">
        <ele>120.154131</ele>
        <time>2026-05-06T23:11:48.272Z</time>
      </trkpt>
      <trkpt lat="43.467572" lon="10.738256">
        <ele>123.245995</ele>
        <time>2026-05-06T23:12:36.745Z</time>
      </trkpt>
      <trkpt lat="43.467899" lon="10.738417">
        <ele>125.938142</ele>
        <time>2026-05-06T23:13:06.806Z</time>
      </trkpt>
      <trkpt lat="43.468186" lon="10.738481">
        <ele>128.192138</ele>
        <time>2026-05-06T23:13:33.530Z</time>
      </trkpt>
      <trkpt lat="43.468244" lon="10.738333">
        <ele>129.138526</ele>
        <time>2026-05-06T23:13:42.931Z</time>
      </trkpt>
      <trkpt lat="43.468435" lon="10.738142">
        <ele>130.968184</ele>
        <time>2026-05-06T23:14:01.110Z</time>
      </trkpt>
      <trkpt lat="43.468635" lon="10.738076">
        <ele>132.562587</ele>
        <time>2026-05-06T23:14:16.807Z</time>
      </trkpt>
      <trkpt lat="43.468981" lon="10.738048">
        <ele>135.672774</ele>
        <time>2026-05-06T23:14:42.591Z</time>
      </trkpt>
      <trkpt lat="43.469216" lon="10.737941">
        <ele>138.323215</ele>
        <time>2026-05-06T23:15:00.969Z</time>
      </trkpt>
      <trkpt lat="43.469319" lon="10.737820">
        <ele>139.772703</ele>
        <time>2026-05-06T23:15:11.198Z</time>
      </trkpt>
      <trkpt lat="43.469721" lon="10.737082">
        <ele>146.944236</ele>
        <time>2026-05-06T23:16:06.548Z</time>
      </trkpt>
      <trkpt lat="43.469971" lon="10.736488">
        <ele>152.280860</ele>
        <time>2026-05-06T23:16:56.320Z</time>
      </trkpt>
      <trkpt lat="43.470009" lon="10.736399">
        <ele>153.083382</ele>
        <time>2026-05-06T23:17:04.384Z</time>
      </trkpt>
      <trkpt lat="43.470199" lon="10.736040">
        <ele>156.782979</ele>
        <time>2026-05-06T23:17:40.203Z</time>
      </trkpt>
      <trkpt lat="43.470249" lon="10.735857">
        <ele>158.422117</ele>
        <time>2026-05-06T23:17:55.726Z</time>
      </trkpt>
      <trkpt lat="43.470346" lon="10.735265">
        <ele>163.509548</ele>
        <time>2026-05-06T23:18:41.659Z</time>
      </trkpt>
      <trkpt lat="43.470409" lon="10.734801">
        <ele>167.466574</ele>
        <time>2026-05-06T23:19:13.021Z</time>
      </trkpt>
      <trkpt lat="43.470321" lon="10.734293">
        <ele>171.844581</ele>
        <time>2026-05-06T23:19:44.383Z</time>
      </trkpt>
      <trkpt lat="43.470307" lon="10.734031">
        <ele>174.046777</ele>
        <time>2026-05-06T23:19:59.252Z</time>
      </trkpt>
      <trkpt lat="43.470370" lon="10.733643">
        <ele>176.485626</ele>
        <time>2026-05-06T23:20:19.460Z</time>
      </trkpt>
      <trkpt lat="43.470391" lon="10.733291">
        <ele>178.619789</ele>
        <time>2026-05-06T23:20:35.982Z</time>
      </trkpt>
      <trkpt lat="43.470511" lon="10.733278">
        <ele>179.622017</ele>
        <time>2026-05-06T23:20:44.532Z</time>
      </trkpt>
      <trkpt lat="43.470573" lon="10.733128">
        <ele>180.665100</ele>
        <time>2026-05-06T23:20:53.653Z</time>
      </trkpt>
      <trkpt lat="43.470659" lon="10.732623">
        <ele>183.799479</ele>
        <time>2026-05-06T23:21:22.476Z</time>
      </trkpt>
      <trkpt lat="43.470842" lon="10.731922">
        <ele>188.301018</ele>
        <time>2026-05-06T23:22:09.392Z</time>
      </trkpt>
      <trkpt lat="43.470777" lon="10.730707">
        <ele>194.520578</ele>
        <time>2026-05-06T23:23:23.826Z</time>
      </trkpt>
      <trkpt lat="43.470705" lon="10.730667">
        <ele>195.053558</ele>
        <time>2026-05-06T23:23:29.759Z</time>
      </trkpt>
      <trkpt lat="43.470659" lon="10.730259">
        <ele>197.110788</ele>
        <time>2026-05-06T23:23:49.259Z</time>
      </trkpt>
      <trkpt lat="43.470455" lon="10.729273">
        <ele>201.616576</ele>
        <time>2026-05-06T23:24:29.214Z</time>
      </trkpt>
      <trkpt lat="43.470915" lon="10.728846">
        <ele>202.227228</ele>
        <time>2026-05-06T23:24:48.476Z</time>
      </trkpt>
      <trkpt lat="43.471240" lon="10.728633">
        <ele>202.623458</ele>
        <time>2026-05-06T23:24:58.151Z</time>
      </trkpt>
      <trkpt lat="43.471493" lon="10.728522">
        <ele>202.915785</ele>
        <time>2026-05-06T23:25:04.571Z</time>
      </trkpt>
      <trkpt lat="43.471896" lon="10.728311">
        <ele>203.390430</ele>
        <time>2026-05-06T23:25:14.322Z</time>
      </trkpt>
      <trkpt lat="43.471992" lon="10.728375">
        <ele>203.503550</ele>
        <time>2026-05-06T23:25:16.517Z</time>
      </trkpt>
      <trkpt lat="43.472101" lon="10.728383">
        <ele>203.603955</ele>
        <time>2026-05-06T23:25:18.784Z</time>
      </trkpt>
      <trkpt lat="43.472345" lon="10.728318">
        <ele>203.832553</ele>
        <time>2026-05-06T23:25:23.883Z</time>
      </trkpt>
      <trkpt lat="43.472752" lon="10.728058">
        <ele>204.245204</ele>
        <time>2026-05-06T23:25:34.059Z</time>
      </trkpt>
      <trkpt lat="43.472862" lon="10.727983">
        <ele>204.358096</ele>
        <time>2026-05-06T23:25:37.650Z</time>
      </trkpt>
      <trkpt lat="43.472996" lon="10.727909">
        <ele>204.490885</ele>
        <time>2026-05-06T23:25:42.285Z</time>
      </trkpt>
      <trkpt lat="43.473122" lon="10.727891">
        <ele>204.607406</ele>
        <time>2026-05-06T23:25:46.564Z</time>
      </trkpt>
      <trkpt lat="43.473431" lon="10.727985">
        <ele>204.898482</ele>
        <time>2026-05-06T23:25:57.546Z</time>
      </trkpt>
      <trkpt lat="43.474176" lon="10.728260">
        <ele>205.827995</ele>
        <time>2026-05-06T23:26:28.065Z</time>
      </trkpt>
      <trkpt lat="43.474678" lon="10.728408">
        <ele>206.520508</ele>
        <time>2026-05-06T23:26:47.627Z</time>
      </trkpt>
      <trkpt lat="43.475250" lon="10.728399">
        <ele>207.292176</ele>
        <time>2026-05-06T23:27:03.823Z</time>
      </trkpt>
      <trkpt lat="43.475409" lon="10.728480">
        <ele>207.520851</ele>
        <time>2026-05-06T23:27:07.410Z</time>
      </trkpt>
      <trkpt lat="43.476174" lon="10.728883">
        <ele>203.887464</ele>
        <time>2026-05-06T23:27:22.663Z</time>
      </trkpt>
      <trkpt lat="43.476350" lon="10.729038">
        <ele>202.913427</ele>
        <time>2026-05-06T23:27:26.115Z</time>
      </trkpt>
      <trkpt lat="43.476401" lon="10.729079">
        <ele>202.638085</ele>
        <time>2026-05-06T23:27:27.062Z</time>
      </trkpt>
      <trkpt lat="43.476612" lon="10.729229">
        <ele>201.530907</ele>
        <time>2026-05-06T23:27:30.793Z</time>
      </trkpt>
      <trkpt lat="43.476855" lon="10.729282">
        <ele>200.383610</ele>
        <time>2026-05-06T23:27:34.489Z</time>
      </trkpt>
      <trkpt lat="43.477054" lon="10.729352">
        <ele>199.425850</ele>
        <time>2026-05-06T23:27:37.506Z</time>
      </trkpt>
      <trkpt lat="43.477106" lon="10.729952">
        <ele>194.365938</ele>
        <time>2026-05-06T23:27:43.743Z</time>
      </trkpt>
      <trkpt lat="43.477273" lon="10.730348">
        <ele>190.210889</ele>
        <time>2026-05-06T23:27:48.365Z</time>
      </trkpt>
      <trkpt lat="43.477351" lon="10.730728">
        <ele>186.628342</ele>
        <time>2026-05-06T23:27:52.326Z</time>
      </trkpt>
      <trkpt lat="43.477387" lon="10.731189">
        <ele>182.422101</ele>
        <time>2026-05-06T23:27:56.920Z</time>
      </trkpt>
      <trkpt lat="43.477453" lon="10.731578">
        <ele>178.798001</ele>
        <time>2026-05-06T23:28:00.868Z</time>
      </trkpt>
      <trkpt lat="43.477530" lon="10.731782">
        <ele>176.711970</ele>
        <time>2026-05-06T23:28:03.153Z</time>
      </trkpt>
      <trkpt lat="43.477632" lon="10.731911">
        <ele>175.222058</ele>
        <time>2026-05-06T23:28:05.074Z</time>
      </trkpt>
      <trkpt lat="43.477760" lon="10.731927">
        <ele>173.841910</ele>
        <time>2026-05-06T23:28:06.865Z</time>
      </trkpt>
      <trkpt lat="43.477868" lon="10.732704">
        <ele>167.677320</ele>
        <time>2026-05-06T23:28:15.049Z</time>
      </trkpt>
      <trkpt lat="43.478013" lon="10.733001">
        <ele>164.888006</ele>
        <time>2026-05-06T23:28:18.840Z</time>
      </trkpt>
      <trkpt lat="43.478338" lon="10.733482">
        <ele>159.766737</ele>
        <time>2026-05-06T23:28:25.742Z</time>
      </trkpt>
      <trkpt lat="43.478491" lon="10.733721">
        <ele>157.272156</ele>
        <time>2026-05-06T23:28:29.066Z</time>
      </trkpt>
      <trkpt lat="43.478577" lon="10.733979">
        <ele>154.789605</ele>
        <time>2026-05-06T23:28:32.040Z</time>
      </trkpt>
      <trkpt lat="43.478605" lon="10.734117">
        <ele>153.536671</ele>
        <time>2026-05-06T23:28:33.531Z</time>
      </trkpt>
      <trkpt lat="43.478635" lon="10.734662">
        <ele>148.757587</ele>
        <time>2026-05-06T23:28:39.119Z</time>
      </trkpt>
      <trkpt lat="43.478857" lon="10.735729">
        <ele>139.051988</ele>
        <time>2026-05-06T23:28:50.241Z</time>
      </trkpt>
      <trkpt lat="43.478966" lon="10.736005">
        <ele>136.304425</ele>
        <time>2026-05-06T23:28:55.869Z</time>
      </trkpt>
      <trkpt lat="43.479067" lon="10.736153">
        <ele>134.791043</ele>
        <time>2026-05-06T23:28:59.505Z</time>
      </trkpt>
      <trkpt lat="43.479258" lon="10.736231">
        <ele>132.929043</ele>
        <time>2026-05-06T23:29:04.479Z</time>
      </trkpt>
      <trkpt lat="43.479503" lon="10.736427">
        <ele>130.281166</ele>
        <time>2026-05-06T23:29:11.609Z</time>
      </trkpt>
      <trkpt lat="43.479787" lon="10.736781">
        <ele>126.701912</ele>
        <time>2026-05-06T23:29:21.438Z</time>
      </trkpt>
      <trkpt lat="43.480558" lon="10.737494">
        <ele>118.383601</ele>
        <time>2026-05-06T23:29:46.769Z</time>
      </trkpt>
      <trkpt lat="43.480711" lon="10.737589">
        <ele>117.467895</ele>
        <time>2026-05-06T23:29:51.586Z</time>
      </trkpt>
      <trkpt lat="43.481628" lon="10.737671">
        <ele>112.453532</ele>
        <time>2026-05-06T23:30:18.121Z</time>
      </trkpt>
      <trkpt lat="43.481959" lon="10.737795">
        <ele>110.581808</ele>
        <time>2026-05-06T23:30:27.963Z</time>
      </trkpt>
      <trkpt lat="43.482651" lon="10.738231">
        <ele>106.686241</ele>
        <time>2026-05-06T23:30:49.632Z</time>
      </trkpt>
      <trkpt lat="43.482898" lon="10.738387">
        <ele>105.347387</ele>
        <time>2026-05-06T23:30:57.330Z</time>
      </trkpt>
      <trkpt lat="43.483882" lon="10.739474">
        <ele>99.511771</ele>
        <time>2026-05-06T23:31:34.203Z</time>
      </trkpt>
      <trkpt lat="43.483972" lon="10.739672">
        <ele>98.969788</ele>
        <time>2026-05-06T23:31:39.349Z</time>
      </trkpt>
      <trkpt lat="43.484058" lon="10.740447">
        <ele>97.151134</ele>
        <time>2026-05-06T23:31:56.714Z</time>
      </trkpt>
      <trkpt lat="43.484832" lon="10.741533">
        <ele>93.888907</ele>
        <time>2026-05-06T23:32:32.090Z</time>
      </trkpt>
      <trkpt lat="43.485750" lon="10.742762">
        <ele>91.106296</ele>
        <time>2026-05-06T23:33:15.835Z</time>
      </trkpt>
      <trkpt lat="43.486140" lon="10.742440">
        <ele>89.282411</ele>
        <time>2026-05-06T23:33:29.853Z</time>
      </trkpt>
      <trkpt lat="43.486233" lon="10.742446">
        <ele>88.688646</ele>
        <time>2026-05-06T23:33:32.612Z</time>
      </trkpt>
      <trkpt lat="43.486540" lon="10.742655">
        <ele>86.504911</ele>
        <time>2026-05-06T23:33:42.449Z</time>
      </trkpt>
      <trkpt lat="43.487638" lon="10.742537">
        <ele>79.481063</ele>
        <time>2026-05-06T23:34:11.855Z</time>
      </trkpt>
      <trkpt lat="43.488281" lon="10.742711">
        <ele>76.444410</ele>
        <time>2026-05-06T23:34:29.577Z</time>
      </trkpt>
      <trkpt lat="43.488431" lon="10.742916">
        <ele>75.504714</ele>
        <time>2026-05-06T23:34:35.583Z</time>
      </trkpt>
      <trkpt lat="43.488663" lon="10.742640">
        <ele>74.141390</ele>
        <time>2026-05-06T23:34:40.577Z</time>
      </trkpt>
      <trkpt lat="43.488954" lon="10.742356">
        <ele>72.555212</ele>
        <time>2026-05-06T23:34:46.835Z</time>
      </trkpt>
      <trkpt lat="43.490140" lon="10.741542">
        <ele>70.106781</ele>
        <time>2026-05-06T23:35:15.463Z</time>
      </trkpt>
      <trkpt lat="43.490746" lon="10.740959">
        <ele>69.384098</ele>
        <time>2026-05-06T23:35:30.667Z</time>
      </trkpt>
      <trkpt lat="43.491122" lon="10.740421">
        <ele>68.189409</ele>
        <time>2026-05-06T23:35:40.657Z</time>
      </trkpt>
      <trkpt lat="43.492287" lon="10.741250">
        <ele>65.072841</ele>
        <time>2026-05-06T23:36:05.376Z</time>
      </trkpt>
      <trkpt lat="43.493038" lon="10.741739">
        <ele>63.211514</ele>
        <time>2026-05-06T23:36:21.336Z</time>
      </trkpt>
      <trkpt lat="43.493094" lon="10.741802">
        <ele>63.049677</ele>
        <time>2026-05-06T23:36:22.716Z</time>
      </trkpt>
      <trkpt lat="43.493140" lon="10.741952">
        <ele>62.785165</ele>
        <time>2026-05-06T23:36:25.000Z</time>
      </trkpt>
      <trkpt lat="43.493034" lon="10.742283">
        <ele>62.197484</ele>
        <time>2026-05-06T23:36:30.169Z</time>
      </trkpt>
      <trkpt lat="43.493031" lon="10.742378">
        <ele>62.043034</ele>
        <time>2026-05-06T23:36:31.514Z</time>
      </trkpt>
      <trkpt lat="43.493074" lon="10.742494">
        <ele>61.831448</ele>
        <time>2026-05-06T23:36:33.364Z</time>
      </trkpt>
      <trkpt lat="43.493256" lon="10.742864">
        <ele>61.105352</ele>
        <time>2026-05-06T23:36:39.755Z</time>
      </trkpt>
      <trkpt lat="43.493383" lon="10.743099">
        <ele>60.869566</ele>
        <time>2026-05-06T23:36:43.963Z</time>
      </trkpt>
      <trkpt lat="43.492971" lon="10.743622">
        <ele>60.394463</ele>
        <time>2026-05-06T23:37:02.791Z</time>
      </trkpt>
      <trkpt lat="43.492923" lon="10.743683">
        <ele>60.339082</ele>
        <time>2026-05-06T23:37:05.029Z</time>
      </trkpt>
      <trkpt lat="43.492481" lon="10.743904">
        <ele>59.940245</ele>
        <time>2026-05-06T23:37:22.064Z</time>
      </trkpt>
      <trkpt lat="43.491897" lon="10.744449">
        <ele>59.549338</ele>
        <time>2026-05-06T23:37:49.934Z</time>
      </trkpt>
      <trkpt lat="43.491444" lon="10.745061">
        <ele>59.763328</ele>
        <time>2026-05-06T23:38:15.577Z</time>
      </trkpt>
      <trkpt lat="43.491358" lon="10.745306">
        <ele>59.829942</ele>
        <time>2026-05-06T23:38:23.460Z</time>
      </trkpt>
      <trkpt lat="43.491191" lon="10.745622">
        <ele>59.925628</ele>
        <time>2026-05-06T23:38:34.835Z</time>
      </trkpt>
      <trkpt lat="43.490938" lon="10.746390">
        <ele>60.157773</ele>
        <time>2026-05-06T23:38:59.541Z</time>
      </trkpt>
      <trkpt lat="43.490649" lon="10.747114">
        <ele>60.508868</ele>
        <time>2026-05-06T23:39:24.182Z</time>
      </trkpt>
      <trkpt lat="43.490297" lon="10.747752">
        <ele>60.849419</ele>
        <time>2026-05-06T23:39:48.686Z</time>
      </trkpt>
      <trkpt lat="43.489962" lon="10.748597">
        <ele>61.259401</ele>
        <time>2026-05-06T23:40:18.172Z</time>
      </trkpt>
      <trkpt lat="43.489202" lon="10.750165">
        <ele>62.066939</ele>
        <time>2026-05-06T23:41:14.987Z</time>
      </trkpt>
      <trkpt lat="43.488895" lon="10.750632">
        <ele>62.284764</ele>
        <time>2026-05-06T23:41:34.012Z</time>
      </trkpt>
      <trkpt lat="43.488810" lon="10.750788">
        <ele>62.333424</ele>
        <time>2026-05-06T23:41:39.851Z</time>
      </trkpt>
      <trkpt lat="43.488480" lon="10.751395">
        <ele>62.522608</ele>
        <time>2026-05-06T23:42:02.535Z</time>
      </trkpt>
      <trkpt lat="43.487597" lon="10.752600">
        <ele>62.869935</ele>
        <time>2026-05-06T23:42:51.308Z</time>
      </trkpt>
      <trkpt lat="43.487109" lon="10.753153">
        <ele>62.941735</ele>
        <time>2026-05-06T23:43:15.316Z</time>
      </trkpt>
      <trkpt lat="43.486586" lon="10.753627">
        <ele>63.012873</ele>
        <time>2026-05-06T23:43:39.466Z</time>
      </trkpt>
      <trkpt lat="43.485928" lon="10.754155">
        <ele>63.315902</ele>
        <time>2026-05-06T23:44:10.089Z</time>
      </trkpt>
      <trkpt lat="43.485192" lon="10.754431">
        <ele>63.693624</ele>
        <time>2026-05-06T23:44:41.775Z</time>
      </trkpt>
      <trkpt lat="43.484019" lon="10.754549">
        <ele>64.322042</ele>
        <time>2026-05-06T23:45:31.392Z</time>
      </trkpt>
      <trkpt lat="43.483351" lon="10.754821">
        <ele>64.712248</ele>
        <time>2026-05-06T23:45:59.848Z</time>
      </trkpt>
      <trkpt lat="43.483100" lon="10.755139">
        <ele>64.903242</ele>
        <time>2026-05-06T23:46:13.577Z</time>
      </trkpt>
      <trkpt lat="43.482752" lon="10.755189">
        <ele>65.212433</ele>
        <time>2026-05-06T23:46:27.711Z</time>
      </trkpt>
      <trkpt lat="43.482523" lon="10.755336">
        <ele>65.450431</ele>
        <time>2026-05-06T23:46:37.849Z</time>
      </trkpt>
      <trkpt lat="43.484158" lon="10.759628">
        <ele>71.554533</ele>
        <time>2026-05-06T23:49:17.769Z</time>
      </trkpt>
      <trkpt lat="43.484281" lon="10.759636">
        <ele>72.206193</ele>
        <time>2026-05-06T23:49:25.787Z</time>
      </trkpt>
      <trkpt lat="43.485443" lon="10.761387">
        <ele>82.490079</ele>
        <time>2026-05-06T23:51:45.448Z</time>
      </trkpt>
      <trkpt lat="43.485887" lon="10.762900">
        <ele>91.451364</ele>
        <time>2026-05-06T23:53:28.248Z</time>
      </trkpt>
      <trkpt lat="43.485917" lon="10.763512">
        <ele>93.967476</ele>
        <time>2026-05-06T23:54:04.189Z</time>
      </trkpt>
      <trkpt lat="43.486470" lon="10.764456">
        <ele>98.460211</ele>
        <time>2026-05-06T23:55:06.777Z</time>
      </trkpt>
      <trkpt lat="43.487335" lon="10.764466">
        <ele>101.987402</ele>
        <time>2026-05-06T23:55:56.175Z</time>
      </trkpt>
      <trkpt lat="43.487788" lon="10.765431">
        <ele>103.711832</ele>
        <time>2026-05-06T23:56:36.804Z</time>
      </trkpt>
      <trkpt lat="43.487864" lon="10.765593">
        <ele>104.001268</ele>
        <time>2026-05-06T23:56:43.325Z</time>
      </trkpt>
      <trkpt lat="43.491351" lon="10.768543">
        <ele>111.057830</ele>
        <time>2026-05-07T00:00:00.608Z</time>
      </trkpt>
      <trkpt lat="43.493608" lon="10.770936">
        <ele>115.678778</ele>
        <time>2026-05-07T00:02:15.380Z</time>
      </trkpt>
      <trkpt lat="43.494284" lon="10.771279">
        <ele>116.965308</ele>
        <time>2026-05-07T00:02:50.761Z</time>
      </trkpt>
      <trkpt lat="43.494541" lon="10.771161">
        <ele>117.733364</ele>
        <time>2026-05-07T00:03:04.672Z</time>
      </trkpt>
      <trkpt lat="43.494744" lon="10.770839">
        <ele>118.719172</ele>
        <time>2026-05-07T00:03:21.471Z</time>
      </trkpt>
      <trkpt lat="43.495016" lon="10.770303">
        <ele>120.230746</ele>
        <time>2026-05-07T00:03:48.974Z</time>
      </trkpt>
      <trkpt lat="43.495305" lon="10.770035">
        <ele>121.340259</ele>
        <time>2026-05-07T00:04:09.818Z</time>
      </trkpt>
      <trkpt lat="43.495314" lon="10.770041">
        <ele>121.372105</ele>
        <time>2026-05-07T00:04:10.450Z</time>
      </trkpt>
      <trkpt lat="43.495671" lon="10.770271">
        <ele>122.627374</ele>
        <time>2026-05-07T00:04:35.091Z</time>
      </trkpt>
      <trkpt lat="43.496371" lon="10.771515">
        <ele>126.165504</ele>
        <time>2026-05-07T00:05:43.085Z</time>
      </trkpt>
      <trkpt lat="43.496573" lon="10.772470">
        <ele>128.386956</ele>
        <time>2026-05-07T00:06:21.397Z</time>
      </trkpt>
      <trkpt lat="43.496970" lon="10.773286">
        <ele>129.311013</ele>
        <time>2026-05-07T00:06:57.227Z</time>
      </trkpt>
      <trkpt lat="43.497679" lon="10.774047">
        <ele>130.475991</ele>
        <time>2026-05-07T00:07:37.037Z</time>
      </trkpt>
      <trkpt lat="43.497788" lon="10.774294">
        <ele>130.723033</ele>
        <time>2026-05-07T00:07:44.781Z</time>
      </trkpt>
      <trkpt lat="43.497825" lon="10.774552">
        <ele>130.802833</ele>
        <time>2026-05-07T00:07:51.914Z</time>
      </trkpt>
      <trkpt lat="43.497834" lon="10.774622">
        <ele>130.824404</ele>
        <time>2026-05-07T00:07:53.856Z</time>
      </trkpt>
      <trkpt lat="43.497787" lon="10.774919">
        <ele>130.916641</ele>
        <time>2026-05-07T00:08:02.230Z</time>
      </trkpt>
      <trkpt lat="43.497807" lon="10.775632">
        <ele>131.133148</ele>
        <time>2026-05-07T00:08:22.663Z</time>
      </trkpt>
      <trkpt lat="43.497857" lon="10.777239">
        <ele>131.229180</ele>
        <time>2026-05-07T00:09:13.004Z</time>
      </trkpt>
      <trkpt lat="43.497903" lon="10.778199">
        <ele>130.795220</ele>
        <time>2026-05-07T00:09:40.009Z</time>
      </trkpt>
      <trkpt lat="43.497805" lon="10.778769">
        <ele>130.530993</ele>
        <time>2026-05-07T00:09:54.473Z</time>
      </trkpt>
      <trkpt lat="43.497630" lon="10.782215">
        <ele>124.774524</ele>
        <time>2026-05-07T00:11:13.857Z</time>
      </trkpt>
      <trkpt lat="43.497543" lon="10.782396">
        <ele>124.469910</ele>
        <time>2026-05-07T00:11:18.643Z</time>
      </trkpt>
      <trkpt lat="43.497406" lon="10.782531">
        <ele>124.144223</ele>
        <time>2026-05-07T00:11:23.799Z</time>
      </trkpt>
      <trkpt lat="43.496597" lon="10.783021">
        <ele>122.435268</ele>
        <time>2026-05-07T00:11:52.237Z</time>
      </trkpt>
      <trkpt lat="43.496130" lon="10.783107">
        <ele>123.124694</ele>
        <time>2026-05-07T00:12:12.130Z</time>
      </trkpt>
      <trkpt lat="43.495719" lon="10.783021">
        <ele>124.612243</ele>
        <time>2026-05-07T00:12:35.743Z</time>
      </trkpt>
      <trkpt lat="43.495383" lon="10.783150">
        <ele>125.860330</ele>
        <time>2026-05-07T00:12:59.526Z</time>
      </trkpt>
      <trkpt lat="43.494430" lon="10.783879">
        <ele>128.784307</ele>
        <time>2026-05-07T00:14:18.244Z</time>
      </trkpt>
      <trkpt lat="43.493928" lon="10.784340">
        <ele>129.241743</ele>
        <time>2026-05-07T00:14:48.789Z</time>
      </trkpt>
      <trkpt lat="43.493888" lon="10.784377">
        <ele>129.278274</ele>
        <time>2026-05-07T00:14:50.641Z</time>
      </trkpt>
      <trkpt lat="43.493789" lon="10.784755">
        <ele>129.499366</ele>
        <time>2026-05-07T00:15:00.890Z</time>
      </trkpt>
      <trkpt lat="43.493582" lon="10.785887">
        <ele>128.684577</ele>
        <time>2026-05-07T00:15:27.058Z</time>
      </trkpt>
      <trkpt lat="43.493545" lon="10.786094">
        <ele>128.133759</ele>
        <time>2026-05-07T00:15:31.619Z</time>
      </trkpt>
      <trkpt lat="43.493506" lon="10.786309">
        <ele>127.561165</ele>
        <time>2026-05-07T00:15:36.361Z</time>
      </trkpt>
      <trkpt lat="43.493272" lon="10.787465">
        <ele>124.460328</ele>
        <time>2026-05-07T00:16:02.993Z</time>
      </trkpt>
      <trkpt lat="43.493207" lon="10.787642">
        <ele>123.947759</ele>
        <time>2026-05-07T00:16:07.572Z</time>
      </trkpt>
      <trkpt lat="43.493150" lon="10.787799">
        <ele>123.494157</ele>
        <time>2026-05-07T00:16:11.657Z</time>
      </trkpt>
      <trkpt lat="43.492493" lon="10.788917">
        <ele>117.406070</ele>
        <time>2026-05-07T00:16:42.003Z</time>
      </trkpt>
      <trkpt lat="43.493012" lon="10.789041">
        <ele>114.329170</ele>
        <time>2026-05-07T00:16:49.911Z</time>
      </trkpt>
      <trkpt lat="43.493393" lon="10.789416">
        <ele>111.181195</ele>
        <time>2026-05-07T00:16:56.799Z</time>
      </trkpt>
      <trkpt lat="43.494542" lon="10.791503">
        <ele>97.649978</ele>
        <time>2026-05-07T00:17:25.170Z</time>
      </trkpt>
      <trkpt lat="43.494706" lon="10.791750">
        <ele>96.451638</ele>
        <time>2026-05-07T00:17:29.006Z</time>
      </trkpt>
      <trkpt lat="43.496040" lon="10.791916">
        <ele>90.003229</ele>
        <time>2026-05-07T00:17:51.316Z</time>
      </trkpt>
      <trkpt lat="43.496355" lon="10.791911">
        <ele>88.861801</ele>
        <time>2026-05-07T00:17:56.676Z</time>
      </trkpt>
      <trkpt lat="43.496706" lon="10.791739">
        <ele>87.512045</ele>
        <time>2026-05-07T00:18:02.927Z</time>
      </trkpt>
      <trkpt lat="43.497764" lon="10.790645">
        <ele>83.432331</ele>
        <time>2026-05-07T00:18:25.282Z</time>
      </trkpt>
      <trkpt lat="43.498052" lon="10.790774">
        <ele>82.982549</ele>
        <time>2026-05-07T00:18:30.641Z</time>
      </trkpt>
      <trkpt lat="43.502348" lon="10.795763">
        <ele>76.290636</ele>
        <time>2026-05-07T00:20:23.436Z</time>
      </trkpt>
      <trkpt lat="43.502688" lon="10.796306">
        <ele>76.083784</ele>
        <time>2026-05-07T00:20:35.639Z</time>
      </trkpt>
      <trkpt lat="43.502795" lon="10.796442">
        <ele>76.025926</ele>
        <time>2026-05-07T00:20:39.263Z</time>
      </trkpt>
      <trkpt lat="43.502893" lon="10.796513">
        <ele>75.981914</ele>
        <time>2026-05-07T00:20:42.076Z</time>
      </trkpt>
      <trkpt lat="43.503023" lon="10.796516">
        <ele>75.930225</ele>
        <time>2026-05-07T00:20:45.452Z</time>
      </trkpt>
      <trkpt lat="43.503137" lon="10.796519">
        <ele>75.957141</ele>
        <time>2026-05-07T00:20:48.501Z</time>
      </trkpt>
      <trkpt lat="43.505215" lon="10.795135">
        <ele>76.810114</ele>
        <time>2026-05-07T00:21:49.298Z</time>
      </trkpt>
      <trkpt lat="43.507191" lon="10.791262">
        <ele>75.684248</ele>
        <time>2026-05-07T00:23:04.067Z</time>
      </trkpt>
      <trkpt lat="43.509090" lon="10.790157">
        <ele>74.662576</ele>
        <time>2026-05-07T00:23:46.007Z</time>
      </trkpt>
      <trkpt lat="43.509187" lon="10.790008">
        <ele>74.678461</ele>
        <time>2026-05-07T00:23:49.783Z</time>
      </trkpt>
      <trkpt lat="43.509217" lon="10.789902">
        <ele>74.687487</ele>
        <time>2026-05-07T00:23:51.906Z</time>
      </trkpt>
      <trkpt lat="43.509257" lon="10.789694">
        <ele>74.704559</ele>
        <time>2026-05-07T00:23:56.179Z</time>
      </trkpt>
      <trkpt lat="43.509287" lon="10.789592">
        <ele>74.713291</ele>
        <time>2026-05-07T00:23:58.495Z</time>
      </trkpt>
      <trkpt lat="43.509383" lon="10.789475">
        <ele>74.727306</ele>
        <time>2026-05-07T00:24:02.107Z</time>
      </trkpt>
      <trkpt lat="43.510231" lon="10.789229">
        <ele>74.782522</ele>
        <time>2026-05-07T00:24:27.706Z</time>
      </trkpt>
      <trkpt lat="43.511974" lon="10.789535">
        <ele>74.602539</ele>
        <time>2026-05-07T00:25:06.188Z</time>
      </trkpt>
      <trkpt lat="43.514485" lon="10.789969">
        <ele>73.076303</ele>
        <time>2026-05-07T00:25:59.790Z</time>
      </trkpt>
      <trkpt lat="43.517673" lon="10.790458">
        <ele>70.751824</ele>
        <time>2026-05-07T00:27:07.102Z</time>
      </trkpt>
      <trkpt lat="43.517953" lon="10.790481">
        <ele>70.495556</ele>
        <time>2026-05-07T00:27:12.791Z</time>
      </trkpt>
      <trkpt lat="43.518263" lon="10.790353">
        <ele>70.199909</ele>
        <time>2026-05-07T00:27:19.299Z</time>
      </trkpt>
      <trkpt lat="43.518882" lon="10.789769">
        <ele>69.465811</ele>
        <time>2026-05-07T00:27:34.246Z</time>
      </trkpt>
      <trkpt lat="43.519518" lon="10.789074">
        <ele>68.529934</ele>
        <time>2026-05-07T00:27:50.441Z</time>
      </trkpt>
      <trkpt lat="43.520528" lon="10.787183">
        <ele>66.615385</ele>
        <time>2026-05-07T00:28:24.453Z</time>
      </trkpt>
      <trkpt lat="43.521251" lon="10.785987">
        <ele>65.534958</ele>
        <time>2026-05-07T00:28:47.044Z</time>
      </trkpt>
      <trkpt lat="43.521493" lon="10.785763">
        <ele>65.401917</ele>
        <time>2026-05-07T00:28:53.193Z</time>
      </trkpt>
      <trkpt lat="43.521618" lon="10.785692">
        <ele>65.340208</ele>
        <time>2026-05-07T00:28:56.107Z</time>
      </trkpt>
      <trkpt lat="43.522368" lon="10.785248">
        <ele>64.967645</ele>
        <time>2026-05-07T00:29:14.464Z</time>
      </trkpt>
      <trkpt lat="43.523101" lon="10.784824">
        <ele>64.606552</ele>
        <time>2026-05-07T00:29:32.217Z</time>
      </trkpt>
      <trkpt lat="43.523296" lon="10.784679">
        <ele>64.506214</ele>
        <time>2026-05-07T00:29:36.939Z</time>
      </trkpt>
      <trkpt lat="43.523773" lon="10.784387">
        <ele>64.269848</ele>
        <time>2026-05-07T00:29:47.873Z</time>
      </trkpt>
      <trkpt lat="43.524030" lon="10.783990">
        <ele>64.095072</ele>
        <time>2026-05-07T00:29:55.679Z</time>
      </trkpt>
      <trkpt lat="43.524888" lon="10.782257">
        <ele>64.288793</ele>
        <time>2026-05-07T00:30:30.501Z</time>
      </trkpt>
      <trkpt lat="43.525965" lon="10.781195">
        <ele>64.601861</ele>
        <time>2026-05-07T00:31:09.975Z</time>
      </trkpt>
      <trkpt lat="43.528992" lon="10.778439">
        <ele>63.395656</ele>
        <time>2026-05-07T00:32:27.714Z</time>
      </trkpt>
      <trkpt lat="43.529342" lon="10.778003">
        <ele>63.106720</ele>
        <time>2026-05-07T00:32:37.517Z</time>
      </trkpt>
      <trkpt lat="43.530406" lon="10.776680">
        <ele>62.531717</ele>
        <time>2026-05-07T00:33:07.560Z</time>
      </trkpt>
      <trkpt lat="43.530467" lon="10.776604">
        <ele>62.506180</ele>
        <time>2026-05-07T00:33:09.354Z</time>
      </trkpt>
      <trkpt lat="43.532027" lon="10.774717">
        <ele>62.220974</ele>
        <time>2026-05-07T00:33:59.613Z</time>
      </trkpt>
      <trkpt lat="43.532091" lon="10.774639">
        <ele>62.217000</ele>
        <time>2026-05-07T00:34:01.557Z</time>
      </trkpt>
      <trkpt lat="43.535278" lon="10.768820">
        <ele>58.560034</ele>
        <time>2026-05-07T00:35:52.008Z</time>
      </trkpt>
      <trkpt lat="43.536020" lon="10.767856">
        <ele>57.730452</ele>
        <time>2026-05-07T00:36:12.426Z</time>
      </trkpt>
      <trkpt lat="43.536545" lon="10.767243">
        <ele>57.176060</ele>
        <time>2026-05-07T00:36:26.112Z</time>
      </trkpt>
      <trkpt lat="43.536959" lon="10.767032">
        <ele>56.820327</ele>
        <time>2026-05-07T00:36:35.261Z</time>
      </trkpt>
      <trkpt lat="43.538781" lon="10.766345">
        <ele>57.438408</ele>
        <time>2026-05-07T00:37:25.151Z</time>
      </trkpt>
      <trkpt lat="43.540699" lon="10.765714">
        <ele>57.751655</ele>
        <time>2026-05-07T00:38:14.291Z</time>
      </trkpt>
      <trkpt lat="43.543100" lon="10.764967">
        <ele>55.633868</ele>
        <time>2026-05-07T00:39:04.504Z</time>
      </trkpt>
      <trkpt lat="43.543497" lon="10.764739">
        <ele>55.144538</ele>
        <time>2026-05-07T00:39:12.957Z</time>
      </trkpt>
      <trkpt lat="43.543763" lon="10.764530">
        <ele>54.796206</ele>
        <time>2026-05-07T00:39:18.933Z</time>
      </trkpt>
      <trkpt lat="43.545961" lon="10.762804">
        <ele>52.386731</ele>
        <time>2026-05-07T00:40:08.745Z</time>
      </trkpt>
      <trkpt lat="43.546096" lon="10.762701">
        <ele>52.423379</ele>
        <time>2026-05-07T00:40:12.199Z</time>
      </trkpt>
      <trkpt lat="43.547770" lon="10.761593">
        <ele>53.750993</ele>
        <time>2026-05-07T00:41:05.966Z</time>
      </trkpt>
      <trkpt lat="43.548085" lon="10.761576">
        <ele>54.228234</ele>
        <time>2026-05-07T00:41:16.849Z</time>
      </trkpt>
      <trkpt lat="43.548716" lon="10.761716">
        <ele>55.195773</ele>
        <time>2026-05-07T00:41:38.854Z</time>
      </trkpt>
      <trkpt lat="43.548775" lon="10.761696">
        <ele>55.287749</ele>
        <time>2026-05-07T00:41:40.978Z</time>
      </trkpt>
      <trkpt lat="43.548883" lon="10.761576">
        <ele>55.470517</ele>
        <time>2026-05-07T00:41:45.879Z</time>
      </trkpt>
      <trkpt lat="43.549257" lon="10.761280">
        <ele>55.887762</ele>
        <time>2026-05-07T00:42:00.757Z</time>
      </trkpt>
      <trkpt lat="43.549700" lon="10.760979">
        <ele>56.365624</ele>
        <time>2026-05-07T00:42:16.435Z</time>
      </trkpt>
      <trkpt lat="43.549945" lon="10.760813">
        <ele>56.629760</ele>
        <time>2026-05-07T00:42:24.183Z</time>
      </trkpt>
      <trkpt lat="43.550289" lon="10.760587">
        <ele>56.998467</ele>
        <time>2026-05-07T00:42:34.204Z</time>
      </trkpt>
      <trkpt lat="43.550897" lon="10.760270">
        <ele>56.989664</ele>
        <time>2026-05-07T00:42:49.820Z</time>
      </trkpt>
      <trkpt lat="43.551029" lon="10.760140">
        <ele>56.931103</ele>
        <time>2026-05-07T00:42:53.567Z</time>
      </trkpt>
      <trkpt lat="43.551561" lon="10.759476">
        <ele>56.672067</ele>
        <time>2026-05-07T00:43:09.820Z</time>
      </trkpt>
      <trkpt lat="43.551885" lon="10.759222">
        <ele>56.537508</ele>
        <time>2026-05-07T00:43:18.113Z</time>
      </trkpt>
      <trkpt lat="43.552006" lon="10.759086">
        <ele>56.520685</ele>
        <time>2026-05-07T00:43:21.538Z</time>
      </trkpt>
      <trkpt lat="43.552376" lon="10.758288">
        <ele>56.575768</ele>
        <time>2026-05-07T00:43:37.252Z</time>
      </trkpt>
      <trkpt lat="43.552592" lon="10.757964">
        <ele>56.601365</ele>
        <time>2026-05-07T00:43:45.135Z</time>
      </trkpt>
      <trkpt lat="43.553180" lon="10.757338">
        <ele>56.670443</ele>
        <time>2026-05-07T00:44:05.798Z</time>
      </trkpt>
      <trkpt lat="43.553345" lon="10.757192">
        <ele>56.733586</ele>
        <time>2026-05-07T00:44:11.609Z</time>
      </trkpt>
      <trkpt lat="43.553728" lon="10.756939">
        <ele>56.870377</ele>
        <time>2026-05-07T00:44:24.904Z</time>
      </trkpt>
      <trkpt lat="43.554610" lon="10.756548">
        <ele>57.168810</ele>
        <time>2026-05-07T00:44:49.545Z</time>
      </trkpt>
      <trkpt lat="43.554980" lon="10.756301">
        <ele>56.980830</ele>
        <time>2026-05-07T00:44:58.589Z</time>
      </trkpt>
      <trkpt lat="43.555130" lon="10.756163">
        <ele>56.748166</ele>
        <time>2026-05-07T00:45:02.447Z</time>
      </trkpt>
      <trkpt lat="43.555258" lon="10.755985">
        <ele>56.513639</ele>
        <time>2026-05-07T00:45:06.258Z</time>
      </trkpt>
      <trkpt lat="43.555618" lon="10.755330">
        <ele>55.744789</ele>
        <time>2026-05-07T00:45:18.393Z</time>
      </trkpt>
      <trkpt lat="43.556002" lon="10.754391">
        <ele>54.766874</ele>
        <time>2026-05-07T00:45:34.220Z</time>
      </trkpt>
      <trkpt lat="43.556102" lon="10.754165">
        <ele>54.561245</ele>
        <time>2026-05-07T00:45:38.172Z</time>
      </trkpt>
      <trkpt lat="43.556404" lon="10.753631">
        <ele>54.035237</ele>
        <time>2026-05-07T00:45:48.483Z</time>
      </trkpt>
      <trkpt lat="43.556728" lon="10.752839">
        <ele>53.328980</ele>
        <time>2026-05-07T00:46:02.877Z</time>
      </trkpt>
      <trkpt lat="43.556891" lon="10.752622">
        <ele>53.086279</ele>
        <time>2026-05-07T00:46:07.920Z</time>
      </trkpt>
      <trkpt lat="43.557535" lon="10.752170">
        <ele>52.257282</ele>
        <time>2026-05-07T00:46:23.735Z</time>
      </trkpt>
      <trkpt lat="43.557728" lon="10.751991">
        <ele>51.987925</ele>
        <time>2026-05-07T00:46:28.680Z</time>
      </trkpt>
      <trkpt lat="43.558086" lon="10.751588">
        <ele>51.452770</ele>
        <time>2026-05-07T00:46:38.295Z</time>
      </trkpt>
      <trkpt lat="43.558580" lon="10.750791">
        <ele>50.669212</ele>
        <time>2026-05-07T00:46:53.891Z</time>
      </trkpt>
      <trkpt lat="43.558606" lon="10.750749">
        <ele>50.636328</ele>
        <time>2026-05-07T00:46:54.709Z</time>
      </trkpt>
      <trkpt lat="43.558615" lon="10.750737">
        <ele>50.626047</ele>
        <time>2026-05-07T00:46:54.970Z</time>
      </trkpt>
      <trkpt lat="43.558839" lon="10.750442">
        <ele>50.371681</ele>
        <time>2026-05-07T00:47:01.434Z</time>
      </trkpt>
      <trkpt lat="43.557419" lon="10.747756">
        <ele>48.780981</ele>
        <time>2026-05-07T00:48:29.537Z</time>
      </trkpt>
      <trkpt lat="43.557053" lon="10.747040">
        <ele>48.446780</ele>
        <time>2026-05-07T00:48:52.936Z</time>
      </trkpt>
      <trkpt lat="43.557053" lon="10.747040">
        <ele>48.446780</ele>
        <time>2026-05-07T00:48:52.945Z</time>
      </trkpt>
      <trkpt lat="43.556565" lon="10.746238">
        <ele>47.991578</ele>
        <time>2026-05-07T00:49:25.403Z</time>
      </trkpt>
      <trkpt lat="43.556077" lon="10.745436">
        <ele>47.536373</ele>
        <time>2026-05-07T00:49:57.860Z</time>
      </trkpt>
      <trkpt lat="43.555589" lon="10.744635">
        <ele>49.832060</ele>
        <time>2026-05-07T00:50:30.293Z</time>
      </trkpt>
      <trkpt lat="43.554953" lon="10.744860">
        <ele>52.583860</ele>
        <time>2026-05-07T00:50:58.391Z</time>
      </trkpt>
      <trkpt lat="43.554317" lon="10.745085">
        <ele>55.780256</ele>
        <time>2026-05-07T00:51:26.541Z</time>
      </trkpt>
      <trkpt lat="43.553681" lon="10.745310">
        <ele>61.826384</ele>
        <time>2026-05-07T00:51:54.743Z</time>
      </trkpt>
      <trkpt lat="43.553681" lon="10.745310">
        <ele>61.826384</ele>
        <time>2026-05-07T00:51:54.754Z</time>
      </trkpt>
      <trkpt lat="43.553044" lon="10.745351">
        <ele>67.698667</ele>
        <time>2026-05-07T00:52:22.143Z</time>
      </trkpt>
      <trkpt lat="43.552408" lon="10.745393">
        <ele>72.886008</ele>
        <time>2026-05-07T00:52:49.450Z</time>
      </trkpt>
      <trkpt lat="43.551772" lon="10.745435">
        <ele>76.801229</ele>
        <time>2026-05-07T00:53:16.721Z</time>
      </trkpt>
      <trkpt lat="43.551112" lon="10.745460">
        <ele>80.861078</ele>
        <time>2026-05-07T00:53:44.988Z</time>
      </trkpt>
      <trkpt lat="43.550453" lon="10.745485">
        <ele>85.043873</ele>
        <time>2026-05-07T00:54:13.217Z</time>
      </trkpt>
      <trkpt lat="43.550453" lon="10.745485">
        <ele>85.043873</ele>
        <time>2026-05-07T00:54:13.224Z</time>
      </trkpt>
      <trkpt lat="43.549806" lon="10.745902">
        <ele>89.678439</ele>
        <time>2026-05-07T00:54:43.806Z</time>
      </trkpt>
      <trkpt lat="43.549160" lon="10.746319">
        <ele>94.333031</ele>
        <time>2026-05-07T00:55:14.376Z</time>
      </trkpt>
      <trkpt lat="43.548519" lon="10.746847">
        <ele>101.859167</ele>
        <time>2026-05-07T00:55:46.400Z</time>
      </trkpt>
      <trkpt lat="43.547878" lon="10.747376">
        <ele>109.389072</ele>
        <time>2026-05-07T00:56:18.503Z</time>
      </trkpt>
      <trkpt lat="43.547238" lon="10.747904">
        <ele>116.794479</ele>
        <time>2026-05-07T00:56:50.584Z</time>
      </trkpt>
      <trkpt lat="43.546597" lon="10.748432">
        <ele>124.133728</ele>
        <time>2026-05-07T00:57:22.647Z</time>
      </trkpt>
      <trkpt lat="43.546409" lon="10.748572">
        <ele>126.233969</ele>
        <time>2026-05-07T00:57:42.329Z</time>
      </trkpt>
      <trkpt lat="43.546356" lon="10.748595">
        <ele>126.780172</ele>
        <time>2026-05-07T00:57:47.464Z</time>
      </trkpt>
      <trkpt lat="43.546295" lon="10.748580">
        <ele>127.389305</ele>
        <time>2026-05-07T00:57:53.097Z</time>
      </trkpt>
      <trkpt lat="43.545966" lon="10.748171">
        <ele>130.639255</ele>
        <time>2026-05-07T00:58:31.010Z</time>
      </trkpt>
      <trkpt lat="43.545839" lon="10.748190">
        <ele>131.064004</ele>
        <time>2026-05-07T00:58:41.099Z</time>
      </trkpt>
      <trkpt lat="43.545605" lon="10.747947">
        <ele>132.037825</ele>
        <time>2026-05-07T00:59:01.469Z</time>
      </trkpt>
      <trkpt lat="43.545135" lon="10.747603">
        <ele>133.806865</ele>
        <time>2026-05-07T00:59:33.993Z</time>
      </trkpt>
      <trkpt lat="43.544952" lon="10.747415">
        <ele>134.565502</ele>
        <time>2026-05-07T00:59:46.880Z</time>
      </trkpt>
      <trkpt lat="43.543779" lon="10.745672">
        <ele>133.540616</ele>
        <time>2026-05-07T01:00:45.265Z</time>
      </trkpt>
      <trkpt lat="43.543695" lon="10.745273">
        <ele>132.946930</ele>
        <time>2026-05-07T01:00:54.488Z</time>
      </trkpt>
      <trkpt lat="43.543835" lon="10.744579">
        <ele>131.454188</ele>
        <time>2026-05-07T01:01:10.483Z</time>
      </trkpt>
      <trkpt lat="43.543851" lon="10.744257">
        <ele>130.632236</ele>
        <time>2026-05-07T01:01:17.478Z</time>
      </trkpt>
      <trkpt lat="43.543946" lon="10.743692">
        <ele>129.155166</ele>
        <time>2026-05-07T01:01:30.221Z</time>
      </trkpt>
      <trkpt lat="43.543946" lon="10.743182">
        <ele>127.856368</ele>
        <time>2026-05-07T01:01:41.636Z</time>
      </trkpt>
      <trkpt lat="43.543960" lon="10.742806">
        <ele>126.897560</ele>
        <time>2026-05-07T01:01:50.002Z</time>
      </trkpt>
      <trkpt lat="43.544136" lon="10.742236">
        <ele>125.633558</ele>
        <time>2026-05-07T01:02:03.619Z</time>
      </trkpt>
      <trkpt lat="43.544251" lon="10.741698">
        <ele>124.719827</ele>
        <time>2026-05-07T01:02:15.940Z</time>
      </trkpt>
      <trkpt lat="43.544620" lon="10.740678">
        <ele>122.862771</ele>
        <time>2026-05-07T01:02:43.157Z</time>
      </trkpt>
      <trkpt lat="43.544731" lon="10.740421">
        <ele>122.375426</ele>
        <time>2026-05-07T01:02:50.988Z</time>
      </trkpt>
      <trkpt lat="43.545043" lon="10.739840">
        <ele>120.712943</ele>
        <time>2026-05-07T01:03:10.602Z</time>
      </trkpt>
      <trkpt lat="43.545209" lon="10.739378">
        <ele>119.444851</ele>
        <time>2026-05-07T01:03:23.666Z</time>
      </trkpt>
      <trkpt lat="43.545286" lon="10.739254">
        <ele>119.043305</ele>
        <time>2026-05-07T01:03:27.493Z</time>
      </trkpt>
      <trkpt lat="43.545711" lon="10.738845">
        <ele>117.285220</ele>
        <time>2026-05-07T01:03:43.134Z</time>
      </trkpt>
      <trkpt lat="43.545773" lon="10.738665">
        <ele>116.795126</ele>
        <time>2026-05-07T01:03:47.217Z</time>
      </trkpt>
      <trkpt lat="43.545905" lon="10.737961">
        <ele>113.021746</ele>
        <time>2026-05-07T01:04:01.395Z</time>
      </trkpt>
      <trkpt lat="43.546457" lon="10.736518">
        <ele>101.343167</ele>
        <time>2026-05-07T01:04:31.511Z</time>
      </trkpt>
      <trkpt lat="43.546437" lon="10.736251">
        <ele>99.421921</ele>
        <time>2026-05-07T01:04:36.436Z</time>
      </trkpt>
      <trkpt lat="43.546287" lon="10.735543">
        <ele>94.152602</ele>
        <time>2026-05-07T01:04:50.040Z</time>
      </trkpt>
      <trkpt lat="43.546047" lon="10.734863">
        <ele>88.752530</ele>
        <time>2026-05-07T01:05:04.121Z</time>
      </trkpt>
      <trkpt lat="43.545956" lon="10.734358">
        <ele>85.037158</ele>
        <time>2026-05-07T01:05:13.912Z</time>
      </trkpt>
      <trkpt lat="43.545947" lon="10.734136">
        <ele>83.449636</ele>
        <time>2026-05-07T01:05:18.124Z</time>
      </trkpt>
      <trkpt lat="43.545959" lon="10.733909">
        <ele>81.824588</ele>
        <time>2026-05-07T01:05:22.461Z</time>
      </trkpt>
      <trkpt lat="43.546014" lon="10.733578">
        <ele>79.613235</ele>
        <time>2026-05-07T01:05:28.930Z</time>
      </trkpt>
      <trkpt lat="43.546341" lon="10.732411">
        <ele>72.312667</ele>
        <time>2026-05-07T01:05:52.950Z</time>
      </trkpt>
      <trkpt lat="43.546394" lon="10.731954">
        <ele>69.612162</ele>
        <time>2026-05-07T01:06:02.006Z</time>
      </trkpt>
      <trkpt lat="43.546630" lon="10.731015">
        <ele>64.386580</ele>
        <time>2026-05-07T01:06:21.575Z</time>
      </trkpt>
      <trkpt lat="43.546853" lon="10.730584">
        <ele>62.075913</ele>
        <time>2026-05-07T01:06:32.078Z</time>
      </trkpt>
      <trkpt lat="43.547250" lon="10.729940">
        <ele>58.386929</ele>
        <time>2026-05-07T01:06:49.062Z</time>
      </trkpt>
      <trkpt lat="43.547659" lon="10.729140">
        <ele>55.202118</ele>
        <time>2026-05-07T01:07:09.574Z</time>
      </trkpt>
      <trkpt lat="43.547941" lon="10.728602">
        <ele>55.057768</ele>
        <time>2026-05-07T01:07:24.974Z</time>
      </trkpt>
      <trkpt lat="43.548069" lon="10.728343">
        <ele>54.989613</ele>
        <time>2026-05-07T01:07:33.052Z</time>
      </trkpt>
      <trkpt lat="43.548123" lon="10.728153">
        <ele>54.945243</ele>
        <time>2026-05-07T01:07:38.754Z</time>
      </trkpt>
      <trkpt lat="43.548146" lon="10.727947">
        <ele>54.899928</ele>
        <time>2026-05-07T01:07:45.194Z</time>
      </trkpt>
      <trkpt lat="43.548123" lon="10.727748">
        <ele>54.856116</ele>
        <time>2026-05-07T01:07:52.047Z</time>
      </trkpt>
      <trkpt lat="43.547834" lon="10.726633">
        <ele>57.698583</ele>
        <time>2026-05-07T01:08:42.714Z</time>
      </trkpt>
      <trkpt lat="43.547674" lon="10.726266">
        <ele>59.992452</ele>
        <time>2026-05-07T01:09:06.110Z</time>
      </trkpt>
      <trkpt lat="43.547626" lon="10.726215">
        <ele>60.440149</ele>
        <time>2026-05-07T01:09:10.930Z</time>
      </trkpt>
      <trkpt lat="43.547503" lon="10.726191">
        <ele>61.358128</ele>
        <time>2026-05-07T01:09:21.319Z</time>
      </trkpt>
      <trkpt lat="43.547190" lon="10.726269">
        <ele>63.708533</ele>
        <time>2026-05-07T01:09:49.873Z</time>
      </trkpt>
      <trkpt lat="43.547120" lon="10.726253">
        <ele>64.232863</ele>
        <time>2026-05-07T01:09:56.650Z</time>
      </trkpt>
      <trkpt lat="43.546235" lon="10.725552">
        <ele>73.100323</ele>
        <time>2026-05-07T01:11:40.877Z</time>
      </trkpt>
      <trkpt lat="43.546176" lon="10.725552">
        <ele>73.690000</ele>
        <time>2026-05-07T01:11:47.236Z</time>
      </trkpt>
      <trkpt lat="43.546104" lon="10.725608">
        <ele>74.516079</ele>
        <time>2026-05-07T01:11:56.279Z</time>
      </trkpt>
      <trkpt lat="43.545874" lon="10.725995">
        <ele>78.141539</ele>
        <time>2026-05-07T01:12:34.580Z</time>
      </trkpt>
      <trkpt lat="43.545683" lon="10.726137">
        <ele>80.310018</ele>
        <time>2026-05-07T01:12:56.458Z</time>
      </trkpt>
      <trkpt lat="43.545591" lon="10.726205">
        <ele>81.353158</ele>
        <time>2026-05-07T01:13:06.751Z</time>
      </trkpt>
      <trkpt lat="43.545483" lon="10.726194">
        <ele>82.435504</ele>
        <time>2026-05-07T01:13:17.256Z</time>
      </trkpt>
      <trkpt lat="43.544122" lon="10.724977">
        <ele>96.824037</ele>
        <time>2026-05-07T01:15:37.029Z</time>
      </trkpt>
      <trkpt lat="43.543721" lon="10.724587">
        <ele>101.022051</ele>
        <time>2026-05-07T01:16:22.586Z</time>
      </trkpt>
      <trkpt lat="43.543684" lon="10.724489">
        <ele>101.728622</ele>
        <time>2026-05-07T01:16:30.180Z</time>
      </trkpt>
      <trkpt lat="43.543689" lon="10.724345">
        <ele>102.680379</ele>
        <time>2026-05-07T01:16:40.295Z</time>
      </trkpt>
      <trkpt lat="43.543782" lon="10.724029">
        <ele>104.931964</ele>
        <time>2026-05-07T01:17:04.810Z</time>
      </trkpt>
      <trkpt lat="43.544010" lon="10.723564">
        <ele>108.638210</ele>
        <time>2026-05-07T01:17:45.921Z</time>
      </trkpt>
      <trkpt lat="43.544057" lon="10.723394">
        <ele>109.839386</ele>
        <time>2026-05-07T01:17:59.670Z</time>
      </trkpt>
      <trkpt lat="43.544047" lon="10.723117">
        <ele>111.670355</ele>
        <time>2026-05-07T01:18:20.760Z</time>
      </trkpt>
      <trkpt lat="43.544088" lon="10.722878">
        <ele>113.291776</ele>
        <time>2026-05-07T01:18:37.213Z</time>
      </trkpt>
      <trkpt lat="43.544272" lon="10.722417">
        <ele>116.766104</ele>
        <time>2026-05-07T01:19:05.935Z</time>
      </trkpt>
      <trkpt lat="43.544364" lon="10.722250">
        <ele>117.897525</ele>
        <time>2026-05-07T01:19:14.908Z</time>
      </trkpt>
      <trkpt lat="43.544497" lon="10.721996">
        <ele>118.627225</ele>
        <time>2026-05-07T01:19:26.343Z</time>
      </trkpt>
      <trkpt lat="43.544719" lon="10.721754">
        <ele>119.536237</ele>
        <time>2026-05-07T01:19:38.640Z</time>
      </trkpt>
      <trkpt lat="43.544801" lon="10.721668">
        <ele>119.867166</ele>
        <time>2026-05-07T01:19:42.626Z</time>
      </trkpt>
      <trkpt lat="43.545250" lon="10.721437">
        <ele>121.406742</ele>
        <time>2026-05-07T01:19:57.591Z</time>
      </trkpt>
      <trkpt lat="43.545273" lon="10.721426">
        <ele>121.484950</ele>
        <time>2026-05-07T01:19:58.268Z</time>
      </trkpt>
      <trkpt lat="43.545312" lon="10.721408">
        <ele>121.617074</ele>
        <time>2026-05-07T01:19:59.369Z</time>
      </trkpt>
      <trkpt lat="43.545685" lon="10.721232">
        <ele>122.883591</ele>
        <time>2026-05-07T01:20:10.974Z</time>
      </trkpt>
      <trkpt lat="43.545824" lon="10.721104">
        <ele>123.420507</ele>
        <time>2026-05-07T01:20:16.830Z</time>
      </trkpt>
      <trkpt lat="43.546247" lon="10.721123">
        <ele>126.032957</ele>
        <time>2026-05-07T01:20:35.336Z</time>
      </trkpt>
      <trkpt lat="43.546331" lon="10.721123">
        <ele>126.575004</ele>
        <time>2026-05-07T01:20:40.019Z</time>
      </trkpt>
      <trkpt lat="43.546484" lon="10.721109">
        <ele>127.564473</ele>
        <time>2026-05-07T01:20:49.186Z</time>
      </trkpt>
      <trkpt lat="43.546561" lon="10.721098">
        <ele>128.064006</ele>
        <time>2026-05-07T01:20:54.125Z</time>
      </trkpt>
      <trkpt lat="43.546802" lon="10.721026">
        <ele>129.655208</ele>
        <time>2026-05-07T01:21:10.996Z</time>
      </trkpt>
      <trkpt lat="43.547028" lon="10.721004">
        <ele>131.117198</ele>
        <time>2026-05-07T01:21:27.177Z</time>
      </trkpt>
      <trkpt lat="43.547058" lon="10.721006">
        <ele>131.311012</ele>
        <time>2026-05-07T01:21:29.342Z</time>
      </trkpt>
      <trkpt lat="43.547071" lon="10.721006">
        <ele>131.394900</ele>
        <time>2026-05-07T01:21:30.344Z</time>
      </trkpt>
      <trkpt lat="43.547114" lon="10.721010">
        <ele>131.673006</ele>
        <time>2026-05-07T01:21:33.655Z</time>
      </trkpt>
      <trkpt lat="43.547369" lon="10.721014">
        <ele>133.318612</ele>
        <time>2026-05-07T01:21:52.851Z</time>
      </trkpt>
      <trkpt lat="43.547490" lon="10.720975">
        <ele>134.120441</ele>
        <time>2026-05-07T01:22:02.519Z</time>
      </trkpt>
      <trkpt lat="43.547625" lon="10.720931">
        <ele>135.015566</ele>
        <time>2026-05-07T01:22:13.370Z</time>
      </trkpt>
      <trkpt lat="43.547672" lon="10.720905">
        <ele>135.273478</ele>
        <time>2026-05-07T01:22:17.244Z</time>
      </trkpt>
      <trkpt lat="43.547728" lon="10.720876">
        <ele>135.525043</ele>
        <time>2026-05-07T01:22:22.022Z</time>
      </trkpt>
      <trkpt lat="43.547864" lon="10.720831">
        <ele>136.113242</ele>
        <time>2026-05-07T01:22:32.701Z</time>
      </trkpt>
      <trkpt lat="43.547912" lon="10.720885">
        <ele>136.373722</ele>
        <time>2026-05-07T01:22:37.244Z</time>
      </trkpt>
      <trkpt lat="43.548178" lon="10.720943">
        <ele>137.506332</ele>
        <time>2026-05-07T01:22:56.866Z</time>
      </trkpt>
      <trkpt lat="43.548379" lon="10.720963">
        <ele>138.353880</ele>
        <time>2026-05-07T01:23:09.983Z</time>
      </trkpt>
      <trkpt lat="43.548519" lon="10.720979">
        <ele>138.944700</ele>
        <time>2026-05-07T01:23:17.728Z</time>
      </trkpt>
      <trkpt lat="43.548763" lon="10.721008">
        <ele>139.974700</ele>
        <time>2026-05-07T01:23:29.378Z</time>
      </trkpt>
      <trkpt lat="43.549058" lon="10.721006">
        <ele>141.215407</ele>
        <time>2026-05-07T01:23:39.079Z</time>
      </trkpt>
      <trkpt lat="43.549022" lon="10.720555">
        <ele>142.598481</ele>
        <time>2026-05-07T01:23:47.346Z</time>
      </trkpt>
      <trkpt lat="43.549014" lon="10.720328">
        <ele>141.886677</ele>
        <time>2026-05-07T01:23:50.929Z</time>
      </trkpt>
      <trkpt lat="43.549037" lon="10.720340">
        <ele>141.740514</ele>
        <time>2026-05-07T01:23:51.472Z</time>
      </trkpt>
      <trkpt lat="43.549337" lon="10.720447">
        <ele>139.898662</ele>
        <time>2026-05-07T01:23:57.033Z</time>
      </trkpt>
      <trkpt lat="43.549387" lon="10.720502">
        <ele>139.518561</ele>
        <time>2026-05-07T01:23:58.118Z</time>
      </trkpt>
      <trkpt lat="43.549423" lon="10.720306">
        <ele>138.647466</ele>
        <time>2026-05-07T01:24:16.219Z</time>
      </trkpt>
      <trkpt lat="43.549623" lon="10.720573">
        <ele>136.993246</ele>
        <time>2026-05-07T01:24:22.182Z</time>
      </trkpt>
      <trkpt lat="43.549611" lon="10.720821">
        <ele>135.922444</ele>
        <time>2026-05-07T01:24:25.919Z</time>
      </trkpt>
      <trkpt lat="43.549679" lon="10.720826">
        <ele>135.517671</ele>
        <time>2026-05-07T01:24:27.300Z</time>
      </trkpt>
      <trkpt lat="43.549692" lon="10.720558">
        <ele>134.360502</ele>
        <time>2026-05-07T01:24:30.225Z</time>
      </trkpt>
      <trkpt lat="43.549691" lon="10.720280">
        <ele>133.162820</ele>
        <time>2026-05-07T01:24:33.207Z</time>
      </trkpt>
      <trkpt lat="43.549602" lon="10.720057">
        <ele>132.066075</ele>
        <time>2026-05-07T01:24:35.876Z</time>
      </trkpt>
      <trkpt lat="43.549538" lon="10.719940">
        <ele>130.739700</ele>
        <time>2026-05-07T01:24:37.412Z</time>
      </trkpt>
      <trkpt lat="43.549438" lon="10.719753">
        <ele>128.545911</ele>
        <time>2026-05-07T01:24:39.768Z</time>
      </trkpt>
      <trkpt lat="43.549535" lon="10.719666">
        <ele>127.039028</ele>
        <time>2026-05-07T01:24:41.365Z</time>
      </trkpt>
      <trkpt lat="43.549646" lon="10.719647">
        <ele>125.582196</ele>
        <time>2026-05-07T01:24:42.886Z</time>
      </trkpt>
      <trkpt lat="43.550045" lon="10.719835">
        <ele>120.090639</ele>
        <time>2026-05-07T01:24:48.594Z</time>
      </trkpt>
      <trkpt lat="43.550120" lon="10.719803">
        <ele>119.068141</ele>
        <time>2026-05-07T01:24:49.667Z</time>
      </trkpt>
      <trkpt lat="43.550164" lon="10.719739">
        <ele>118.235412</ele>
        <time>2026-05-07T01:24:50.535Z</time>
      </trkpt>
      <trkpt lat="43.550181" lon="10.719698">
        <ele>117.789512</ele>
        <time>2026-05-07T01:24:51.005Z</time>
      </trkpt>
      <trkpt lat="43.550419" lon="10.719221">
        <ele>112.322789</ele>
        <time>2026-05-07T01:24:56.756Z</time>
      </trkpt>
      <trkpt lat="43.550583" lon="10.718919">
        <ele>108.760467</ele>
        <time>2026-05-07T01:25:00.545Z</time>
      </trkpt>
      <trkpt lat="43.550877" lon="10.718513">
        <ele>106.860324</ele>
        <time>2026-05-07T01:25:06.477Z</time>
      </trkpt>
      <trkpt lat="43.551231" lon="10.718148">
        <ele>104.962233</ele>
        <time>2026-05-07T01:25:13.402Z</time>
      </trkpt>
      <trkpt lat="43.551390" lon="10.718047">
        <ele>104.210421</ele>
        <time>2026-05-07T01:25:16.708Z</time>
      </trkpt>
      <trkpt lat="43.551737" lon="10.717973">
        <ele>102.702336</ele>
        <time>2026-05-07T01:25:24.876Z</time>
      </trkpt>
      <trkpt lat="43.552181" lon="10.717893">
        <ele>100.819483</ele>
        <time>2026-05-07T01:25:36.921Z</time>
      </trkpt>
      <trkpt lat="43.552302" lon="10.717868">
        <ele>100.538858</ele>
        <time>2026-05-07T01:25:40.496Z</time>
      </trkpt>
      <trkpt lat="43.552452" lon="10.717868">
        <ele>100.194812</ele>
        <time>2026-05-07T01:25:45.168Z</time>
      </trkpt>
      <trkpt lat="43.552786" lon="10.717976">
        <ele>99.407981</ele>
        <time>2026-05-07T01:25:55.209Z</time>
      </trkpt>
      <trkpt lat="43.553456" lon="10.717951">
        <ele>97.870678</ele>
        <time>2026-05-07T01:26:07.416Z</time>
      </trkpt>
      <trkpt lat="43.553702" lon="10.717894">
        <ele>97.298542</ele>
        <time>2026-05-07T01:26:11.459Z</time>
      </trkpt>
      <trkpt lat="43.554709" lon="10.717626">
        <ele>92.455428</ele>
        <time>2026-05-07T01:26:27.007Z</time>
      </trkpt>
      <trkpt lat="43.554771" lon="10.717682">
        <ele>92.049483</ele>
        <time>2026-05-07T01:26:28.989Z</time>
      </trkpt>
      <trkpt lat="43.555014" lon="10.717733">
        <ele>90.702969</ele>
        <time>2026-05-07T01:26:35.720Z</time>
      </trkpt>
      <trkpt lat="43.555255" lon="10.717847">
        <ele>89.307300</ele>
        <time>2026-05-07T01:26:42.841Z</time>
      </trkpt>
      <trkpt lat="43.556314" lon="10.718435">
        <ele>85.810272</ele>
        <time>2026-05-07T01:27:19.134Z</time>
      </trkpt>
      <trkpt lat="43.556435" lon="10.718518">
        <ele>85.602346</ele>
        <time>2026-05-07T01:27:24.057Z</time>
      </trkpt>
      <trkpt lat="43.556718" lon="10.718545">
        <ele>85.165839</ele>
        <time>2026-05-07T01:27:34.317Z</time>
      </trkpt>
      <trkpt lat="43.557754" lon="10.718470">
        <ele>83.246749</ele>
        <time>2026-05-07T01:28:11.833Z</time>
      </trkpt>
      <trkpt lat="43.558015" lon="10.718488">
        <ele>82.608568</ele>
        <time>2026-05-07T01:28:20.735Z</time>
      </trkpt>
      <trkpt lat="43.558594" lon="10.718618">
        <ele>81.176005</ele>
        <time>2026-05-07T01:28:39.977Z</time>
      </trkpt>
      <trkpt lat="43.558700" lon="10.718674">
        <ele>80.898822</ele>
        <time>2026-05-07T01:28:43.566Z</time>
      </trkpt>
      <trkpt lat="43.558808" lon="10.719009">
        <ele>80.249951</ele>
        <time>2026-05-07T01:28:51.893Z</time>
      </trkpt>
      <trkpt lat="43.558822" lon="10.719144">
        <ele>80.008607</ele>
        <time>2026-05-07T01:28:54.910Z</time>
      </trkpt>
      <trkpt lat="43.558835" lon="10.719265">
        <ele>79.792133</ele>
        <time>2026-05-07T01:28:57.599Z</time>
      </trkpt>
      <trkpt lat="43.558895" lon="10.719378">
        <ele>79.115394</ele>
        <time>2026-05-07T01:29:00.665Z</time>
      </trkpt>
      <trkpt lat="43.559867" lon="10.719589">
        <ele>71.069583</ele>
        <time>2026-05-07T01:29:27.469Z</time>
      </trkpt>
      <trkpt lat="43.560173" lon="10.719732">
        <ele>68.427831</ele>
        <time>2026-05-07T01:29:35.804Z</time>
      </trkpt>
      <trkpt lat="43.561163" lon="10.720311">
        <ele>59.405212</ele>
        <time>2026-05-07T01:30:02.821Z</time>
      </trkpt>
      <trkpt lat="43.561621" lon="10.720797">
        <ele>54.478827</ele>
        <time>2026-05-07T01:30:17.918Z</time>
      </trkpt>
      <trkpt lat="43.561885" lon="10.720598">
        <ele>51.913798</ele>
        <time>2026-05-07T01:30:23.120Z</time>
      </trkpt>
      <trkpt lat="43.562182" lon="10.720249">
        <ele>49.425230</ele>
        <time>2026-05-07T01:30:30.247Z</time>
      </trkpt>
      <trkpt lat="43.563526" lon="10.720991">
        <ele>46.525812</ele>
        <time>2026-05-07T01:31:02.317Z</time>
      </trkpt>
      <trkpt lat="43.566599" lon="10.722687">
        <ele>43.520363</ele>
        <time>2026-05-07T01:32:19.109Z</time>
      </trkpt>
      <trkpt lat="43.568741" lon="10.723464">
        <ele>42.270160</ele>
        <time>2026-05-07T01:33:12.081Z</time>
      </trkpt>
      <trkpt lat="43.568977" lon="10.723461">
        <ele>42.182443</ele>
        <time>2026-05-07T01:33:17.875Z</time>
      </trkpt>
      <trkpt lat="43.570123" lon="10.722989">
        <ele>41.846504</ele>
        <time>2026-05-07T01:33:47.681Z</time>
      </trkpt>
      <trkpt lat="43.571157" lon="10.722691">
        <ele>41.583341</ele>
        <time>2026-05-07T01:34:13.659Z</time>
      </trkpt>
      <trkpt lat="43.571443" lon="10.722357">
        <ele>41.499218</ele>
        <time>2026-05-07T01:34:22.886Z</time>
      </trkpt>
      <trkpt lat="43.571642" lon="10.722014">
        <ele>41.427731</ele>
        <time>2026-05-07T01:34:30.799Z</time>
      </trkpt>
      <trkpt lat="43.571118" lon="10.719130">
        <ele>41.171157</ele>
        <time>2026-05-07T01:35:25.938Z</time>
      </trkpt>
      <trkpt lat="43.571120" lon="10.719033">
        <ele>41.165084</ele>
        <time>2026-05-07T01:35:27.696Z</time>
      </trkpt>
      <trkpt lat="43.571132" lon="10.718481">
        <ele>40.997105</ele>
        <time>2026-05-07T01:35:37.490Z</time>
      </trkpt>
      <trkpt lat="43.573172" lon="10.718053">
        <ele>40.065663</ele>
        <time>2026-05-07T01:36:21.132Z</time>
      </trkpt>
      <trkpt lat="43.573649" lon="10.717957">
        <ele>39.918986</ele>
        <time>2026-05-07T01:36:31.768Z</time>
      </trkpt>
      <trkpt lat="43.574325" lon="10.717746">
        <ele>39.708098</ele>
        <time>2026-05-07T01:36:47.852Z</time>
      </trkpt>
      <trkpt lat="43.574887" lon="10.717517">
        <ele>39.600914</ele>
        <time>2026-05-07T01:37:01.273Z</time>
      </trkpt>
      <trkpt lat="43.576166" lon="10.717112">
        <ele>39.365970</ele>
        <time>2026-05-07T01:37:30.226Z</time>
      </trkpt>
      <trkpt lat="43.577482" lon="10.716958">
        <ele>38.960769</ele>
        <time>2026-05-07T01:37:59.138Z</time>
      </trkpt>
      <trkpt lat="43.579048" lon="10.716774">
        <ele>38.653550</ele>
        <time>2026-05-07T01:38:34.271Z</time>
      </trkpt>
      <trkpt lat="43.580380" lon="10.716590">
        <ele>38.488786</ele>
        <time>2026-05-07T01:39:04.714Z</time>
      </trkpt>
      <trkpt lat="43.580428" lon="10.713915">
        <ele>38.176812</ele>
        <time>2026-05-07T01:39:48.697Z</time>
      </trkpt>
      <trkpt lat="43.582522" lon="10.713509">
        <ele>37.449510</ele>
        <time>2026-05-07T01:41:06.527Z</time>
      </trkpt>
      <trkpt lat="43.582573" lon="10.713499">
        <ele>37.427752</ele>
        <time>2026-05-07T01:41:08.413Z</time>
      </trkpt>
      <trkpt lat="43.584995" lon="10.713022">
        <ele>36.248764</ele>
        <time>2026-05-07T01:42:37.648Z</time>
      </trkpt>
      <trkpt lat="43.585182" lon="10.712934">
        <ele>36.107428</ele>
        <time>2026-05-07T01:42:45.099Z</time>
      </trkpt>
      <trkpt lat="43.585756" lon="10.712345">
        <ele>35.595790</ele>
        <time>2026-05-07T01:43:11.231Z</time>
      </trkpt>
      <trkpt lat="43.586152" lon="10.711956">
        <ele>35.248102</ele>
        <time>2026-05-07T01:43:28.015Z</time>
      </trkpt>
      <trkpt lat="43.586343" lon="10.711816">
        <ele>35.093399</ele>
        <time>2026-05-07T01:43:35.501Z</time>
      </trkpt>
      <trkpt lat="43.586557" lon="10.711834">
        <ele>35.003028</ele>
        <time>2026-05-07T01:43:43.063Z</time>
      </trkpt>
      <trkpt lat="43.586669" lon="10.711904">
        <ele>35.015110</ele>
        <time>2026-05-07T01:43:47.458Z</time>
      </trkpt>
      <trkpt lat="43.586801" lon="10.712059">
        <ele>35.032140</ele>
        <time>2026-05-07T01:43:53.718Z</time>
      </trkpt>
      <trkpt lat="43.586943" lon="10.712347">
        <ele>35.056939</ele>
        <time>2026-05-07T01:44:02.847Z</time>
      </trkpt>
      <trkpt lat="43.587114" lon="10.712704">
        <ele>35.087406</ele>
        <time>2026-05-07T01:44:14.105Z</time>
      </trkpt>
      <trkpt lat="43.587241" lon="10.713014">
        <ele>35.112757</ele>
        <time>2026-05-07T01:44:24.061Z</time>
      </trkpt>
      <trkpt lat="43.587275" lon="10.713247">
        <ele>35.129676</ele>
        <time>2026-05-07T01:44:31.466Z</time>
      </trkpt>
      <trkpt lat="43.587179" lon="10.713478">
        <ele>35.148633</ele>
        <time>2026-05-07T01:44:37.803Z</time>
      </trkpt>
      <trkpt lat="43.586894" lon="10.713912">
        <ele>35.338289</ele>
        <time>2026-05-07T01:44:53.029Z</time>
      </trkpt>
      <trkpt lat="43.587166" lon="10.714722">
        <ele>35.919784</ele>
        <time>2026-05-07T01:45:22.477Z</time>
      </trkpt>
      <trkpt lat="43.587124" lon="10.714924">
        <ele>36.056660</ele>
        <time>2026-05-07T01:45:28.884Z</time>
      </trkpt>
      <trkpt lat="43.587070" lon="10.714999">
        <ele>36.125536</ele>
        <time>2026-05-07T01:45:32.109Z</time>
      </trkpt>
      <trkpt lat="43.586927" lon="10.715092">
        <ele>36.267672</ele>
        <time>2026-05-07T01:45:38.820Z</time>
      </trkpt>
      <trkpt lat="43.586874" lon="10.715161">
        <ele>36.333176</ele>
        <time>2026-05-07T01:45:41.891Z</time>
      </trkpt>
      <trkpt lat="43.586774" lon="10.715522">
        <ele>36.584906</ele>
        <time>2026-05-07T01:45:53.661Z</time>
      </trkpt>
      <trkpt lat="43.586868" lon="10.715704">
        <ele>36.730493</ele>
        <time>2026-05-07T01:45:57.974Z</time>
      </trkpt>
      <trkpt lat="43.587068" lon="10.716466">
        <ele>36.946312</ele>
        <time>2026-05-07T01:46:12.462Z</time>
      </trkpt>
      <trkpt lat="43.587162" lon="10.716710">
        <ele>37.006514</ele>
        <time>2026-05-07T01:46:17.292Z</time>
      </trkpt>
      <trkpt lat="43.587478" lon="10.717075">
        <ele>37.130421</ele>
        <time>2026-05-07T01:46:27.912Z</time>
      </trkpt>
      <trkpt lat="43.587541" lon="10.717188">
        <ele>37.161483</ele>
        <time>2026-05-07T01:46:30.655Z</time>
      </trkpt>
      <trkpt lat="43.587628" lon="10.717447">
        <ele>37.223673</ele>
        <time>2026-05-07T01:46:36.180Z</time>
      </trkpt>
      <trkpt lat="43.587917" lon="10.718376">
        <ele>37.516324</ele>
        <time>2026-05-07T01:46:55.824Z</time>
      </trkpt>
      <trkpt lat="43.587966" lon="10.718793">
        <ele>37.667058</ele>
        <time>2026-05-07T01:47:03.994Z</time>
      </trkpt>
      <trkpt lat="43.588037" lon="10.719392">
        <ele>37.883628</ele>
        <time>2026-05-07T01:47:15.797Z</time>
      </trkpt>
      <trkpt lat="43.588175" lon="10.719600">
        <ele>37.984273</ele>
        <time>2026-05-07T01:47:21.341Z</time>
      </trkpt>
      <trkpt lat="43.589031" lon="10.720146">
        <ele>38.585996</ele>
        <time>2026-05-07T01:47:47.662Z</time>
      </trkpt>
      <trkpt lat="43.589054" lon="10.720141">
        <ele>38.604241</ele>
        <time>2026-05-07T01:47:48.304Z</time>
      </trkpt>
      <trkpt lat="43.590473" lon="10.719775">
        <ele>39.690877</ele>
        <time>2026-05-07T01:48:29.286Z</time>
      </trkpt>
      <trkpt lat="43.591253" lon="10.719367">
        <ele>40.079082</ele>
        <time>2026-05-07T01:48:51.543Z</time>
      </trkpt>
      <trkpt lat="43.591324" lon="10.719325">
        <ele>40.115032</ele>
        <time>2026-05-07T01:48:53.508Z</time>
      </trkpt>
      <trkpt lat="43.592133" lon="10.718857">
        <ele>40.445519</ele>
        <time>2026-05-07T01:49:15.100Z</time>
      </trkpt>
      <trkpt lat="43.592235" lon="10.718791">
        <ele>40.430396</ele>
        <time>2026-05-07T01:49:17.686Z</time>
      </trkpt>
      <trkpt lat="43.592422" lon="10.718689">
        <ele>40.403400</ele>
        <time>2026-05-07T01:49:22.232Z</time>
      </trkpt>
      <trkpt lat="43.592537" lon="10.718625">
        <ele>40.386753</ele>
        <time>2026-05-07T01:49:25.002Z</time>
      </trkpt>
      <trkpt lat="43.592959" lon="10.718390">
        <ele>40.325660</ele>
        <time>2026-05-07T01:49:35.224Z</time>
      </trkpt>
      <trkpt lat="43.592987" lon="10.718373">
        <ele>40.321554</ele>
        <time>2026-05-07T01:49:35.918Z</time>
      </trkpt>
      <trkpt lat="43.593488" lon="10.718104">
        <ele>40.249382</ele>
        <time>2026-05-07T01:49:48.033Z</time>
      </trkpt>
      <trkpt lat="43.593721" lon="10.718042">
        <ele>40.208483</ele>
        <time>2026-05-07T01:49:53.293Z</time>
      </trkpt>
      <trkpt lat="43.594403" lon="10.718080">
        <ele>39.905215</ele>
        <time>2026-05-07T01:50:07.778Z</time>
      </trkpt>
      <trkpt lat="43.594685" lon="10.718035">
        <ele>39.779085</ele>
        <time>2026-05-07T01:50:13.668Z</time>
      </trkpt>
      <trkpt lat="43.594848" lon="10.717932">
        <ele>39.699439</ele>
        <time>2026-05-07T01:50:17.453Z</time>
      </trkpt>
      <trkpt lat="43.595233" lon="10.717551">
        <ele>39.488981</ele>
        <time>2026-05-07T01:50:27.765Z</time>
      </trkpt>
      <trkpt lat="43.595565" lon="10.717210">
        <ele>39.475012</ele>
        <time>2026-05-07T01:50:37.012Z</time>
      </trkpt>
      <trkpt lat="43.596009" lon="10.716759">
        <ele>39.585256</ele>
        <time>2026-05-07T01:50:49.663Z</time>
      </trkpt>
      <trkpt lat="43.596131" lon="10.716635">
        <ele>39.615555</ele>
        <time>2026-05-07T01:50:53.392Z</time>
      </trkpt>
      <trkpt lat="43.596724" lon="10.715875">
        <ele>39.777376</ele>
        <time>2026-05-07T01:51:15.230Z</time>
      </trkpt>
      <trkpt lat="43.596859" lon="10.715745">
        <ele>39.773505</ele>
        <time>2026-05-07T01:51:19.327Z</time>
      </trkpt>
      <trkpt lat="43.596884" lon="10.715721">
        <ele>39.771671</ele>
        <time>2026-05-07T01:51:20.082Z</time>
      </trkpt>
      <trkpt lat="43.597208" lon="10.715503">
        <ele>39.749954</ele>
        <time>2026-05-07T01:51:28.902Z</time>
      </trkpt>
      <trkpt lat="43.597281" lon="10.715456">
        <ele>39.745101</ele>
        <time>2026-05-07T01:51:30.815Z</time>
      </trkpt>
      <trkpt lat="43.597298" lon="10.715443">
        <ele>39.743930</ele>
        <time>2026-05-07T01:51:31.295Z</time>
      </trkpt>
      <trkpt lat="43.597473" lon="10.715303">
        <ele>39.731744</ele>
        <time>2026-05-07T01:51:36.072Z</time>
      </trkpt>
      <trkpt lat="43.597735" lon="10.714979">
        <ele>39.710553</ele>
        <time>2026-05-07T01:51:44.105Z</time>
      </trkpt>
      <trkpt lat="43.598035" lon="10.714575">
        <ele>39.685304</ele>
        <time>2026-05-07T01:51:53.343Z</time>
      </trkpt>
      <trkpt lat="43.598217" lon="10.714247">
        <ele>39.593198</ele>
        <time>2026-05-07T01:51:59.597Z</time>
      </trkpt>
      <trkpt lat="43.599284" lon="10.712245">
        <ele>38.293973</ele>
        <time>2026-05-07T01:52:36.508Z</time>
      </trkpt>
      <trkpt lat="43.599992" lon="10.710941">
        <ele>38.161250</ele>
        <time>2026-05-07T01:53:02.554Z</time>
      </trkpt>
      <trkpt lat="43.601108" lon="10.709538">
        <ele>38.403611</ele>
        <time>2026-05-07T01:53:42.373Z</time>
      </trkpt>
      <trkpt lat="43.601579" lon="10.708962">
        <ele>38.592605</ele>
        <time>2026-05-07T01:53:57.801Z</time>
      </trkpt>
      <trkpt lat="43.601817" lon="10.708671">
        <ele>38.587894</ele>
        <time>2026-05-07T01:54:05.023Z</time>
      </trkpt>
      <trkpt lat="43.601905" lon="10.708552">
        <ele>38.540657</ele>
        <time>2026-05-07T01:54:07.731Z</time>
      </trkpt>
      <trkpt lat="43.602326" lon="10.708012">
        <ele>38.320290</ele>
        <time>2026-05-07T01:54:19.892Z</time>
      </trkpt>
      <trkpt lat="43.602665" lon="10.707566">
        <ele>38.140717</ele>
        <time>2026-05-07T01:54:29.656Z</time>
      </trkpt>
      <trkpt lat="43.602920" lon="10.707247">
        <ele>38.008758</ele>
        <time>2026-05-07T01:54:37.053Z</time>
      </trkpt>
      <trkpt lat="43.603041" lon="10.707136">
        <ele>37.955307</ele>
        <time>2026-05-07T01:54:40.230Z</time>
      </trkpt>
      <trkpt lat="43.603256" lon="10.706982">
        <ele>38.034646</ele>
        <time>2026-05-07T01:54:45.773Z</time>
      </trkpt>
      <trkpt lat="43.603382" lon="10.706898">
        <ele>38.080479</ele>
        <time>2026-05-07T01:54:49.402Z</time>
      </trkpt>
      <trkpt lat="43.603470" lon="10.706832">
        <ele>38.113282</ele>
        <time>2026-05-07T01:54:51.955Z</time>
      </trkpt>
      <trkpt lat="43.603552" lon="10.706771">
        <ele>38.143793</ele>
        <time>2026-05-07T01:54:54.334Z</time>
      </trkpt>
      <trkpt lat="43.603656" lon="10.706685">
        <ele>38.183502</ele>
        <time>2026-05-07T01:54:57.128Z</time>
      </trkpt>
      <trkpt lat="43.603982" lon="10.706301">
        <ele>38.323862</ele>
        <time>2026-05-07T01:55:07.363Z</time>
      </trkpt>
      <trkpt lat="43.604097" lon="10.706082">
        <ele>38.388031</ele>
        <time>2026-05-07T01:55:12.428Z</time>
      </trkpt>
      <trkpt lat="43.604102" lon="10.705834">
        <ele>38.446881</ele>
        <time>2026-05-07T01:55:17.232Z</time>
      </trkpt>
      <trkpt lat="43.603994" lon="10.705405">
        <ele>38.572762</ele>
        <time>2026-05-07T01:55:26.476Z</time>
      </trkpt>
      <trkpt lat="43.603882" lon="10.704927">
        <ele>38.885737</ele>
        <time>2026-05-07T01:55:37.196Z</time>
      </trkpt>
      <trkpt lat="43.603896" lon="10.704531">
        <ele>39.132721</ele>
        <time>2026-05-07T01:55:45.912Z</time>
      </trkpt>
      <trkpt lat="43.603997" lon="10.704033">
        <ele>39.454892</ele>
        <time>2026-05-07T01:55:56.188Z</time>
      </trkpt>
      <trkpt lat="43.604041" lon="10.703886">
        <ele>39.553982</ele>
        <time>2026-05-07T01:55:59.593Z</time>
      </trkpt>
      <trkpt lat="43.604114" lon="10.703717">
        <ele>39.676569</ele>
        <time>2026-05-07T01:56:03.975Z</time>
      </trkpt>
      <trkpt lat="43.604191" lon="10.703619">
        <ele>39.766653</ele>
        <time>2026-05-07T01:56:07.179Z</time>
      </trkpt>
      <trkpt lat="43.604274" lon="10.703548">
        <ele>39.850646</ele>
        <time>2026-05-07T01:56:10.100Z</time>
      </trkpt>
      <trkpt lat="43.604500" lon="10.703366">
        <ele>40.075714</ele>
        <time>2026-05-07T01:56:17.506Z</time>
      </trkpt>
      <trkpt lat="43.604605" lon="10.703131">
        <ele>40.048969</ele>
        <time>2026-05-07T01:56:22.630Z</time>
      </trkpt>
      <trkpt lat="43.604677" lon="10.702869">
        <ele>40.002418</ele>
        <time>2026-05-07T01:56:27.420Z</time>
      </trkpt>
      <trkpt lat="43.604690" lon="10.702813">
        <ele>39.992649</ele>
        <time>2026-05-07T01:56:28.374Z</time>
      </trkpt>
      <trkpt lat="43.604778" lon="10.702458">
        <ele>39.930320</ele>
        <time>2026-05-07T01:56:34.231Z</time>
      </trkpt>
      <trkpt lat="43.604927" lon="10.701724">
        <ele>39.803692</ele>
        <time>2026-05-07T01:56:45.409Z</time>
      </trkpt>
      <trkpt lat="43.604946" lon="10.701636">
        <ele>39.788438</ele>
        <time>2026-05-07T01:56:46.787Z</time>
      </trkpt>
      <trkpt lat="43.605045" lon="10.701273">
        <ele>39.724004</ele>
        <time>2026-05-07T01:56:52.699Z</time>
      </trkpt>
      <trkpt lat="43.605352" lon="10.700560">
        <ele>40.538011</ele>
        <time>2026-05-07T01:57:06.655Z</time>
      </trkpt>
      <trkpt lat="43.605515" lon="10.700679">
        <ele>40.933337</ele>
        <time>2026-05-07T01:57:12.242Z</time>
      </trkpt>
      <trkpt lat="43.605400" lon="10.701104">
        <ele>41.637752</ele>
        <time>2026-05-07T01:57:22.961Z</time>
      </trkpt>
      <trkpt lat="43.605175" lon="10.701932">
        <ele>43.010840</ele>
        <time>2026-05-07T01:57:46.691Z</time>
      </trkpt>
      <trkpt lat="43.605086" lon="10.702378">
        <ele>44.663303</ele>
        <time>2026-05-07T01:58:04.017Z</time>
      </trkpt>
      <trkpt lat="43.605011" lon="10.702739">
        <ele>48.049060</ele>
        <time>2026-05-07T01:58:21.501Z</time>
      </trkpt>
      <trkpt lat="43.604951" lon="10.702903">
        <ele>49.705532</ele>
        <time>2026-05-07T01:58:31.594Z</time>
      </trkpt>
      <trkpt lat="43.605078" lon="10.702938">
        <ele>51.317846</ele>
        <time>2026-05-07T01:58:42.532Z</time>
      </trkpt>
      <trkpt lat="43.605245" lon="10.703031">
        <ele>53.559656</ele>
        <time>2026-05-07T01:58:59.451Z</time>
      </trkpt>
      <trkpt lat="43.605600" lon="10.703144">
        <ele>58.095252</ele>
        <time>2026-05-07T01:59:39.328Z</time>
      </trkpt>
      <trkpt lat="43.605866" lon="10.703260">
        <ele>61.568111</ele>
        <time>2026-05-07T02:00:14.271Z</time>
      </trkpt>
      <trkpt lat="43.606034" lon="10.703285">
        <ele>63.671802</ele>
        <time>2026-05-07T02:00:37.945Z</time>
      </trkpt>
      <trkpt lat="43.606101" lon="10.703262">
        <ele>64.531329</ele>
        <time>2026-05-07T02:00:48.037Z</time>
      </trkpt>
      <trkpt lat="43.606172" lon="10.703096">
        <ele>66.323468</ele>
        <time>2026-05-07T02:01:08.208Z</time>
      </trkpt>
      <trkpt lat="43.606199" lon="10.703080">
        <ele>66.747158</ele>
        <time>2026-05-07T02:01:12.518Z</time>
      </trkpt>
      <trkpt lat="43.606283" lon="10.703146">
        <ele>68.140822</ele>
        <time>2026-05-07T02:01:26.078Z</time>
      </trkpt>
      <trkpt lat="43.606472" lon="10.703080">
        <ele>70.952117</ele>
        <time>2026-05-07T02:01:52.912Z</time>
      </trkpt>
      <trkpt lat="43.606524" lon="10.703089">
        <ele>71.707859</ele>
        <time>2026-05-07T02:01:59.846Z</time>
      </trkpt>
      <trkpt lat="43.606827" lon="10.703368">
        <ele>76.959486</ele>
        <time>2026-05-07T02:02:46.370Z</time>
      </trkpt>
      <trkpt lat="43.606870" lon="10.703407">
        <ele>77.701342</ele>
        <time>2026-05-07T02:02:52.860Z</time>
      </trkpt>
      <trkpt lat="43.606929" lon="10.703600">
        <ele>79.888865</ele>
        <time>2026-05-07T02:03:10.490Z</time>
      </trkpt>
      <trkpt lat="43.606939" lon="10.703829">
        <ele>82.284397</ele>
        <time>2026-05-07T02:03:30.650Z</time>
      </trkpt>
      <trkpt lat="43.606911" lon="10.704274">
        <ele>86.948539</ele>
        <time>2026-05-07T02:04:05.302Z</time>
      </trkpt>
      <trkpt lat="43.606892" lon="10.704322">
        <ele>87.519752</ele>
        <time>2026-05-07T02:04:09.145Z</time>
      </trkpt>
      <trkpt lat="43.606889" lon="10.704345">
        <ele>87.763780</ele>
        <time>2026-05-07T02:04:10.647Z</time>
      </trkpt>
      <trkpt lat="43.606922" lon="10.704327">
        <ele>88.275436</ele>
        <time>2026-05-07T02:04:13.900Z</time>
      </trkpt>
      <trkpt lat="43.607330" lon="10.704295">
        <ele>93.365062</ele>
        <time>2026-05-07T02:04:48.494Z</time>
      </trkpt>
      <trkpt lat="43.607591" lon="10.704487">
        <ele>96.141788</ele>
        <time>2026-05-07T02:05:11.760Z</time>
      </trkpt>
      <trkpt lat="43.607685" lon="10.704583">
        <ele>97.239548</ele>
        <time>2026-05-07T02:05:21.095Z</time>
      </trkpt>
      <trkpt lat="43.607782" lon="10.704675">
        <ele>98.344461</ele>
        <time>2026-05-07T02:05:30.454Z</time>
      </trkpt>
      <trkpt lat="43.608150" lon="10.704876">
        <ele>102.060330</ele>
        <time>2026-05-07T02:06:02.927Z</time>
      </trkpt>
      <trkpt lat="43.608632" lon="10.705032">
        <ele>106.708833</ele>
        <time>2026-05-07T02:06:41.616Z</time>
      </trkpt>
      <trkpt lat="43.608743" lon="10.705110">
        <ele>107.878257</ele>
        <time>2026-05-07T02:06:51.448Z</time>
      </trkpt>
      <trkpt lat="43.609093" lon="10.705744">
        <ele>113.314517</ele>
        <time>2026-05-07T02:07:36.736Z</time>
      </trkpt>
      <trkpt lat="43.609263" lon="10.705904">
        <ele>115.252943</ele>
        <time>2026-05-07T02:07:52.600Z</time>
      </trkpt>
      <trkpt lat="43.609704" lon="10.705978">
        <ele>119.438863</ele>
        <time>2026-05-07T02:08:28.243Z</time>
      </trkpt>
      <trkpt lat="43.610044" lon="10.706212">
        <ele>123.018282</ele>
        <time>2026-05-07T02:09:02.987Z</time>
      </trkpt>
      <trkpt lat="43.610479" lon="10.706298">
        <ele>126.888458</ele>
        <time>2026-05-07T02:09:38.673Z</time>
      </trkpt>
      <trkpt lat="43.610697" lon="10.706221">
        <ele>128.615083</ele>
        <time>2026-05-07T02:09:56.206Z</time>
      </trkpt>
      <trkpt lat="43.610942" lon="10.706008">
        <ele>130.836499</ele>
        <time>2026-05-07T02:10:18.036Z</time>
      </trkpt>
      <trkpt lat="43.610999" lon="10.705971">
        <ele>131.319778</ele>
        <time>2026-05-07T02:10:22.555Z</time>
      </trkpt>
      <trkpt lat="43.611166" lon="10.705877">
        <ele>132.703558</ele>
        <time>2026-05-07T02:10:35.420Z</time>
      </trkpt>
      <trkpt lat="43.611356" lon="10.705862">
        <ele>134.163872</ele>
        <time>2026-05-07T02:10:48.884Z</time>
      </trkpt>
      <trkpt lat="43.611736" lon="10.705964">
        <ele>137.134297</ele>
        <time>2026-05-07T02:11:15.113Z</time>
      </trkpt>
      <trkpt lat="43.612055" lon="10.706110">
        <ele>139.608129</ele>
        <time>2026-05-07T02:11:34.526Z</time>
      </trkpt>
      <trkpt lat="43.612444" lon="10.706333">
        <ele>141.220158</ele>
        <time>2026-05-07T02:11:57.340Z</time>
      </trkpt>
      <trkpt lat="43.612546" lon="10.706423">
        <ele>141.683422</ele>
        <time>2026-05-07T02:12:04.309Z</time>
      </trkpt>
      <trkpt lat="43.612805" lon="10.706899">
        <ele>143.333459</ele>
        <time>2026-05-07T02:12:27.568Z</time>
      </trkpt>
      <trkpt lat="43.613016" lon="10.706789">
        <ele>144.196663</ele>
        <time>2026-05-07T02:12:38.527Z</time>
      </trkpt>
      <trkpt lat="43.613492" lon="10.706688">
        <ele>146.039899</ele>
        <time>2026-05-07T02:12:56.889Z</time>
      </trkpt>
      <trkpt lat="43.613758" lon="10.706632">
        <ele>146.549349</ele>
        <time>2026-05-07T02:13:04.518Z</time>
      </trkpt>
      <trkpt lat="43.613923" lon="10.706459">
        <ele>146.737014</ele>
        <time>2026-05-07T02:13:10.017Z</time>
      </trkpt>
      <trkpt lat="43.614107" lon="10.706173">
        <ele>146.987956</ele>
        <time>2026-05-07T02:13:18.396Z</time>
      </trkpt>
      <trkpt lat="43.614182" lon="10.706027">
        <ele>147.105370</ele>
        <time>2026-05-07T02:13:22.875Z</time>
      </trkpt>
      <trkpt lat="43.614219" lon="10.705847">
        <ele>147.228095</ele>
        <time>2026-05-07T02:13:27.561Z</time>
      </trkpt>
      <trkpt lat="43.614235" lon="10.705547">
        <ele>147.425392</ele>
        <time>2026-05-07T02:13:34.941Z</time>
      </trkpt>
      <trkpt lat="43.614274" lon="10.705472">
        <ele>147.485957</ele>
        <time>2026-05-07T02:13:37.229Z</time>
      </trkpt>
      <trkpt lat="43.614331" lon="10.705449">
        <ele>147.539752</ele>
        <time>2026-05-07T02:13:39.217Z</time>
      </trkpt>
      <trkpt lat="43.614689" lon="10.705613">
        <ele>147.881441</ele>
        <time>2026-05-07T02:13:51.726Z</time>
      </trkpt>
      <trkpt lat="43.614948" lon="10.705682">
        <ele>147.636606</ele>
        <time>2026-05-07T02:13:59.682Z</time>
      </trkpt>
      <trkpt lat="43.615704" lon="10.705561">
        <ele>145.087806</ele>
        <time>2026-05-07T02:14:16.257Z</time>
      </trkpt>
      <trkpt lat="43.615843" lon="10.705483">
        <ele>144.585343</ele>
        <time>2026-05-07T02:14:19.025Z</time>
      </trkpt>
      <trkpt lat="43.616114" lon="10.705153">
        <ele>143.375421</ele>
        <time>2026-05-07T02:14:25.408Z</time>
      </trkpt>
      <trkpt lat="43.616227" lon="10.704939">
        <ele>142.733207</ele>
        <time>2026-05-07T02:14:28.751Z</time>
      </trkpt>
      <trkpt lat="43.616410" lon="10.704705">
        <ele>141.925493</ele>
        <time>2026-05-07T02:14:33.091Z</time>
      </trkpt>
      <trkpt lat="43.616564" lon="10.704580">
        <ele>141.498962</ele>
        <time>2026-05-07T02:14:36.204Z</time>
      </trkpt>
      <trkpt lat="43.616807" lon="10.704466">
        <ele>140.886147</ele>
        <time>2026-05-07T02:14:40.730Z</time>
      </trkpt>
      <trkpt lat="43.617057" lon="10.704303">
        <ele>140.226008</ele>
        <time>2026-05-07T02:14:45.785Z</time>
      </trkpt>
      <trkpt lat="43.617112" lon="10.704233">
        <ele>140.047422</ele>
        <time>2026-05-07T02:14:47.188Z</time>
      </trkpt>
      <trkpt lat="43.617318" lon="10.703780">
        <ele>139.122619</ele>
        <time>2026-05-07T02:14:55.074Z</time>
      </trkpt>
      <trkpt lat="43.617553" lon="10.703187">
        <ele>137.953933</ele>
        <time>2026-05-07T02:15:09.291Z</time>
      </trkpt>
      <trkpt lat="43.617547" lon="10.703107">
        <ele>137.814893</ele>
        <time>2026-05-07T02:15:11.578Z</time>
      </trkpt>
      <trkpt lat="43.617515" lon="10.703052">
        <ele>137.707994</ele>
        <time>2026-05-07T02:15:13.666Z</time>
      </trkpt>
      <trkpt lat="43.617446" lon="10.703024">
        <ele>137.982203</ele>
        <time>2026-05-07T02:15:16.755Z</time>
      </trkpt>
      <trkpt lat="43.617351" lon="10.702934">
        <ele>138.421440</ele>
        <time>2026-05-07T02:15:22.113Z</time>
      </trkpt>
      <trkpt lat="43.617262" lon="10.702732">
        <ele>139.074187</ele>
        <time>2026-05-07T02:15:30.607Z</time>
      </trkpt>
      <trkpt lat="43.617262" lon="10.702638">
        <ele>139.333665</ele>
        <time>2026-05-07T02:15:34.111Z</time>
      </trkpt>
      <trkpt lat="43.617391" lon="10.702299">
        <ele>140.390838</ele>
        <time>2026-05-07T02:15:49.102Z</time>
      </trkpt>
      <trkpt lat="43.617415" lon="10.702070">
        <ele>141.029560</ele>
        <time>2026-05-07T02:15:58.180Z</time>
      </trkpt>
      <trkpt lat="43.617764" lon="10.701412">
        <ele>143.281198</ele>
        <time>2026-05-07T02:16:30.192Z</time>
      </trkpt>
      <trkpt lat="43.617842" lon="10.701214">
        <ele>143.903432</ele>
        <time>2026-05-07T02:16:39.205Z</time>
      </trkpt>
      <trkpt lat="43.617908" lon="10.700923">
        <ele>144.522779</ele>
        <time>2026-05-07T02:16:50.596Z</time>
      </trkpt>
      <trkpt lat="43.617953" lon="10.700438">
        <ele>144.279146</ele>
        <time>2026-05-07T02:17:06.334Z</time>
      </trkpt>
      <trkpt lat="43.618101" lon="10.700395">
        <ele>144.175057</ele>
        <time>2026-05-07T02:17:14.212Z</time>
      </trkpt>
      <trkpt lat="43.618164" lon="10.700410">
        <ele>144.131058</ele>
        <time>2026-05-07T02:17:17.486Z</time>
      </trkpt>
      <trkpt lat="43.618836" lon="10.701329">
        <ele>143.480228</ele>
        <time>2026-05-07T02:17:50.542Z</time>
      </trkpt>
      <trkpt lat="43.619059" lon="10.701495">
        <ele>143.120580</ele>
        <time>2026-05-07T02:17:57.890Z</time>
      </trkpt>
      <trkpt lat="43.619197" lon="10.701500">
        <ele>141.670750</ele>
        <time>2026-05-07T02:18:01.685Z</time>
      </trkpt>
      <trkpt lat="43.619770" lon="10.701412">
        <ele>135.615793</ele>
        <time>2026-05-07T02:18:16.645Z</time>
      </trkpt>
      <trkpt lat="43.620249" lon="10.701254">
        <ele>130.443703</ele>
        <time>2026-05-07T02:18:28.841Z</time>
      </trkpt>
      <trkpt lat="43.620828" lon="10.700946">
        <ele>123.981475</ele>
        <time>2026-05-07T02:18:44.127Z</time>
      </trkpt>
      <trkpt lat="43.621415" lon="10.700162">
        <ele>116.329399</ele>
        <time>2026-05-07T02:19:04.725Z</time>
      </trkpt>
      <trkpt lat="43.621526" lon="10.700048">
        <ele>115.033132</ele>
        <time>2026-05-07T02:19:08.348Z</time>
      </trkpt>
      <trkpt lat="43.621677" lon="10.700001">
        <ele>113.582523</ele>
        <time>2026-05-07T02:19:12.483Z</time>
      </trkpt>
      <trkpt lat="43.621969" lon="10.699987">
        <ele>110.844333</ele>
        <time>2026-05-07T02:19:20.421Z</time>
      </trkpt>
      <trkpt lat="43.622597" lon="10.699717">
        <ele>106.017692</ele>
        <time>2026-05-07T02:19:38.839Z</time>
      </trkpt>
      <trkpt lat="43.622982" lon="10.699601">
        <ele>104.032376</ele>
        <time>2026-05-07T02:19:50.122Z</time>
      </trkpt>
      <trkpt lat="43.623073" lon="10.699521">
        <ele>103.488931</ele>
        <time>2026-05-07T02:19:53.234Z</time>
      </trkpt>
      <trkpt lat="43.623479" lon="10.698936">
        <ele>100.533216</ele>
        <time>2026-05-07T02:20:10.185Z</time>
      </trkpt>
      <trkpt lat="43.623519" lon="10.698776">
        <ele>99.915859</ele>
        <time>2026-05-07T02:20:13.768Z</time>
      </trkpt>
      <trkpt lat="43.623469" lon="10.698324">
        <ele>98.428165</ele>
        <time>2026-05-07T02:20:23.624Z</time>
      </trkpt>
      <trkpt lat="43.623531" lon="10.697836">
        <ele>97.861077</ele>
        <time>2026-05-07T02:20:34.596Z</time>
      </trkpt>
      <trkpt lat="43.623564" lon="10.697286">
        <ele>97.229406</ele>
        <time>2026-05-07T02:20:47.475Z</time>
      </trkpt>
      <trkpt lat="43.623604" lon="10.697071">
        <ele>96.975326</ele>
        <time>2026-05-07T02:20:52.930Z</time>
      </trkpt>
      <trkpt lat="43.623736" lon="10.696646">
        <ele>96.446002</ele>
        <time>2026-05-07T02:21:04.958Z</time>
      </trkpt>
      <trkpt lat="43.623735" lon="10.695868">
        <ele>95.685987</ele>
        <time>2026-05-07T02:21:28.353Z</time>
      </trkpt>
      <trkpt lat="43.623796" lon="10.695745">
        <ele>95.715857</ele>
        <time>2026-05-07T02:21:32.924Z</time>
      </trkpt>
      <trkpt lat="43.624061" lon="10.695626">
        <ele>95.792972</ele>
        <time>2026-05-07T02:21:44.480Z</time>
      </trkpt>
      <trkpt lat="43.624262" lon="10.695133">
        <ele>95.906323</ele>
        <time>2026-05-07T02:22:01.003Z</time>
      </trkpt>
      <trkpt lat="43.624401" lon="10.694860">
        <ele>95.973187</ele>
        <time>2026-05-07T02:22:06.400Z</time>
      </trkpt>
      <trkpt lat="43.624436" lon="10.694739">
        <ele>95.999291</ele>
        <time>2026-05-07T02:22:08.435Z</time>
      </trkpt>
      <trkpt lat="43.624457" lon="10.694412">
        <ele>96.065057</ele>
        <time>2026-05-07T02:22:13.385Z</time>
      </trkpt>
      <trkpt lat="43.624310" lon="10.692929">
        <ele>98.567899</ele>
        <time>2026-05-07T02:22:42.461Z</time>
      </trkpt>
      <trkpt lat="43.624003" lon="10.691700">
        <ele>101.688707</ele>
        <time>2026-05-07T02:23:30.133Z</time>
      </trkpt>
      <trkpt lat="43.624006" lon="10.691581">
        <ele>101.974529</ele>
        <time>2026-05-07T02:23:35.556Z</time>
      </trkpt>
      <trkpt lat="43.624041" lon="10.691480">
        <ele>102.322866</ele>
        <time>2026-05-07T02:23:40.817Z</time>
      </trkpt>
      <trkpt lat="43.624273" lon="10.691187">
        <ele>104.088403</ele>
        <time>2026-05-07T02:24:01.783Z</time>
      </trkpt>
      <trkpt lat="43.624617" lon="10.690841">
        <ele>106.478402</ele>
        <time>2026-05-07T02:24:29.353Z</time>
      </trkpt>
      <trkpt lat="43.625022" lon="10.690346">
        <ele>109.515639</ele>
        <time>2026-05-07T02:25:01.282Z</time>
      </trkpt>
      <trkpt lat="43.625077" lon="10.690235">
        <ele>110.062537</ele>
        <time>2026-05-07T02:25:06.519Z</time>
      </trkpt>
      <trkpt lat="43.625142" lon="10.689981">
        <ele>111.157866</ele>
        <time>2026-05-07T02:25:16.536Z</time>
      </trkpt>
      <trkpt lat="43.625211" lon="10.689198">
        <ele>112.558431</ele>
        <time>2026-05-07T02:25:43.160Z</time>
      </trkpt>
      <trkpt lat="43.625172" lon="10.688172">
        <ele>113.199362</ele>
        <time>2026-05-07T02:26:07.843Z</time>
      </trkpt>
      <trkpt lat="43.625204" lon="10.687636">
        <ele>113.534870</ele>
        <time>2026-05-07T02:26:15.587Z</time>
      </trkpt>
      <trkpt lat="43.625186" lon="10.687303">
        <ele>113.743184</ele>
        <time>2026-05-07T02:26:19.998Z</time>
      </trkpt>
      <trkpt lat="43.624988" lon="10.686792">
        <ele>112.552518</ele>
        <time>2026-05-07T02:26:27.262Z</time>
      </trkpt>
      <trkpt lat="43.624919" lon="10.686612">
        <ele>112.070200</ele>
        <time>2026-05-07T02:26:29.733Z</time>
      </trkpt>
      <trkpt lat="43.624869" lon="10.686395">
        <ele>111.530938</ele>
        <time>2026-05-07T02:26:32.446Z</time>
      </trkpt>
      <trkpt lat="43.624777" lon="10.684736">
        <ele>107.910185</ele>
        <time>2026-05-07T02:26:52.546Z</time>
      </trkpt>
      <trkpt lat="43.624657" lon="10.683996">
        <ele>107.986395</ele>
        <time>2026-05-07T02:27:03.430Z</time>
      </trkpt>
      <trkpt lat="43.624609" lon="10.683806">
        <ele>108.006618</ele>
        <time>2026-05-07T02:27:07.112Z</time>
      </trkpt>
      <trkpt lat="43.624416" lon="10.683284">
        <ele>108.065524</ele>
        <time>2026-05-07T02:27:20.404Z</time>
      </trkpt>
      <trkpt lat="43.624403" lon="10.683087">
        <ele>108.085404</ele>
        <time>2026-05-07T02:27:25.740Z</time>
      </trkpt>
      <trkpt lat="43.624463" lon="10.682941">
        <ele>108.102276</ele>
        <time>2026-05-07T02:27:30.411Z</time>
      </trkpt>
      <trkpt lat="43.624549" lon="10.683206">
        <ele>108.131461</ele>
        <time>2026-05-07T02:27:37.774Z</time>
      </trkpt>
      <trkpt lat="43.624706" lon="10.683307">
        <ele>108.185057</ele>
        <time>2026-05-07T02:27:43.596Z</time>
      </trkpt>
      <trkpt lat="43.625366" lon="10.683398">
        <ele>108.593107</ele>
        <time>2026-05-07T02:28:03.977Z</time>
      </trkpt>
      <trkpt lat="43.625753" lon="10.683250">
        <ele>108.840144</ele>
        <time>2026-05-07T02:28:14.233Z</time>
      </trkpt>
      <trkpt lat="43.625999" lon="10.683226">
        <ele>108.991861</ele>
        <time>2026-05-07T02:28:23.573Z</time>
      </trkpt>
      <trkpt lat="43.626285" lon="10.682886">
        <ele>109.223985</ele>
        <time>2026-05-07T02:28:37.618Z</time>
      </trkpt>
      <trkpt lat="43.626454" lon="10.682657">
        <ele>109.302247</ele>
        <time>2026-05-07T02:28:46.188Z</time>
      </trkpt>
      <trkpt lat="43.626566" lon="10.682433">
        <ele>109.353190</ele>
        <time>2026-05-07T02:28:53.467Z</time>
      </trkpt>
      <trkpt lat="43.626832" lon="10.681899">
        <ele>109.474488</ele>
        <time>2026-05-07T02:29:11.221Z</time>
      </trkpt>
      <trkpt lat="43.627261" lon="10.681864">
        <ele>109.585582</ele>
        <time>2026-05-07T02:29:28.907Z</time>
      </trkpt>
      <trkpt lat="43.627845" lon="10.682207">
        <ele>109.640178</ele>
        <time>2026-05-07T02:29:57.686Z</time>
      </trkpt>
      <trkpt lat="43.628007" lon="10.682302">
        <ele>109.526285</ele>
        <time>2026-05-07T02:30:04.831Z</time>
      </trkpt>
      <trkpt lat="43.628399" lon="10.682381">
        <ele>109.269914</ele>
        <time>2026-05-07T02:30:19.721Z</time>
      </trkpt>
      <trkpt lat="43.628636" lon="10.682491">
        <ele>109.108113</ele>
        <time>2026-05-07T02:30:28.792Z</time>
      </trkpt>
      <trkpt lat="43.629519" lon="10.683464">
        <ele>107.240775</ele>
        <time>2026-05-07T02:31:07.822Z</time>
      </trkpt>
      <trkpt lat="43.629731" lon="10.683582">
        <ele>106.144351</ele>
        <time>2026-05-07T02:31:14.796Z</time>
      </trkpt>
      <trkpt lat="43.629929" lon="10.683609">
        <ele>105.189905</ele>
        <time>2026-05-07T02:31:20.675Z</time>
      </trkpt>
      <trkpt lat="43.630182" lon="10.683561">
        <ele>103.964841</ele>
        <time>2026-05-07T02:31:27.974Z</time>
      </trkpt>
      <trkpt lat="43.630387" lon="10.683447">
        <ele>102.904757</ele>
        <time>2026-05-07T02:31:34.108Z</time>
      </trkpt>
      <trkpt lat="43.630753" lon="10.683384">
        <ele>101.135434</ele>
        <time>2026-05-07T02:31:44.276Z</time>
      </trkpt>
      <trkpt lat="43.631005" lon="10.683287">
        <ele>99.891926</ele>
        <time>2026-05-07T02:31:51.408Z</time>
      </trkpt>
      <trkpt lat="43.631378" lon="10.683046">
        <ele>98.411420</ele>
        <time>2026-05-07T02:32:02.621Z</time>
      </trkpt>
      <trkpt lat="43.632132" lon="10.682643">
        <ele>95.504667</ele>
        <time>2026-05-07T02:32:26.272Z</time>
      </trkpt>
      <trkpt lat="43.632391" lon="10.682396">
        <ele>94.373150</ele>
        <time>2026-05-07T02:32:37.324Z</time>
      </trkpt>
      <trkpt lat="43.632582" lon="10.682096">
        <ele>93.421503</ele>
        <time>2026-05-07T02:32:49.459Z</time>
      </trkpt>
      <trkpt lat="43.632854" lon="10.681844">
        <ele>93.069097</ele>
        <time>2026-05-07T02:33:04.986Z</time>
      </trkpt>
      <trkpt lat="43.633394" lon="10.681728">
        <ele>92.481035</ele>
        <time>2026-05-07T02:33:31.406Z</time>
      </trkpt>
      <trkpt lat="43.633511" lon="10.681677">
        <ele>92.349017</ele>
        <time>2026-05-07T02:33:36.192Z</time>
      </trkpt>
      <trkpt lat="43.633654" lon="10.681476">
        <ele>92.129507</ele>
        <time>2026-05-07T02:33:43.377Z</time>
      </trkpt>
      <trkpt lat="43.633726" lon="10.681112">
        <ele>91.835617</ele>
        <time>2026-05-07T02:33:52.067Z</time>
      </trkpt>
      <trkpt lat="43.633800" lon="10.680921">
        <ele>91.666889</ele>
        <time>2026-05-07T02:33:56.727Z</time>
      </trkpt>
      <trkpt lat="43.633834" lon="10.680861">
        <ele>91.607541</ele>
        <time>2026-05-07T02:33:58.322Z</time>
      </trkpt>
      <trkpt lat="43.633924" lon="10.680698">
        <ele>91.123738</ele>
        <time>2026-05-07T02:34:02.587Z</time>
      </trkpt>
      <trkpt lat="43.634012" lon="10.680578">
        <ele>90.421686</ele>
        <time>2026-05-07T02:34:06.085Z</time>
      </trkpt>
      <trkpt lat="43.634122" lon="10.680484">
        <ele>89.687283</ele>
        <time>2026-05-07T02:34:09.703Z</time>
      </trkpt>
      <trkpt lat="43.634402" lon="10.680326">
        <ele>87.969925</ele>
        <time>2026-05-07T02:34:17.921Z</time>
      </trkpt>
      <trkpt lat="43.634771" lon="10.680173">
        <ele>85.782385</ele>
        <time>2026-05-07T02:34:28.211Z</time>
      </trkpt>
      <trkpt lat="43.635499" lon="10.679961">
        <ele>81.557894</ele>
        <time>2026-05-07T02:34:48.883Z</time>
      </trkpt>
      <trkpt lat="43.635835" lon="10.679816">
        <ele>80.871548</ele>
        <time>2026-05-07T02:35:00.161Z</time>
      </trkpt>
      <trkpt lat="43.636223" lon="10.679757">
        <ele>80.315814</ele>
        <time>2026-05-07T02:35:15.385Z</time>
      </trkpt>
      <trkpt lat="43.637186" lon="10.679526">
        <ele>78.924277</ele>
        <time>2026-05-07T02:35:53.844Z</time>
      </trkpt>
      <trkpt lat="43.637318" lon="10.679462">
        <ele>78.667731</ele>
        <time>2026-05-07T02:35:58.479Z</time>
      </trkpt>
      <trkpt lat="43.637490" lon="10.679189">
        <ele>77.434452</ele>
        <time>2026-05-07T02:36:06.694Z</time>
      </trkpt>
      <trkpt lat="43.637540" lon="10.678980">
        <ele>76.684435</ele>
        <time>2026-05-07T02:36:11.499Z</time>
      </trkpt>
      <trkpt lat="43.637781" lon="10.678609">
        <ele>74.985818</ele>
        <time>2026-05-07T02:36:21.939Z</time>
      </trkpt>
      <trkpt lat="43.637847" lon="10.678459">
        <ele>74.387686</ele>
        <time>2026-05-07T02:36:25.531Z</time>
      </trkpt>
      <trkpt lat="43.637847" lon="10.678304">
        <ele>73.859563</ele>
        <time>2026-05-07T02:36:28.661Z</time>
      </trkpt>
      <trkpt lat="43.637878" lon="10.678186">
        <ele>73.431838</ele>
        <time>2026-05-07T02:36:31.164Z</time>
      </trkpt>
      <trkpt lat="43.637932" lon="10.678116">
        <ele>73.083242</ele>
        <time>2026-05-07T02:36:33.192Z</time>
      </trkpt>
      <trkpt lat="43.638002" lon="10.678073">
        <ele>72.722584</ele>
        <time>2026-05-07T02:36:35.290Z</time>
      </trkpt>
      <trkpt lat="43.638138" lon="10.678078">
        <ele>72.082071</ele>
        <time>2026-05-07T02:36:39.046Z</time>
      </trkpt>
      <trkpt lat="43.638204" lon="10.678052">
        <ele>71.758963</ele>
        <time>2026-05-07T02:36:40.958Z</time>
      </trkpt>
      <trkpt lat="43.638253" lon="10.677981">
        <ele>71.424687</ele>
        <time>2026-05-07T02:36:42.944Z</time>
      </trkpt>
      <trkpt lat="43.638351" lon="10.677923">
        <ele>70.922763</ele>
        <time>2026-05-07T02:36:45.952Z</time>
      </trkpt>
      <trkpt lat="43.638879" lon="10.678009">
        <ele>68.095134</ele>
        <time>2026-05-07T02:37:01.093Z</time>
      </trkpt>
      <trkpt lat="43.639115" lon="10.677820">
        <ele>66.587082</ele>
        <time>2026-05-07T02:37:08.889Z</time>
      </trkpt>
      <trkpt lat="43.639209" lon="10.677708">
        <ele>65.900869</ele>
        <time>2026-05-07T02:37:12.425Z</time>
      </trkpt>
      <trkpt lat="43.639388" lon="10.677622">
        <ele>64.853134</ele>
        <time>2026-05-07T02:37:17.775Z</time>
      </trkpt>
      <trkpt lat="43.639520" lon="10.677510">
        <ele>63.996756</ele>
        <time>2026-05-07T02:37:22.156Z</time>
      </trkpt>
      <trkpt lat="43.639543" lon="10.677435">
        <ele>63.670849</ele>
        <time>2026-05-07T02:37:23.821Z</time>
      </trkpt>
      <trkpt lat="43.639546" lon="10.677069">
        <ele>62.206377</ele>
        <time>2026-05-07T02:37:31.280Z</time>
      </trkpt>
      <trkpt lat="43.639524" lon="10.676297">
        <ele>60.100608</ele>
        <time>2026-05-07T02:37:47.181Z</time>
      </trkpt>
      <trkpt lat="43.639557" lon="10.676171">
        <ele>59.996526</ele>
        <time>2026-05-07T02:37:49.998Z</time>
      </trkpt>
      <trkpt lat="43.639628" lon="10.676023">
        <ele>59.858603</ele>
        <time>2026-05-07T02:37:53.757Z</time>
      </trkpt>
      <trkpt lat="43.639804" lon="10.675761">
        <ele>59.580936</ele>
        <time>2026-05-07T02:38:01.639Z</time>
      </trkpt>
      <trkpt lat="43.639876" lon="10.675712">
        <ele>59.494794</ele>
        <time>2026-05-07T02:38:04.225Z</time>
      </trkpt>
      <trkpt lat="43.639990" lon="10.675420">
        <ele>59.237085</ele>
        <time>2026-05-07T02:38:12.681Z</time>
      </trkpt>
      <trkpt lat="43.640069" lon="10.675297">
        <ele>59.109346</ele>
        <time>2026-05-07T02:38:17.275Z</time>
      </trkpt>
      <trkpt lat="43.640322" lon="10.674991">
        <ele>58.748472</ele>
        <time>2026-05-07T02:38:33.175Z</time>
      </trkpt>
      <trkpt lat="43.640375" lon="10.674822">
        <ele>58.605408</ele>
        <time>2026-05-07T02:38:40.495Z</time>
      </trkpt>
      <trkpt lat="43.640581" lon="10.674620">
        <ele>58.591467</ele>
        <time>2026-05-07T02:38:55.535Z</time>
      </trkpt>
      <trkpt lat="43.640664" lon="10.674485">
        <ele>58.937189</ele>
        <time>2026-05-07T02:39:03.627Z</time>
      </trkpt>
      <trkpt lat="43.640966" lon="10.674564">
        <ele>59.766109</ele>
        <time>2026-05-07T02:39:23.002Z</time>
      </trkpt>
      <trkpt lat="43.640978" lon="10.674567">
        <ele>59.798996</ele>
        <time>2026-05-07T02:39:23.699Z</time>
      </trkpt>
      <trkpt lat="43.641153" lon="10.674648">
        <ele>60.296720</ele>
        <time>2026-05-07T02:39:35.188Z</time>
      </trkpt>
      <trkpt lat="43.641253" lon="10.674642">
        <ele>60.566661</ele>
        <time>2026-05-07T02:39:41.569Z</time>
      </trkpt>
      <trkpt lat="43.641343" lon="10.674591">
        <ele>60.828995</ele>
        <time>2026-05-07T02:39:47.455Z</time>
      </trkpt>
      <trkpt lat="43.641518" lon="10.674653">
        <ele>61.316212</ele>
        <time>2026-05-07T02:39:58.475Z</time>
      </trkpt>
      <trkpt lat="43.641792" lon="10.674540">
        <ele>62.087361</ele>
        <time>2026-05-07T02:40:14.151Z</time>
      </trkpt>
      <trkpt lat="43.642069" lon="10.674610">
        <ele>62.846782</ele>
        <time>2026-05-07T02:40:27.794Z</time>
      </trkpt>
      <trkpt lat="43.642312" lon="10.674527">
        <ele>63.158255</ele>
        <time>2026-05-07T02:40:38.898Z</time>
      </trkpt>
      <trkpt lat="43.642481" lon="10.674502">
        <ele>62.984472</ele>
        <time>2026-05-07T02:40:45.524Z</time>
      </trkpt>
      <trkpt lat="43.643268" lon="10.674530">
        <ele>62.179529</ele>
        <time>2026-05-07T02:41:12.388Z</time>
      </trkpt>
      <trkpt lat="43.643451" lon="10.674478">
        <ele>61.988504</ele>
        <time>2026-05-07T02:41:18.571Z</time>
      </trkpt>
      <trkpt lat="43.643673" lon="10.674330">
        <ele>61.736484</ele>
        <time>2026-05-07T02:41:26.683Z</time>
      </trkpt>
      <trkpt lat="43.643943" lon="10.674147">
        <ele>61.429003</ele>
        <time>2026-05-07T02:41:36.638Z</time>
      </trkpt>
      <trkpt lat="43.644188" lon="10.674135">
        <ele>61.101106</ele>
        <time>2026-05-07T02:41:44.821Z</time>
      </trkpt>
      <trkpt lat="43.644435" lon="10.674071">
        <ele>60.761750</ele>
        <time>2026-05-07T02:41:53.195Z</time>
      </trkpt>
      <trkpt lat="43.644718" lon="10.673848">
        <ele>60.321830</ele>
        <time>2026-05-07T02:42:04.185Z</time>
      </trkpt>
      <trkpt lat="43.645308" lon="10.673535">
        <ele>59.468414</ele>
        <time>2026-05-07T02:42:26.514Z</time>
      </trkpt>
      <trkpt lat="43.645650" lon="10.673057">
        <ele>58.759441</ele>
        <time>2026-05-07T02:42:43.601Z</time>
      </trkpt>
      <trkpt lat="43.645905" lon="10.672837">
        <ele>58.235136</ele>
        <time>2026-05-07T02:42:53.976Z</time>
      </trkpt>
      <trkpt lat="43.646108" lon="10.672553">
        <ele>57.731325</ele>
        <time>2026-05-07T02:43:03.704Z</time>
      </trkpt>
      <trkpt lat="43.646170" lon="10.672419">
        <ele>57.530591</ele>
        <time>2026-05-07T02:43:07.581Z</time>
      </trkpt>
      <trkpt lat="43.646434" lon="10.672161">
        <ele>56.966645</ele>
        <time>2026-05-07T02:43:18.580Z</time>
      </trkpt>
      <trkpt lat="43.646911" lon="10.671764">
        <ele>55.995477</ele>
        <time>2026-05-07T02:43:36.796Z</time>
      </trkpt>
      <trkpt lat="43.647020" lon="10.671797">
        <ele>55.747913</ele>
        <time>2026-05-07T02:43:40.312Z</time>
      </trkpt>
      <trkpt lat="43.647315" lon="10.671728">
        <ele>54.698924</ele>
        <time>2026-05-07T02:43:49.679Z</time>
      </trkpt>
      <trkpt lat="43.647377" lon="10.671700">
        <ele>54.470237</ele>
        <time>2026-05-07T02:43:51.716Z</time>
      </trkpt>
      <trkpt lat="43.647451" lon="10.671603">
        <ele>54.112647</ele>
        <time>2026-05-07T02:43:54.859Z</time>
      </trkpt>
      <trkpt lat="43.647547" lon="10.671270">
        <ele>53.203258</ele>
        <time>2026-05-07T02:44:02.842Z</time>
      </trkpt>
      <trkpt lat="43.647602" lon="10.671174">
        <ele>52.892614</ele>
        <time>2026-05-07T02:44:05.559Z</time>
      </trkpt>
      <trkpt lat="43.647618" lon="10.671051">
        <ele>52.575565</ele>
        <time>2026-05-07T02:44:08.329Z</time>
      </trkpt>
      <trkpt lat="43.647567" lon="10.670590">
        <ele>51.392436</ele>
        <time>2026-05-07T02:44:18.600Z</time>
      </trkpt>
      <trkpt lat="43.647571" lon="10.670434">
        <ele>50.996422</ele>
        <time>2026-05-07T02:44:21.967Z</time>
      </trkpt>
      <trkpt lat="43.647858" lon="10.670273">
        <ele>49.910451</ele>
        <time>2026-05-07T02:44:31.067Z</time>
      </trkpt>
      <trkpt lat="43.647954" lon="10.670160">
        <ele>49.458788</ele>
        <time>2026-05-07T02:44:34.766Z</time>
      </trkpt>
      <trkpt lat="43.648043" lon="10.670139">
        <ele>49.103911</ele>
        <time>2026-05-07T02:44:37.406Z</time>
      </trkpt>
      <trkpt lat="43.648145" lon="10.670197">
        <ele>48.670389</ele>
        <time>2026-05-07T02:44:40.643Z</time>
      </trkpt>
      <trkpt lat="43.648242" lon="10.670203">
        <ele>48.288748</ele>
        <time>2026-05-07T02:44:43.523Z</time>
      </trkpt>
      <trkpt lat="43.648455" lon="10.670112">
        <ele>47.412458</ele>
        <time>2026-05-07T02:44:50.189Z</time>
      </trkpt>
      <trkpt lat="43.648796" lon="10.670043">
        <ele>46.057864</ele>
        <time>2026-05-07T02:45:00.568Z</time>
      </trkpt>
      <trkpt lat="43.649056" lon="10.669834">
        <ele>44.875635</ele>
        <time>2026-05-07T02:45:09.685Z</time>
      </trkpt>
      <trkpt lat="43.649134" lon="10.669678">
        <ele>44.336345</ele>
        <time>2026-05-07T02:45:13.831Z</time>
      </trkpt>
      <trkpt lat="43.649208" lon="10.669598">
        <ele>43.967068</ele>
        <time>2026-05-07T02:45:16.676Z</time>
      </trkpt>
      <trkpt lat="43.649619" lon="10.669431">
        <ele>42.295473</ele>
        <time>2026-05-07T02:45:29.647Z</time>
      </trkpt>
      <trkpt lat="43.649774" lon="10.669410">
        <ele>41.721809</ele>
        <time>2026-05-07T02:45:34.362Z</time>
      </trkpt>
      <trkpt lat="43.650003" lon="10.669458">
        <ele>40.868663</ele>
        <time>2026-05-07T02:45:41.377Z</time>
      </trkpt>
      <trkpt lat="43.650050" lon="10.669415">
        <ele>40.661047</ele>
        <time>2026-05-07T02:45:43.075Z</time>
      </trkpt>
      <trkpt lat="43.650311" lon="10.669532">
        <ele>39.650370</ele>
        <time>2026-05-07T02:45:51.412Z</time>
      </trkpt>
      <trkpt lat="43.650423" lon="10.669533">
        <ele>39.237821</ele>
        <time>2026-05-07T02:45:54.834Z</time>
      </trkpt>
      <trkpt lat="43.650861" lon="10.669356">
        <ele>37.556936</ele>
        <time>2026-05-07T02:46:08.761Z</time>
      </trkpt>
      <trkpt lat="43.651067" lon="10.669473">
        <ele>36.736581</ele>
        <time>2026-05-07T02:46:15.533Z</time>
      </trkpt>
      <trkpt lat="43.651273" lon="10.669452">
        <ele>35.975738</ele>
        <time>2026-05-07T02:46:21.788Z</time>
      </trkpt>
      <trkpt lat="43.651669" lon="10.669333">
        <ele>34.165368</ele>
        <time>2026-05-07T02:46:33.950Z</time>
      </trkpt>
      <trkpt lat="43.652241" lon="10.669088">
        <ele>31.447939</ele>
        <time>2026-05-07T02:46:51.652Z</time>
      </trkpt>
      <trkpt lat="43.652769" lon="10.668805">
        <ele>28.878103</ele>
        <time>2026-05-07T02:47:08.036Z</time>
      </trkpt>
      <trkpt lat="43.653000" lon="10.668731">
        <ele>27.802076</ele>
        <time>2026-05-07T02:47:14.842Z</time>
      </trkpt>
      <trkpt lat="43.653489" lon="10.668605">
        <ele>25.797030</ele>
        <time>2026-05-07T02:47:29.006Z</time>
      </trkpt>
      <trkpt lat="43.654801" lon="10.668603">
        <ele>20.543138</ele>
        <time>2026-05-07T02:48:08.283Z</time>
      </trkpt>
      <trkpt lat="43.654959" lon="10.668945">
        <ele>20.297101</ele>
        <time>2026-05-07T02:48:13.946Z</time>
      </trkpt>
      <trkpt lat="43.654998" lon="10.669189">
        <ele>20.173825</ele>
        <time>2026-05-07T02:48:17.632Z</time>
      </trkpt>
      <trkpt lat="43.654963" lon="10.669458">
        <ele>20.038989</ele>
        <time>2026-05-07T02:48:21.898Z</time>
      </trkpt>
      <trkpt lat="43.654895" lon="10.669979">
        <ele>19.777813</ele>
        <time>2026-05-07T02:48:30.668Z</time>
      </trkpt>
      <trkpt lat="43.654779" lon="10.670621">
        <ele>19.451365</ele>
        <time>2026-05-07T02:48:42.678Z</time>
      </trkpt>
      <trkpt lat="43.654707" lon="10.670877">
        <ele>19.315864</ele>
        <time>2026-05-07T02:48:47.593Z</time>
      </trkpt>
      <trkpt lat="43.654546" lon="10.671250">
        <ele>19.105737</ele>
        <time>2026-05-07T02:48:55.013Z</time>
      </trkpt>
      <trkpt lat="43.654542" lon="10.671318">
        <ele>19.072953</ele>
        <time>2026-05-07T02:48:56.101Z</time>
      </trkpt>
      <trkpt lat="43.654563" lon="10.671370">
        <ele>19.044336</ele>
        <time>2026-05-07T02:48:57.041Z</time>
      </trkpt>
      <trkpt lat="43.654689" lon="10.671470">
        <ele>18.947834</ele>
        <time>2026-05-07T02:49:00.186Z</time>
      </trkpt>
      <trkpt lat="43.654861" lon="10.671561">
        <ele>18.825512</ele>
        <time>2026-05-07T02:49:04.093Z</time>
      </trkpt>
      <trkpt lat="43.654984" lon="10.671555">
        <ele>18.743768</ele>
        <time>2026-05-07T02:49:06.653Z</time>
      </trkpt>
      <trkpt lat="43.655034" lon="10.671507">
        <ele>18.703335</ele>
        <time>2026-05-07T02:49:07.902Z</time>
      </trkpt>
      <trkpt lat="43.655072" lon="10.671393">
        <ele>18.643019</ele>
        <time>2026-05-07T02:49:09.755Z</time>
      </trkpt>
      <trkpt lat="43.655107" lon="10.671114">
        <ele>18.506949</ele>
        <time>2026-05-07T02:49:13.911Z</time>
      </trkpt>
      <trkpt lat="43.655145" lon="10.671026">
        <ele>18.457703</ele>
        <time>2026-05-07T02:49:15.391Z</time>
      </trkpt>
      <trkpt lat="43.655198" lon="10.670987">
        <ele>18.417823</ele>
        <time>2026-05-07T02:49:16.618Z</time>
      </trkpt>
      <trkpt lat="43.655309" lon="10.670988">
        <ele>18.344098</ele>
        <time>2026-05-07T02:49:18.839Z</time>
      </trkpt>
      <trkpt lat="43.655633" lon="10.669201">
        <ele>17.188784</ele>
        <time>2026-05-07T02:49:45.753Z</time>
      </trkpt>
      <trkpt lat="43.655727" lon="10.668610">
        <ele>16.768858</ele>
        <time>2026-05-07T02:49:54.638Z</time>
      </trkpt>
      <trkpt lat="43.655750" lon="10.667597">
        <ele>16.097537</ele>
        <time>2026-05-07T02:50:09.754Z</time>
      </trkpt>
      <trkpt lat="43.655692" lon="10.667082">
        <ele>15.777776</ele>
        <time>2026-05-07T02:50:17.543Z</time>
      </trkpt>
      <trkpt lat="43.655528" lon="10.666199">
        <ele>15.218484</ele>
        <time>2026-05-07T02:50:31.142Z</time>
      </trkpt>
      <trkpt lat="43.655464" lon="10.665582">
        <ele>14.836079</ele>
        <time>2026-05-07T02:50:40.445Z</time>
      </trkpt>
      <trkpt lat="43.655470" lon="10.665231">
        <ele>14.684115</ele>
        <time>2026-05-07T02:50:45.701Z</time>
      </trkpt>
      <trkpt lat="43.655513" lon="10.665033">
        <ele>14.598388</ele>
        <time>2026-05-07T02:50:48.805Z</time>
      </trkpt>
      <trkpt lat="43.655757" lon="10.664321">
        <ele>14.271687</ele>
        <time>2026-05-07T02:51:00.766Z</time>
      </trkpt>
      <trkpt lat="43.656283" lon="10.662786">
        <ele>13.733483</ele>
        <time>2026-05-07T02:51:27.332Z</time>
      </trkpt>
      <trkpt lat="43.656688" lon="10.661145">
        <ele>13.561999</ele>
        <time>2026-05-07T02:51:56.536Z</time>
      </trkpt>
      <trkpt lat="43.657002" lon="10.659775">
        <ele>13.474578</ele>
        <time>2026-05-07T02:52:19.649Z</time>
      </trkpt>
      <trkpt lat="43.657237" lon="10.658731">
        <ele>13.415842</ele>
        <time>2026-05-07T02:52:38.249Z</time>
      </trkpt>
      <trkpt lat="43.657387" lon="10.657927">
        <ele>13.513291</ele>
        <time>2026-05-07T02:52:51.494Z</time>
      </trkpt>
      <trkpt lat="43.657395" lon="10.657877">
        <ele>13.521756</ele>
        <time>2026-05-07T02:52:52.395Z</time>
      </trkpt>
      <trkpt lat="43.657423" lon="10.657738">
        <ele>13.545609</ele>
        <time>2026-05-07T02:52:54.854Z</time>
      </trkpt>
      <trkpt lat="43.657441" lon="10.657652">
        <ele>13.560409</ele>
        <time>2026-05-07T02:52:56.397Z</time>
      </trkpt>
      <trkpt lat="43.657500" lon="10.657425">
        <ele>13.600284</ele>
        <time>2026-05-07T02:53:00.768Z</time>
      </trkpt>
      <trkpt lat="43.657617" lon="10.657011">
        <ele>13.673760</ele>
        <time>2026-05-07T02:53:09.324Z</time>
      </trkpt>
      <trkpt lat="43.657579" lon="10.656910">
        <ele>13.692579</ele>
        <time>2026-05-07T02:53:11.485Z</time>
      </trkpt>
      <trkpt lat="43.657509" lon="10.656861">
        <ele>13.710508</ele>
        <time>2026-05-07T02:53:13.513Z</time>
      </trkpt>
      <trkpt lat="43.657177" lon="10.656876">
        <ele>13.786410</ele>
        <time>2026-05-07T02:53:21.694Z</time>
      </trkpt>
      <trkpt lat="43.657019" lon="10.656847">
        <ele>13.837298</ele>
        <time>2026-05-07T02:53:25.264Z</time>
      </trkpt>
      <trkpt lat="43.655925" lon="10.656518">
        <ele>14.735105</ele>
        <time>2026-05-07T02:53:55.846Z</time>
      </trkpt>
      <trkpt lat="43.655724" lon="10.656318">
        <ele>14.933711</ele>
        <time>2026-05-07T02:54:03.385Z</time>
      </trkpt>
      <trkpt lat="43.655156" lon="10.655430">
        <ele>15.608943</ele>
        <time>2026-05-07T02:54:28.993Z</time>
      </trkpt>
      <trkpt lat="43.655007" lon="10.655208">
        <ele>15.778592</ele>
        <time>2026-05-07T02:54:35.099Z</time>
      </trkpt>
      <trkpt lat="43.654884" lon="10.655020">
        <ele>15.920595</ele>
        <time>2026-05-07T02:54:40.098Z</time>
      </trkpt>
      <trkpt lat="43.654632" lon="10.654639">
        <ele>16.209801</ele>
        <time>2026-05-07T02:54:49.962Z</time>
      </trkpt>
      <trkpt lat="43.654594" lon="10.654533">
        <ele>16.276078</ele>
        <time>2026-05-07T02:54:52.250Z</time>
      </trkpt>
      <trkpt lat="43.654643" lon="10.654254">
        <ele>16.436926</ele>
        <time>2026-05-07T02:54:57.549Z</time>
      </trkpt>
      <trkpt lat="43.654757" lon="10.653854">
        <ele>16.674246</ele>
        <time>2026-05-07T02:55:05.451Z</time>
      </trkpt>
      <trkpt lat="43.655331" lon="10.651472">
        <ele>17.839955</ele>
        <time>2026-05-07T02:55:55.886Z</time>
      </trkpt>
      <trkpt lat="43.655339" lon="10.651415">
        <ele>17.829567</ele>
        <time>2026-05-07T02:55:57.099Z</time>
      </trkpt>
      <trkpt lat="43.655331" lon="10.651472">
        <ele>17.819179</ele>
        <time>2026-05-07T02:55:58.251Z</time>
      </trkpt>
      <trkpt lat="43.654304" lon="10.650993">
        <ele>17.551139</ele>
        <time>2026-05-07T02:56:24.512Z</time>
      </trkpt>
      <trkpt lat="43.654148" lon="10.650925">
        <ele>17.510688</ele>
        <time>2026-05-07T02:56:28.048Z</time>
      </trkpt>
      <trkpt lat="43.653579" lon="10.650678">
        <ele>17.199617</ele>
        <time>2026-05-07T02:56:40.784Z</time>
      </trkpt>
      <trkpt lat="43.653473" lon="10.650524">
        <ele>17.021947</ele>
        <time>2026-05-07T02:56:44.010Z</time>
      </trkpt>
      <trkpt lat="43.653407" lon="10.650453">
        <ele>16.925325</ele>
        <time>2026-05-07T02:56:45.750Z</time>
      </trkpt>
      <trkpt lat="43.653321" lon="10.650363">
        <ele>16.800702</ele>
        <time>2026-05-07T02:56:47.968Z</time>
      </trkpt>
      <trkpt lat="43.653323" lon="10.649927">
        <ele>16.436251</ele>
        <time>2026-05-07T02:56:56.338Z</time>
      </trkpt>
      <trkpt lat="43.653290" lon="10.649536">
        <ele>16.107205</ele>
        <time>2026-05-07T02:57:03.951Z</time>
      </trkpt>
      <trkpt lat="43.653382" lon="10.649025">
        <ele>15.667045</ele>
        <time>2026-05-07T02:57:14.157Z</time>
      </trkpt>
      <trkpt lat="43.653674" lon="10.648205">
        <ele>15.162664</ele>
        <time>2026-05-07T02:57:32.579Z</time>
      </trkpt>
      <trkpt lat="43.653673" lon="10.647909">
        <ele>15.065744</ele>
        <time>2026-05-07T02:57:38.545Z</time>
      </trkpt>
      <trkpt lat="43.653726" lon="10.647780">
        <ele>15.017170</ele>
        <time>2026-05-07T02:57:40.786Z</time>
      </trkpt>
      <trkpt lat="43.654046" lon="10.646938">
        <ele>14.705755</ele>
        <time>2026-05-07T02:57:55.605Z</time>
      </trkpt>
      <trkpt lat="43.654173" lon="10.646584">
        <ele>14.576378</ele>
        <time>2026-05-07T02:58:02.243Z</time>
      </trkpt>
      <trkpt lat="43.654312" lon="10.645943">
        <ele>14.566944</ele>
        <time>2026-05-07T02:58:14.168Z</time>
      </trkpt>
      <trkpt lat="43.654335" lon="10.645591">
        <ele>14.604239</ele>
        <time>2026-05-07T02:58:20.283Z</time>
      </trkpt>
      <trkpt lat="43.654279" lon="10.645154">
        <ele>14.651070</ele>
        <time>2026-05-07T02:58:27.953Z</time>
      </trkpt>
      <trkpt lat="43.654322" lon="10.644978">
        <ele>14.670673</ele>
        <time>2026-05-07T02:58:31.223Z</time>
      </trkpt>
      <trkpt lat="43.654371" lon="10.644851">
        <ele>14.685860</ele>
        <time>2026-05-07T02:58:33.736Z</time>
      </trkpt>
      <trkpt lat="43.654340" lon="10.644675">
        <ele>14.704975</ele>
        <time>2026-05-07T02:58:36.897Z</time>
      </trkpt>
      <trkpt lat="43.654353" lon="10.644274">
        <ele>14.747332</ele>
        <time>2026-05-07T02:58:43.881Z</time>
      </trkpt>
      <trkpt lat="43.654292" lon="10.643683">
        <ele>14.801424</ele>
        <time>2026-05-07T02:58:54.025Z</time>
      </trkpt>
      <trkpt lat="43.653874" lon="10.639828">
        <ele>14.962323</ele>
        <time>2026-05-07T03:00:00.840Z</time>
      </trkpt>
      <trkpt lat="43.653830" lon="10.639423">
        <ele>14.961000</ele>
        <time>2026-05-07T03:00:07.436Z</time>
      </trkpt>
      <trkpt lat="43.653748" lon="10.638553">
        <ele>14.841398</ele>
        <time>2026-05-07T03:00:21.379Z</time>
      </trkpt>
      <trkpt lat="43.653756" lon="10.637816">
        <ele>14.672794</ele>
        <time>2026-05-07T03:00:32.935Z</time>
      </trkpt>
      <trkpt lat="43.653917" lon="10.635976">
        <ele>14.380169</ele>
        <time>2026-05-07T03:01:02.544Z</time>
      </trkpt>
      <trkpt lat="43.653947" lon="10.635839">
        <ele>14.377633</ele>
        <time>2026-05-07T03:01:04.888Z</time>
      </trkpt>
      <trkpt lat="43.654059" lon="10.635617">
        <ele>14.372839</ele>
        <time>2026-05-07T03:01:09.325Z</time>
      </trkpt>
      <trkpt lat="43.654116" lon="10.635550">
        <ele>14.371007</ele>
        <time>2026-05-07T03:01:11.038Z</time>
      </trkpt>
      <trkpt lat="43.654263" lon="10.635541">
        <ele>14.367404</ele>
        <time>2026-05-07T03:01:14.455Z</time>
      </trkpt>
      <trkpt lat="43.654399" lon="10.635533">
        <ele>14.364071</ele>
        <time>2026-05-07T03:01:17.662Z</time>
      </trkpt>
      <trkpt lat="43.654429" lon="10.635460">
        <ele>14.362584</ele>
        <time>2026-05-07T03:01:21.866Z</time>
      </trkpt>
      <trkpt lat="43.654252" lon="10.635248">
        <ele>14.356850</ele>
        <time>2026-05-07T03:01:27.381Z</time>
      </trkpt>
      <trkpt lat="43.654116" lon="10.634963">
        <ele>14.350802</ele>
        <time>2026-05-07T03:01:33.322Z</time>
      </trkpt>
      <trkpt lat="43.654081" lon="10.634688">
        <ele>14.345449</ele>
        <time>2026-05-07T03:01:38.171Z</time>
      </trkpt>
      <trkpt lat="43.654118" lon="10.634303">
        <ele>14.336417</ele>
        <time>2026-05-07T03:01:45.014Z</time>
      </trkpt>
      <trkpt lat="43.654139" lon="10.634149">
        <ele>14.332773</ele>
        <time>2026-05-07T03:01:47.740Z</time>
      </trkpt>
      <trkpt lat="43.654118" lon="10.634303">
        <ele>14.329128</ele>
        <time>2026-05-07T03:01:50.383Z</time>
      </trkpt>
      <trkpt lat="43.654141" lon="10.634316">
        <ele>14.328330</ele>
        <time>2026-05-07T03:01:50.950Z</time>
      </trkpt>
      <trkpt lat="43.654189" lon="10.633834">
        <ele>14.317015</ele>
        <time>2026-05-07T03:02:15.413Z</time>
      </trkpt>
      <trkpt lat="43.654159" lon="10.633767">
        <ele>14.315183</ele>
        <time>2026-05-07T03:02:19.380Z</time>
      </trkpt>
      <trkpt lat="43.654257" lon="10.632664">
        <ele>14.289330</ele>
        <time>2026-05-07T03:03:15.261Z</time>
      </trkpt>
      <trkpt lat="43.654333" lon="10.631822">
        <ele>14.225078</ele>
        <time>2026-05-07T03:03:57.911Z</time>
      </trkpt>
      <trkpt lat="43.654351" lon="10.631726">
        <ele>14.217569</ele>
        <time>2026-05-07T03:04:02.915Z</time>
      </trkpt>
      <trkpt lat="43.654333" lon="10.631822">
        <ele>14.210059</ele>
        <time>2026-05-07T03:04:07.920Z</time>
      </trkpt>
      <trkpt lat="43.654286" lon="10.631815">
        <ele>14.205112</ele>
        <time>2026-05-07T03:04:11.230Z</time>
      </trkpt>
      <trkpt lat="43.654335" lon="10.631486">
        <ele>14.179677</ele>
        <time>2026-05-07T03:04:16.759Z</time>
      </trkpt>
      <trkpt lat="43.654390" lon="10.631410">
        <ele>14.171538</ele>
        <time>2026-05-07T03:04:18.501Z</time>
      </trkpt>
      <trkpt lat="43.654492" lon="10.631362">
        <ele>14.160261</ele>
        <time>2026-05-07T03:04:20.931Z</time>
      </trkpt>
      <trkpt lat="43.654666" lon="10.631375">
        <ele>14.142024</ele>
        <time>2026-05-07T03:04:24.827Z</time>
      </trkpt>
      <trkpt lat="43.654655" lon="10.631430">
        <ele>14.137703</ele>
        <time>2026-05-07T03:04:27.722Z</time>
      </trkpt>
      <trkpt lat="43.654876" lon="10.631517">
        <ele>14.113654</ele>
        <time>2026-05-07T03:04:43.702Z</time>
      </trkpt>
      <trkpt lat="43.655097" lon="10.631603">
        <ele>14.148562</ele>
        <time>2026-05-07T03:04:59.658Z</time>
      </trkpt>
      <trkpt lat="43.654876" lon="10.631517">
        <ele>14.247922</ele>
        <time>2026-05-07T03:05:15.614Z</time>
      </trkpt>
      <trkpt lat="43.654655" lon="10.631430">
        <ele>14.347368</ele>
        <time>2026-05-07T03:05:31.595Z</time>
      </trkpt>
      <trkpt lat="43.654666" lon="10.631375">
        <ele>14.365235</ele>
        <time>2026-05-07T03:05:34.490Z</time>
      </trkpt>
      <trkpt lat="43.654604" lon="10.631337">
        <ele>14.394586</ele>
        <time>2026-05-07T03:05:36.285Z</time>
      </trkpt>
      <trkpt lat="43.654628" lon="10.631289">
        <ele>14.412856</ele>
        <time>2026-05-07T03:05:37.419Z</time>
      </trkpt>
      <trkpt lat="43.654679" lon="10.631313">
        <ele>14.436171</ele>
        <time>2026-05-07T03:05:38.880Z</time>
      </trkpt>
      <trkpt lat="43.654984" lon="10.631432">
        <ele>14.573324</ele>
        <time>2026-05-07T03:05:47.275Z</time>
      </trkpt>
      <trkpt lat="43.655125" lon="10.631413">
        <ele>14.634633</ele>
        <time>2026-05-07T03:05:50.864Z</time>
      </trkpt>
      <trkpt lat="43.655438" lon="10.631528">
        <ele>14.774794</ele>
        <time>2026-05-07T03:05:59.147Z</time>
      </trkpt>
      <trkpt lat="43.655590" lon="10.631469">
        <ele>14.843119</ele>
        <time>2026-05-07T03:06:03.354Z</time>
      </trkpt>
      <trkpt lat="43.655659" lon="10.631488">
        <ele>14.873567</ele>
        <time>2026-05-07T03:06:05.213Z</time>
      </trkpt>
      <trkpt lat="43.655747" lon="10.631021">
        <ele>14.795148</ele>
        <time>2026-05-07T03:06:14.358Z</time>
      </trkpt>
      <trkpt lat="43.655487" lon="10.630933">
        <ele>14.727837</ele>
        <time>2026-05-07T03:06:21.113Z</time>
      </trkpt>
      <trkpt lat="43.655747" lon="10.631021">
        <ele>14.660525</ele>
        <time>2026-05-07T03:06:27.455Z</time>
      </trkpt>
      <trkpt lat="43.655659" lon="10.631488">
        <ele>14.572729</ele>
        <time>2026-05-07T03:06:34.920Z</time>
      </trkpt>
      <trkpt lat="43.655590" lon="10.631469">
        <ele>14.555037</ele>
        <time>2026-05-07T03:06:36.408Z</time>
      </trkpt>
      <trkpt lat="43.655438" lon="10.631528">
        <ele>14.515337</ele>
        <time>2026-05-07T03:06:39.695Z</time>
      </trkpt>
      <trkpt lat="43.655125" lon="10.631413">
        <ele>14.433897</ele>
        <time>2026-05-07T03:06:46.342Z</time>
      </trkpt>
      <trkpt lat="43.654984" lon="10.631432">
        <ele>14.401268</ele>
        <time>2026-05-07T03:06:49.247Z</time>
      </trkpt>
      <trkpt lat="43.654679" lon="10.631313">
        <ele>14.329822</ele>
        <time>2026-05-07T03:06:55.812Z</time>
      </trkpt>
      <trkpt lat="43.654628" lon="10.631289">
        <ele>14.317677</ele>
        <time>2026-05-07T03:06:56.952Z</time>
      </trkpt>
      <trkpt lat="43.654604" lon="10.631274">
        <ele>14.311739</ele>
        <time>2026-05-07T03:06:57.527Z</time>
      </trkpt>
      <trkpt lat="43.654572" lon="10.631244">
        <ele>14.303022</ele>
        <time>2026-05-07T03:06:58.342Z</time>
      </trkpt>
      <trkpt lat="43.654458" lon="10.630914">
        <ele>14.243376</ele>
        <time>2026-05-07T03:07:04.101Z</time>
      </trkpt>
      <trkpt lat="43.654420" lon="10.630655">
        <ele>14.200271</ele>
        <time>2026-05-07T03:07:08.436Z</time>
      </trkpt>
      <trkpt lat="43.654378" lon="10.630586">
        <ele>14.185563</ele>
        <time>2026-05-07T03:07:09.984Z</time>
      </trkpt>
      <trkpt lat="43.654282" lon="10.630551">
        <ele>14.163181</ele>
        <time>2026-05-07T03:07:12.347Z</time>
      </trkpt>
      <trkpt lat="43.654148" lon="10.630589">
        <ele>14.132343</ele>
        <time>2026-05-07T03:07:15.673Z</time>
      </trkpt>
      <trkpt lat="43.654021" lon="10.630938">
        <ele>14.068624</ele>
        <time>2026-05-07T03:07:22.672Z</time>
      </trkpt>
      <trkpt lat="43.653922" lon="10.630981">
        <ele>14.045230</ele>
        <time>2026-05-07T03:07:25.177Z</time>
      </trkpt>
      <trkpt lat="43.653799" lon="10.630947">
        <ele>14.021442</ele>
        <time>2026-05-07T03:07:28.191Z</time>
      </trkpt>
      <trkpt lat="43.653709" lon="10.630922">
        <ele>14.020189</ele>
        <time>2026-05-07T03:07:30.393Z</time>
      </trkpt>
      <trkpt lat="43.653700" lon="10.630992">
        <ele>14.019487</ele>
        <time>2026-05-07T03:07:31.596Z</time>
      </trkpt>
      <trkpt lat="43.653512" lon="10.630951">
        <ele>14.016891</ele>
        <time>2026-05-07T03:07:36.063Z</time>
      </trkpt>
      <trkpt lat="43.653334" lon="10.630911">
        <ele>14.014430</ele>
        <time>2026-05-07T03:07:40.296Z</time>
      </trkpt>
      <trkpt lat="43.653512" lon="10.630951">
        <ele>14.011970</ele>
        <time>2026-05-07T03:07:44.388Z</time>
      </trkpt>
      <trkpt lat="43.653700" lon="10.630992">
        <ele>14.009373</ele>
        <time>2026-05-07T03:07:48.739Z</time>
      </trkpt>
      <trkpt lat="43.653709" lon="10.630922">
        <ele>14.008671</ele>
        <time>2026-05-07T03:07:49.893Z</time>
      </trkpt>
      <trkpt lat="43.653799" lon="10.630947">
        <ele>14.007419</ele>
        <time>2026-05-07T03:07:51.982Z</time>
      </trkpt>
      <trkpt lat="43.653922" lon="10.630981">
        <ele>14.005707</ele>
        <time>2026-05-07T03:07:54.783Z</time>
      </trkpt>
      <trkpt lat="43.654021" lon="10.630938">
        <ele>14.004292</ele>
        <time>2026-05-07T03:07:57.110Z</time>
      </trkpt>
      <trkpt lat="43.654148" lon="10.630589">
        <ele>14.000435</ele>
        <time>2026-05-07T03:08:03.331Z</time>
      </trkpt>
      <trkpt lat="43.654282" lon="10.630551">
        <ele>13.998569</ele>
        <time>2026-05-07T03:08:06.376Z</time>
      </trkpt>
      <trkpt lat="43.654378" lon="10.630586">
        <ele>13.997215</ele>
        <time>2026-05-07T03:08:08.607Z</time>
      </trkpt>
      <trkpt lat="43.654420" lon="10.630655">
        <ele>13.997191</ele>
        <time>2026-05-07T03:08:10.090Z</time>
      </trkpt>
      <trkpt lat="43.654458" lon="10.630914">
        <ele>13.997191</ele>
        <time>2026-05-07T03:08:14.567Z</time>
      </trkpt>
      <trkpt lat="43.654572" lon="10.631244">
        <ele>13.997191</ele>
        <time>2026-05-07T03:08:21.312Z</time>
      </trkpt>
      <trkpt lat="43.654604" lon="10.631274">
        <ele>13.997191</ele>
        <time>2026-05-07T03:08:22.305Z</time>
      </trkpt>
      <trkpt lat="43.654628" lon="10.631289">
        <ele>13.997191</ele>
        <time>2026-05-07T03:08:23.007Z</time>
      </trkpt>
      <trkpt lat="43.654679" lon="10.631313">
        <ele>13.997191</ele>
        <time>2026-05-07T03:08:24.460Z</time>
      </trkpt>
      <trkpt lat="43.654984" lon="10.631432">
        <ele>13.997191</ele>
        <time>2026-05-07T03:08:33.274Z</time>
      </trkpt>
      <trkpt lat="43.655125" lon="10.631413">
        <ele>13.997191</ele>
        <time>2026-05-07T03:08:37.335Z</time>
      </trkpt>
      <trkpt lat="43.655438" lon="10.631528">
        <ele>13.997191</ele>
        <time>2026-05-07T03:08:46.598Z</time>
      </trkpt>
      <trkpt lat="43.655590" lon="10.631469">
        <ele>13.997191</ele>
        <time>2026-05-07T03:08:51.061Z</time>
      </trkpt>
      <trkpt lat="43.655659" lon="10.631488">
        <ele>13.997191</ele>
        <time>2026-05-07T03:08:53.012Z</time>
      </trkpt>
      <trkpt lat="43.655747" lon="10.631021">
        <ele>13.997191</ele>
        <time>2026-05-07T03:09:02.653Z</time>
      </trkpt>
      <trkpt lat="43.655783" lon="10.630798">
        <ele>13.997191</ele>
        <time>2026-05-07T03:09:07.045Z</time>
      </trkpt>
      <trkpt lat="43.655865" lon="10.630705">
        <ele>13.997191</ele>
        <time>2026-05-07T03:09:10.545Z</time>
      </trkpt>
      <trkpt lat="43.655891" lon="10.630522">
        <ele>13.997191</ele>
        <time>2026-05-07T03:09:14.998Z</time>
      </trkpt>
    </trkseg>
  </trk>
</gpx>